[[{"header":{"parameterUnit":"m.s-1","parameterCategory":1,"la1":30.6,"la2":28.766,"lo1":-90.7593,"lo2":-88.6598,"dy":0.0162,"dx":0.0183,"nx":116,"ny":114,"refTime":"2023-07-02T00:00:00:Z","depth":0,"parameterNumber":2,"parameterNumberName":"U-component_of_WINDS"},"data":[0.0,0.0,0.0,0.0,0.0,0.0,0.0,0.0,0.0,0.0,0.0,0.0,0.0,0.0,0.0,0.0,0.0,0.0,0.0,0.0,0.0,0.0,0.0,0.0,0.0,0.0,0.0,0.0,0.0,0.0,0.0,0.0,0.0,0.0,0.0,0.0,0.0,0.0,0.0,0.0,0.0,0.0,0.0,0.0,0.0,0.0,0.0,0.0,0.0,0.0,0.0,0.0,0.0,0.0,0.0,0.0,0.0,0.0,0.0,0.0,0.0,0.0,0.0,0.0,0.0,0.0,0.0,0.0,0.0,0.0,0.0,0.0,0.0,0.0,0.0,0.0,0.0,0.0,0.0,0.0,0.0,0.0,0.0,0.0,0.0,0.0,0.0,0.0,0.0,0.0,0.0,0.0,0.0,0.0,0.0,0.0,0.0,0.0,0.0,0.0,0.0,0.0,0.0,0.0,0.0,0.0,0.0,0.0,0.0,0.0,0.0,0.0,0.0,0.0,0.0,0.0,0.0,0.0,0.0,0.0,0.0,0.0,0.0,0.0,0.0,0.0,0.0,0.0,0.0,0.0,0.0,0.0,0.0,0.0,0.0,0.0,0.0,0.0,0.0,0.0,0.0,0.0,0.0,0.0,0.0,0.0,0.0,0.0,0.0,0.0,0.0,0.0,0.0,0.0,0.0,0.0,0.0,0.0,0.0,0.0,0.0,0.0,0.0,0.0,0.0,0.0,0.0,0.0,0.0,0.0,0.0,0.0,0.0,0.0,0.0,0.0,0.0,0.0,0.0,0.0,0.0,0.0,0.0,0.0,0.0,0.0,0.0,0.0,0.0,0.0,0.0,0.0,0.0,0.0,0.0,0.0,0.0,0.0,0.0,0.0,0.0,0.0,0.0,0.0,0.0,0.0,0.0,0.0,0.0,0.0,0.0,0.0,0.0,0.0,0.0,0.0,0.0,0.0,0.0,0.0,0.0,0.0,0.0,0.0,0.0,0.0,0.0,0.0,0.0,0.0,0.0,0.0,0.0,0.0,0.0,0.0,0.0,0.0,0.0,0.0,0.0,0.0,0.0,0.0,0.0,0.0,0.0,0.0,0.0,0.0,0.0,0.0,0.0,0.0,0.0,0.0,0.0,0.0,0.0,0.0,0.0,0.0,0.0,0.0,0.0,0.0,0.0,0.0,0.0,0.0,0.0,0.0,0.0,0.0,0.0,0.0,0.0,0.0,0.0,0.0,0.0,0.0,0.0,0.0,0.0,0.0,0.0,0.0,0.0,0.0,0.0,0.0,0.0,0.0,0.0,0.0,0.0,0.0,0.0,0.0,0.0,0.0,0.0,0.0,0.0,0.0,0.0,0.0,0.0,0.0,0.0,0.0,0.0,0.0,0.0,0.0,0.0,0.0,0.0,0.0,0.0,0.0,0.0,0.0,0.0,0.0,0.0,0.0,0.0,0.0,0.0,0.0,0.0,0.0,0.0,0.0,0.0,0.0,0.0,0.0,0.0,0.0,0.0,0.0,0.0,0.0,0.0,0.0,0.0,0.0,0.0,0.0,0.0,0.0,0.0,0.0,0.0,0.0,0.0,0.0,0.0,0.0,0.0,0.0,0.0,0.0,0.0,0.0,0.0,0.0,0.0,0.0,0.0,0.0,0.0,0.0,0.0,0.0,0.0,0.0,0.0,0.0,0.0,0.0,0.0,0.0,0.0,0.0,0.0,0.0,0.0,0.0,0.0,0.0,0.0,0.0,0.0,0.0,0.0,0.0,0.0,0.0,0.0,0.0,0.0,0.0,0.0,0.0,0.0,0.0,0.0,0.0,0.0,0.0,0.0,0.0,0.0,0.0,0.0,0.0,0.0,0.0,0.0,0.0,0.0,0.0,0.0,0.0,0.0,0.0,0.0,0.0,0.0,0.0,0.0,0.0,0.0,0.0,0.0,0.0,0.0,0.0,0.0,0.0,0.0,0.0,0.0,0.0,0.0,0.0,0.0,0.0,0.0,0.0,0.0,0.0,0.0,0.0,0.0,0.0,0.0,0.0,0.0,0.0,0.0,0.0,0.0,0.0,0.0,0.0,0.0,0.0,0.0,0.0,0.0,0.0,0.0,0.0,0.0,0.0,0.0,0.0,0.0,0.0,0.0,0.0,0.0,0.0,0.0,0.0,0.0,0.0,0.0,0.0,0.0,0.0,0.0,0.0,0.0,0.0,0.0,0.0,0.0,0.0,0.0,0.0,0.0,0.0,0.0,0.0,0.0,0.0,0.0,0.0,0.0,0.0,0.0,0.0,0.0,0.0,0.0,0.0,0.0,0.0,0.0,0.0,0.0,0.0,0.0,0.0,0.0,0.0,0.0,0.0,0.0,0.0,0.0,0.0,0.0,0.0,0.0,0.0,0.0,0.0,0.0,0.0,0.0,0.0,0.0,0.0,0.0,0.0,0.0,0.0,0.0,0.0,0.0,0.0,0.0,0.0,0.0,0.0,0.0,0.0,0.0,0.0,0.0,0.0,0.0,0.0,0.0,0.0,0.0,0.0,0.0,0.0,0.0,0.0,0.0,0.0,0.0,0.0,0.0,0.0,0.0,0.0,0.0,0.0,0.0,0.0,0.0,0.0,0.0,0.0,0.0,0.0,0.0,0.0,0.0,0.0,0.0,0.0,0.0,0.0,0.0,0.0,0.0,0.0,0.0,0.0,0.0,0.0,0.0,0.0,0.0,0.0,0.0,0.0,0.0,0.0,0.0,0.0,0.0,0.0,0.0,0.0,0.0,0.0,0.0,0.0,0.0,0.0,0.0,0.0,0.0,0.0,0.0,0.0,0.0,0.0,0.0,0.0,0.0,0.0,0.0,0.0,0.0,0.0,0.0,0.0,0.0,0.0,0.0,0.0,0.0,0.0,0.0,0.0,0.0,0.0,0.0,0.0,0.0,0.0,0.0,0.0,0.0,0.0,0.0,0.0,0.0,0.0,0.0,0.0,0.0,0.0,0.0,0.0,0.0,0.0,0.0,0.0,0.0,0.0,0.0,0.0,0.0,0.0,0.0,0.0,0.0,0.0,0.0,0.0,0.0,0.0,0.0,0.0,0.0,0.0,0.0,0.0,0.0,0.0,0.0,0.0,0.0,0.0,0.0,0.0,0.0,0.0,0.0,0.0,0.0,0.0,0.0,0.0,0.0,0.0,0.0,0.0,0.0,0.0,0.0,0.0,0.0,0.0,0.0,0.0,0.0,0.0,0.0,0.0,0.0,0.0,0.0,0.0,0.0,0.0,0.0,0.0,0.0,0.0,0.0,0.0,0.0,0.0,0.0,0.0,0.0,0.0,0.0,0.0,0.0,0.0,0.0,0.0,0.0,0.0,0.0,0.0,0.0,0.0,0.0,0.0,0.0,0.0,0.0,0.0,0.0,0.0,0.0,0.0,0.0,0.0,0.0,0.0,0.0,0.0,0.0,0.0,0.0,0.0,0.0,0.0,0.0,0.0,0.0,0.0,0.0,0.0,0.0,0.0,0.0,0.0,0.0,0.0,0.0,0.0,0.0,0.0,0.0,0.0,0.0,0.0,0.0,0.0,0.0,0.0,0.0,0.0,0.0,0.0,0.0,0.0,0.0,0.0,0.0,0.0,0.0,0.0,0.0,0.0,0.0,0.0,0.0,0.0,0.0,0.0,0.0,0.0,0.0,0.0,0.0,0.0,0.0,0.0,0.0,0.0,0.0,0.0,0.0,0.0,0.0,0.0,0.0,0.0,0.0,0.0,0.0,0.0,0.0,0.0,0.0,0.0,0.0,0.0,0.0,0.0,0.0,0.0,0.0,0.0,0.0,0.0,0.0,0.0,0.0,0.0,0.0,0.0,0.0,0.0,0.0,0.0,0.0,0.0,0.0,0.0,0.0,0.0,0.0,0.0,0.0,0.0,0.0,0.0,0.0,0.0,0.0,0.0,0.0,0.0,0.0,0.0,0.0,0.0,0.0,0.0,0.0,0.0,0.0,0.0,0.0,0.0,0.0,0.0,0.0,0.0,0.0,0.0,0.0,0.0,0.0,0.0,0.0,0.0,0.0,0.0,0.0,0.0,0.0,0.0,0.0,0.0,0.0,0.0,0.0,0.0,0.0,0.0,0.0,0.0,0.0,0.0,0.0,0.0,0.0,0.0,0.0,0.0,0.0,0.0,0.0,0.0,0.0,0.0,0.0,0.0,0.0,0.0,0.0,0.0,0.0,0.0,0.0,0.0,0.0,0.0,0.0,0.0,0.0,0.0,0.0,0.0,0.0,0.0,0.0,0.0,0.0,0.0,0.0,0.0,0.0,0.0,0.0,0.0,0.0,0.0,0.0,0.0,0.0,0.0,0.0,0.0,0.0,0.0,0.0,0.0,0.0,0.0,0.0,0.0,0.0,0.0,0.0,0.0,0.0,0.0,0.0,0.0,0.0,0.0,0.0,0.0,0.0,0.0,0.0,0.0,0.0,0.0,0.0,0.0,0.0,0.0,0.0,0.0,0.0,0.0,0.0,0.0,0.0,0.0,0.0,0.0,0.0,0.0,0.0,0.0,0.0,0.0,0.0,0.0,0.0,0.0,0.0,0.0,0.0,0.0,0.0,0.0,0.0,0.0,0.0,0.0,0.0,0.0,0.0,0.0,0.0,0.0,0.0,0.0,0.0,0.0,0.0,0.0,0.0,0.0,0.0,0.0,0.0,0.0,0.0,0.0,0.0,0.0,0.0,0.0,0.0,0.0,0.0,0.0,0.0,0.0,0.0,0.0,0.0,0.0,0.0,0.0,0.0,0.0,0.0,0.0,0.0,0.0,0.0,0.0,0.0,0.0,0.0,0.0,0.0,0.0,0.0,0.0,0.0,0.0,0.0,0.0,0.0,0.0,0.0,0.0,0.0,0.0,0.0,0.0,0.0,0.0,0.0,0.0,0.0,0.0,0.0,0.0,0.0,0.0,0.0,0.0,0.0,0.0,0.0,0.0,0.0,0.0,0.0,0.0,0.0,0.0,0.0,0.0,0.0,0.0,0.0,0.0,0.0,0.0,0.0,0.0,0.0,0.0,0.0,0.0,0.0,0.0,0.0,0.0,0.0,0.0,0.0,0.0,0.0,0.0,0.0,0.0,0.0,0.0,0.0,0.0,0.0,0.0,0.0,0.0,0.0,0.0,0.0,0.0,0.0,0.0,0.0,0.0,0.0,0.0,0.0,0.0,0.0,0.0,0.0,0.0,0.0,0.0,0.0,0.0,0.0,0.0,0.0,0.0,0.0,0.0,0.0,0.0,0.0,0.0,0.0,0.0,0.0,0.0,0.0,0.0,0.0,0.0,0.0,0.0,0.0,0.0,0.0,0.0,0.0,0.0,0.0,0.0,0.0,0.0,0.0,0.0,0.0,0.0,0.0,0.0,0.0,0.0,0.0,0.0,0.0,0.0,0.0,0.0,0.0,0.0,0.0,0.0,0.0,0.0,0.0,0.0,0.0,0.0,0.0,0.0,0.0,0.0,0.0,0.0,0.0,0.0,0.0,0.0,0.0,0.0,0.0,0.0,0.0,0.0,0.0,0.0,0.0,0.0,0.0,0.0,0.0,0.0,0.0,0.0,0.0,0.0,0.0,0.0,0.0,0.0,0.0,0.0,0.0,0.0,0.0,0.0,0.0,0.0,0.0,0.0,0.0,0.0,0.0,0.0,0.0,0.0,0.0,0.0,0.0,0.0,0.0,0.0,0.0,0.0,0.0,0.0,0.0,0.0,0.0,0.0,0.0,0.0,0.0,0.0,0.0,0.0,0.0,0.0,0.0,0.0,0.0,0.0,0.0,0.0,0.0,0.0,0.0,0.0,0.0,0.0,0.0,0.0,0.0,0.0,0.0,0.0,0.0,0.0,0.0,0.0,0.0,0.0,0.0,0.0,0.0,0.0,0.0,0.0,0.0,0.0,0.0,0.0,0.0,0.0,0.0,0.0,0.0,0.0,0.0,0.0,0.0,0.0,0.0,0.0,0.0,0.0,0.0,0.0,0.0,0.0,0.0,0.0,0.0,0.0,0.0,0.0,0.0,0.0,0.0,0.0,0.0,0.0,0.0,0.0,0.0,0.0,0.0,0.0,-0.7312,0.0,0.0,0.0,0.0,0.0,0.0,0.0,0.0,0.0,0.0,0.0,0.0,0.0,0.0,0.0,0.0,0.0,0.0,0.0,0.0,0.0,0.0,0.0,0.0,0.0,0.0,0.0,0.0,0.0,0.0,0.0,0.0,0.0,0.0,0.0,0.0,0.0,0.0,0.0,-0.8364,-0.8789,-0.8966,-0.8851,-0.8595,-0.8173,0.0,0.0,0.0,0.0,0.0,0.0,0.0,0.0,0.0,0.0,0.0,0.0,0.0,0.0,0.0,0.0,0.0,0.0,0.0,0.0,0.0,0.0,0.0,0.0,0.0,0.0,0.0,0.0,0.0,0.0,0.0,0.0,0.0,0.0,0.0,0.0,0.0,0.0,0.0,0.0,0.0,0.0,0.0,0.0,0.0,0.0,0.0,0.0,0.0,0.0,0.0,0.0,0.0,0.0,0.0,0.0,0.0,0.0,0.0,0.0,0.0,0.0,0.0,0.0,0.0,0.0,0.0,0.0,0.0,0.0,0.0,-0.7768,0.0,0.0,0.0,0.0,0.0,0.0,0.0,0.0,0.0,0.0,0.0,0.0,0.0,0.0,0.0,0.0,0.0,0.0,0.0,0.0,0.0,0.0,0.0,0.0,0.0,0.0,0.0,0.0,0.0,0.0,0.0,0.0,0.0,0.0,0.0,0.0,0.0,0.0,-0.9213,-0.9829,-1.0294,-1.0616,-1.0227,-0.92,-0.9082,0.0,0.0,0.0,0.0,0.0,0.0,0.0,0.0,0.0,0.0,0.0,0.0,0.0,0.0,0.0,0.0,0.0,0.0,0.0,0.0,0.0,0.0,0.0,0.0,0.0,0.0,0.0,0.0,0.0,0.0,0.0,0.0,0.0,0.0,0.0,0.0,0.0,0.0,0.0,0.0,0.0,0.0,0.0,0.0,0.0,0.0,0.0,0.0,0.0,0.0,0.0,0.0,0.0,0.0,0.0,0.0,0.0,0.0,0.0,0.0,0.0,0.0,0.0,0.0,-0.9942,-1.0169,-1.0169,-1.0169,-1.0126,-0.9346,-0.8915,-0.8743,0.0,0.0,0.0,0.0,0.0,0.0,0.0,0.0,0.0,0.0,0.0,0.0,0.0,0.0,0.0,0.0,0.0,0.0,0.0,0.0,0.0,0.0,0.0,0.0,0.0,0.0,0.0,0.0,0.0,0.0,0.0,0.0,0.0,0.0,-0.9052,-0.9522,-0.9676,-1.0285,-1.0771,-1.1145,-1.1372,-1.1348,-1.1203,-1.0499,-1.0074,-0.9877,0.0,0.0,0.0,0.0,0.0,0.0,0.0,0.0,0.0,0.0,0.0,0.0,0.0,0.0,0.0,0.0,0.0,0.0,0.0,0.0,0.0,0.0,0.0,0.0,0.0,0.0,0.0,0.0,0.0,0.0,0.0,0.0,0.0,0.0,0.0,0.0,0.0,0.0,0.0,0.0,0.0,-0.7296,-0.7659,0.0,0.0,0.0,0.0,0.0,0.0,0.0,0.0,0.0,0.0,0.0,0.0,0.0,0.0,-0.9237,-0.9441,-0.9819,-1.0459,-1.0735,-1.091,-1.116,-1.116,-1.116,-1.107,-1.0947,0.0,-0.9717,-0.9486,0.0,0.0,0.0,0.0,0.0,0.0,0.0,0.0,0.0,0.0,0.0,0.0,0.0,0.0,0.0,0.0,0.0,0.0,0.0,0.0,0.0,0.0,0.0,0.0,0.0,0.0,0.0,0.0,0.0,0.0,0.0,0.0,0.0,-0.9927,-1.062,-1.1269,-1.1622,-1.2,-1.234,-1.2617,-1.2656,-1.2592,-1.2228,-1.1653,-1.0902,-1.0436,0.0,0.0,0.0,0.0,0.0,0.0,0.0,0.0,0.0,0.0,0.0,0.0,0.0,0.0,0.0,0.0,0.0,0.0,0.0,0.0,0.0,0.0,0.0,0.0,0.0,0.0,0.0,0.0,0.0,0.0,0.0,0.0,0.0,0.0,0.0,0.0,0.0,0.0,0.0,-0.74,-0.7876,-0.8161,-0.8409,-0.8723,0.0,0.0,0.0,0.0,0.0,0.0,0.0,0.0,0.0,-0.9562,-0.949,-0.9601,-1.0022,-1.0294,-1.0686,-1.1389,-1.1677,-1.1868,-1.2145,-1.2145,-1.2145,-1.2145,-1.2145,-1.1828,-1.1262,-1.0492,-1.0105,-0.997,0.0,0.0,0.0,0.0,0.0,-0.9095,0.0,0.0,0.0,0.0,0.0,0.0,0.0,0.0,0.0,0.0,0.0,0.0,0.0,0.0,0.0,-0.9935,0.0,0.0,0.0,0.0,0.0,0.0,0.0,0.0,0.0,-1.1013,-1.1828,-1.2527,-1.2862,-1.314,-1.3427,-1.3771,-1.3918,-1.3884,-1.3884,-1.317,-1.1982,-1.1636,-1.1299,-1.0954,0.0,0.0,0.0,0.0,0.0,0.0,0.0,0.0,0.0,0.0,0.0,0.0,0.0,0.0,0.0,0.0,0.0,0.0,0.0,0.0,0.0,0.0,0.0,0.0,0.0,0.0,0.0,0.0,0.0,0.0,0.0,0.0,0.0,0.0,0.0,0.0,0.0,-0.7908,-0.8377,-0.8743,-0.899,-0.9297,0.0,0.0,0.0,0.0,0.0,0.0,-0.9726,-0.9798,-0.999,-1.0182,-1.0244,-1.0538,-1.0905,-1.1099,-1.1576,-1.2251,-1.2449,-1.2745,-1.2947,-1.2947,-1.2947,-1.2947,-1.2947,-1.285,-1.2597,-1.1462,-1.0961,-1.0864,-1.0449,-1.0288,-1.0288,-1.0288,-1.0089,-0.9886,0.0,0.0,0.0,0.0,0.0,0.0,0.0,0.0,0.0,0.0,0.0,0.0,0.0,0.0,-1.0677,-1.0985,-1.0829,-1.0678,0.0,0.0,0.0,0.0,0.0,0.0,0.0,0.0,-1.3036,-1.3033,-1.3743,-1.4205,-1.436,-1.4646,-1.4929,-1.511,-1.511,-1.4308,-1.2981,-1.2638,-1.2357,-1.202,-1.1675,0.0,0.0,0.0,0.0,0.0,0.0,0.0,0.0,0.0,0.0,0.0,0.0,0.0,0.0,0.0,0.0,0.0,0.0,0.0,0.0,0.0,0.0,0.0,0.0,0.0,0.0,0.0,0.0,0.0,0.0,0.0,0.0,0.0,0.0,0.0,0.0,0.0,0.0,-0.9443,-0.9728,0.0,0.0,0.0,0.0,-0.9927,-1.0128,-1.026,-1.0305,-1.0409,-1.0617,-1.0839,-1.1033,-1.1339,-1.1869,-1.1873,-1.2289,-1.3028,-1.3033,-1.3238,-1.3443,-1.3443,-1.3443,-1.3443,-1.3443,-1.3437,-1.3351,-1.2377,-1.1844,-1.1623,-1.1375,-1.1193,-1.1193,-1.1193,-1.1133,-1.0845,0.0,0.0,0.0,0.0,0.0,0.0,0.0,0.0,0.0,0.0,0.0,0.0,0.0,-1.0762,-1.1331,-1.1827,-1.202,-1.214,-1.2253,0.0,0.0,0.0,0.0,0.0,0.0,0.0,-1.3936,-1.4656,-1.4847,-1.5138,-1.5634,-1.5766,-1.5822,-1.5945,-1.5945,-1.5591,-1.4895,-1.3947,-1.3345,-1.3058,-1.2601,-1.2119,0.0,0.0,0.0,0.0,0.0,0.0,0.0,0.0,0.0,0.0,0.0,0.0,0.0,0.0,0.0,0.0,0.0,0.0,0.0,0.0,0.0,0.0,0.0,0.0,0.0,0.0,0.0,0.0,0.0,0.0,0.0,0.0,0.0,0.0,0.0,0.0,0.0,-0.9548,-1.0042,0.0,0.0,-1.0484,-1.0598,-1.0697,-1.0707,-1.0805,-1.1057,-1.1142,-1.1279,-1.1482,-1.1694,-1.2006,-1.2534,-1.2889,-1.3393,-1.4051,-1.416,-1.4275,-1.4379,-1.4379,-1.4379,-1.4379,-1.4379,-1.4299,-1.4121,-1.3631,-1.3104,-1.2581,-1.235,-1.2167,-1.2038,-1.2038,-1.1791,-1.14,0.0,0.0,0.0,0.0,0.0,0.0,0.0,0.0,0.0,0.0,0.0,-0.9986,-1.0705,-1.1291,-1.1928,-1.2563,-1.2823,-1.3057,-1.3214,0.0,0.0,0.0,-1.3161,0.0,0.0,-1.4603,-1.5035,-1.5709,-1.5893,-1.6186,-1.6629,-1.6629,-1.6619,-1.6657,-1.6657,-1.6513,-1.6288,-1.5413,-1.4696,-1.4093,-1.3616,-1.327,-1.2836,0.0,0.0,0.0,0.0,0.0,0.0,0.0,0.0,0.0,0.0,0.0,0.0,0.0,0.0,0.0,0.0,0.0,0.0,0.0,0.0,0.0,0.0,0.0,0.0,0.0,0.0,0.0,0.0,0.0,0.0,0.0,0.0,0.0,0.0,0.0,-0.9983,-1.0063,-1.0476,-1.0743,-1.0786,-1.0827,-1.1007,-1.1269,-1.1263,-1.1359,-1.1709,-1.1794,-1.1926,-1.2134,-1.245,-1.2845,-1.3322,-1.3795,-1.4168,-1.4654,-1.4767,-1.4885,-1.4885,-1.4885,-1.4885,-1.4885,-1.4885,-1.4794,-1.4638,-1.4487,-1.4143,-1.3658,-1.3184,-1.291,-1.2775,-1.2775,-1.2518,-1.2094,0.0,0.0,0.0,0.0,0.0,0.0,0.0,0.0,0.0,0.0,-1.0257,-1.1053,-1.1667,-1.2018,-1.2531,-1.3243,-1.3208,-1.3242,-1.3523,-1.3442,0.0,0.0,0.0,0.0,-1.5207,-1.5987,-1.6316,-1.6184,-1.6872,-1.7218,-1.7291,-1.7299,-1.7334,-1.7433,-1.7425,-1.7307,-1.6975,-1.6967,-1.6321,-1.5213,-1.4832,-1.4458,-1.4069,0.0,0.0,0.0,0.0,0.0,0.0,0.0,0.0,0.0,0.0,0.0,0.0,0.0,0.0,0.0,0.0,0.0,0.0,0.0,0.0,0.0,0.0,0.0,0.0,0.0,0.0,0.0,0.0,0.0,0.0,0.0,0.0,0.0,-0.9943,-0.9932,-1.0181,-1.094,-1.0962,-1.1,-1.1148,-1.1376,-1.15,-1.1529,-1.1728,-1.1935,-1.2157,-1.2351,-1.2554,-1.2772,-1.331,-1.365,-1.3997,-1.4334,-1.4675,-1.4907,-1.4907,-1.4907,-1.4907,-1.4907,-1.4907,-1.4907,-1.4907,-1.4907,-1.4907,-1.4896,-1.4896,-1.4805,-1.3873,-1.3507,-1.3497,-1.3491,-1.333,-1.295,0.0,0.0,0.0,0.0,0.0,0.0,0.0,0.0,0.0,0.0,-1.0365,-1.1161,-1.1905,-1.2313,-1.2877,-1.3805,-1.3849,-1.4061,-1.4525,0.0,0.0,0.0,0.0,0.0,-1.621,-1.659,-1.7051,-1.7534,-1.802,-1.847,-1.8714,-1.882,-1.8918,-1.8929,-1.8777,-1.8549,-1.8272,-1.8004,-1.7679,-1.7179,-1.6053,-1.5412,-1.5041,0.0,0.0,0.0,0.0,0.0,0.0,0.0,0.0,0.0,0.0,0.0,0.0,0.0,0.0,0.0,0.0,0.0,0.0,0.0,0.0,0.0,0.0,0.0,0.0,0.0,0.0,0.0,0.0,0.0,0.0,0.0,0.0,-1.0359,-1.0121,-1.0465,-1.0686,-1.0676,-1.1091,-1.1269,-1.1196,-1.1535,-1.1794,-1.2157,-1.2238,-1.2427,-1.2795,-1.2862,-1.3036,-1.3325,-1.3644,-1.3988,-1.4572,-1.4844,-1.5045,-1.5402,-1.5402,-1.5402,-1.5402,-1.5402,-1.5402,-1.5402,-1.5402,-1.5402,-1.5392,-1.5219,-1.5149,-1.509,-1.4482,-1.4143,-1.3976,-1.3793,-1.3474,-1.3046,0.0,0.0,0.0,0.0,0.0,0.0,0.0,0.0,0.0,0.0,-1.0509,-1.1318,-1.2056,-1.2481,-1.3155,-1.4235,-1.4291,-1.4557,-1.5138,0.0,0.0,0.0,0.0,-1.689,-1.7067,-1.757,-1.8019,-1.8494,-1.8878,-1.9281,-1.9507,-1.9645,-1.9665,-1.9665,-1.9589,-1.9427,-1.9239,-1.893,-1.8752,-1.8499,-1.7382,-1.6596,-1.6019,-1.5436,-1.5001,-1.4624,-1.3934,-1.3581,-1.3309,-1.2688,0.0,0.0,0.0,0.0,0.0,0.0,0.0,0.0,0.0,0.0,0.0,0.0,0.0,0.0,0.0,0.0,0.0,0.0,0.0,0.0,0.0,0.0,0.0,0.0,-1.0686,-1.0868,-1.0992,-1.1092,-1.105,-1.0993,-1.1245,-1.1496,-1.1572,-1.1888,-1.2214,-1.255,-1.2654,-1.2847,-1.3183,-1.3312,-1.3582,-1.3795,-1.436,-1.4713,-1.5074,-1.5419,-1.5656,-1.5898,-1.5898,-1.5898,-1.5898,-1.5898,-1.5898,0.0,-1.579,-1.5747,-1.5725,-1.5494,-1.5397,0.0,0.0,0.0,0.0,0.0,-1.3694,-1.32,0.0,0.0,0.0,0.0,0.0,0.0,0.0,0.0,0.0,0.0,0.0,-1.1475,-1.211,-1.2617,-1.3351,-1.4408,-1.4548,-1.4894,0.0,0.0,0.0,-1.6892,-1.7368,-1.7665,-1.7937,-1.862,-1.9081,-1.9145,-1.9616,-1.985,-2.0077,-2.0121,-2.0054,-2.0063,-2.0054,-2.0054,-2.0054,-1.9753,-1.965,-1.953,-1.8692,-1.7876,-1.7,-1.6362,-1.5935,-1.5609,-1.496,-1.4554,-1.4236,-1.3726,0.0,0.0,0.0,0.0,0.0,0.0,0.0,0.0,0.0,0.0,0.0,0.0,0.0,0.0,0.0,0.0,0.0,0.0,0.0,0.0,0.0,0.0,0.0,0.0,-1.1316,-1.1641,-1.1984,-1.1744,-1.1502,-1.1575,-1.1539,-1.1742,-1.2134,-1.2356,-1.2578,-1.2819,-1.3117,-1.3312,-1.3532,0.0,0.0,0.0,0.0,-1.5512,-1.5634,-1.6086,-1.6312,-1.6312,-1.6312,-1.6312,-1.6312,-1.6312,-1.6312,-1.6301,-1.6081,-1.5973,-1.593,-1.5725,-1.5623,-1.5553,-1.5101,-1.4907,-1.4853,-1.4622,-1.4049,0.0,0.0,0.0,0.0,0.0,0.0,0.0,0.0,0.0,0.0,-0.995,-1.0758,-1.1452,-1.1916,-1.2614,-1.3253,-1.3762,-1.4369,-1.5198,0.0,0.0,-1.6816,-1.7288,-1.7929,-1.8314,-1.8486,-1.8995,-1.9618,-2.0292,-2.0696,-2.1016,-2.1179,-2.1337,-2.1237,-2.1069,-2.0864,-2.0775,-2.0749,-2.0456,-2.0332,-2.0183,-1.9234,-1.8528,-1.7903,-1.7075,-1.6698,-1.6591,-1.5924,-1.567,-1.5509,-1.4657,-1.4261,-1.3956,-1.314,-1.2515,0.0,0.0,0.0,0.0,0.0,0.0,0.0,0.0,0.0,0.0,0.0,0.0,0.0,0.0,0.0,0.0,0.0,0.0,0.0,-1.1505,-1.2086,-1.2443,-1.2383,-1.2589,-1.2561,-1.1864,-1.1892,-1.2115,-1.2356,-1.2578,-1.2862,-1.324,-1.3529,-1.3878,-1.398,-1.4515,0.0,-1.5287,-1.5627,-1.5871,-1.6124,-1.6291,-1.6312,-1.6312,0.0,0.0,-1.6312,-1.6312,-1.6312,-1.6312,-1.6264,-1.6129,-1.5946,-1.5898,-1.5768,-1.5569,-1.5289,-1.5058,-1.4853,-1.4622,-1.4366,-1.415,0.0,0.0,0.0,0.0,0.0,0.0,0.0,0.0,0.0,0.0,-1.0343,-1.0992,-1.1583,-1.221,-1.289,-1.3711,-1.4676,0.0,0.0,-1.6778,-1.7233,-1.7625,-1.8626,-1.9082,-1.8966,-1.961,-2.0282,-2.0879,-2.1078,-2.1419,-2.1954,-2.1985,-2.2008,-2.1919,-2.1642,-2.1544,-2.1535,-2.1087,-2.0801,-2.056,-1.9724,-1.9112,-1.8611,-1.7641,-1.7271,-1.7221,-1.662,-1.6342,-1.6183,-1.5498,-1.5054,-1.4678,-1.394,-1.3408,-1.287,0.0,0.0,0.0,0.0,0.0,0.0,0.0,0.0,0.0,0.0,0.0,0.0,0.0,0.0,-1.1311,0.0,0.0,-1.1817,-1.2172,-1.2624,-1.2974,-1.2899,-1.3115,-1.2982,-1.2363,-1.2331,-1.2373,-1.2573,-1.2907,-1.3274,-1.3591,-1.4065,-1.4341,-1.4565,-1.5044,-1.5401,-1.5638,-1.5987,-1.6359,-1.649,-1.6603,-1.6657,-1.6657,-1.6657,-1.6657,-1.6657,-1.6657,-1.6657,-1.6651,-1.6538,-1.642,-1.6285,-1.6048,-1.5876,-1.5752,-1.5515,-1.5278,-1.5052,-1.4934,-1.474,-1.4409,0.0,0.0,0.0,0.0,0.0,0.0,0.0,0.0,0.0,0.0,-0.9886,-1.041,-1.1213,-1.1659,-1.2433,0.0,0.0,0.0,0.0,-1.691,-1.7496,-1.795,-1.9253,-1.9733,-1.934,-2.0279,-2.0868,-2.1224,-2.131,-2.1749,-2.2318,-2.2403,-2.2441,-2.2344,-2.2189,-2.2073,-2.1975,-2.1539,-2.1144,-2.0712,-2.0068,-1.9543,-1.9206,-1.825,-1.7861,-1.7747,-1.7204,-1.6875,-1.6571,-1.6142,-1.5659,-1.5205,-1.4558,-1.4103,-1.3607,-1.3066,-1.2757,0.0,0.0,0.0,0.0,0.0,0.0,0.0,0.0,0.0,-1.1822,-1.1869,-1.1902,-1.1991,-1.2277,-1.2281,-1.2398,-1.2834,-1.3093,-1.3313,-1.3518,-1.3535,-1.3365,-1.2844,-1.2772,-1.2847,-1.3014,-1.3463,-1.3788,-1.4005,-1.447,-1.4917,-1.5095,-1.5554,-1.5813,-1.5992,-1.6476,-1.6727,-1.6727,-1.6915,-1.7001,-1.7001,-1.7001,-1.7001,-1.7001,-1.7001,-1.7001,-1.699,-1.6764,-1.6662,-1.663,-1.6194,-1.5989,-1.593,-1.5741,-1.5521,-1.5311,-1.5268,-1.4977,-1.4484,0.0,0.0,0.0,0.0,0.0,0.0,0.0,0.0,0.0,0.0,0.0,0.0,0.0,0.0,0.0,0.0,0.0,0.0,-1.6641,-1.7282,-1.7874,-1.8338,-1.9322,-1.9887,-1.9815,-2.0677,-2.1212,-2.146,-2.1843,-2.2119,-2.2255,-2.263,-2.2618,-2.2422,-2.1976,-2.1815,-2.1787,-2.1146,-2.0866,-2.0708,-1.997,-1.9624,-1.9452,-1.8833,-1.8442,-1.8273,-1.7811,-1.7479,-1.7146,-1.6301,-1.5811,-1.5507,-1.4629,-1.4258,-1.3943,-1.3404,0.0,-1.2873,-1.241,-1.2244,-1.2225,-1.228,-1.2325,-1.2365,0.0,0.0,-1.2871,-1.2721,-1.2835,-1.2972,-1.2975,-1.3024,-1.3077,-1.3351,-1.3593,-1.375,-1.3776,-1.3997,-1.3938,-1.3609,-1.3561,-1.3669,-1.3813,-1.4029,-1.4249,-1.448,-1.5068,-1.545,-1.5476,-1.6106,-1.6597,-1.6619,-1.6845,-1.6969,-1.6969,-1.699,-1.7001,-1.7001,-1.7001,-1.7001,-1.7001,-1.7001,-1.7001,-1.699,-1.6764,-1.6662,-1.664,-1.6382,-1.6145,-1.5946,-1.5919,-1.5763,-1.5537,-1.5327,-1.5079,-1.4703,0.0,0.0,0.0,0.0,0.0,0.0,0.0,0.0,0.0,0.0,0.0,0.0,0.0,0.0,0.0,0.0,0.0,0.0,-1.5924,-1.6701,-1.7494,-1.8218,-1.9131,-1.9764,-2.0216,-2.0714,-2.1231,-2.169,-2.188,-2.2128,-2.2399,-2.2408,-2.2402,-2.2223,-2.1796,-2.1635,-2.1625,-2.1193,-2.0893,-2.0639,-2.0144,-1.9778,-1.9522,-1.8822,-1.8433,-1.818,-1.7864,-1.7556,0.0,-1.6407,-1.5935,-1.5474,-1.5046,-1.4657,-1.4324,-1.4114,-1.3999,0.0,-1.3318,-1.323,-1.3263,0.0,-1.3212,-1.3231,-1.3351,-1.3459,-1.3622,-1.368,-1.3726,-1.3768,-1.3823,-1.3768,-1.3767,0.0,-1.3879,-1.404,-1.404,-1.4126,-1.4239,-1.4155,-1.4261,-1.4327,-1.3977,-1.4415,-1.4641,-1.4867,-1.5455,-1.5894,-1.5915,-1.6484,-1.6721,-1.6856,-1.6953,-1.7001,-1.7001,-1.7001,-1.7001,-1.7001,-1.7001,-1.7001,-1.7001,-1.7001,-1.7001,-1.6996,-1.6899,-1.6861,-1.6845,-1.6614,-1.6457,-1.6339,-1.6059,-1.5887,-1.5774,-1.5542,-1.53,-1.4948,0.0,0.0,0.0,0.0,0.0,0.0,0.0,0.0,0.0,0.0,0.0,0.0,0.0,0.0,0.0,0.0,0.0,0.0,0.0,-1.6245,-1.7231,-1.7846,-1.8839,-1.9655,-2.0177,-2.0555,-2.0951,-2.1373,-2.1625,-2.1839,-2.2161,-2.2249,-2.2277,-2.2277,-2.183,-2.1525,-2.1433,-2.1039,-2.068,-2.0296,-1.9944,-1.9571,-1.9195,-1.8592,-1.8244,-1.8006,-1.7707,-1.7407,-1.696,-1.6362,-1.5831,-1.5446,-1.5136,-1.4872,-1.4643,-1.4643,-1.4635,-1.4569,-1.4156,-1.4192,0.0,-1.4085,-1.4095,-1.4155,-1.4155,-1.4223,-1.4292,-1.4479,-1.4535,-1.4476,-1.4555,-1.4492,-1.4345,-1.4022,-1.4073,-1.4196,-1.4196,-1.4196,-1.4277,-1.4509,-1.474,-1.4799,-1.4417,-1.4745,-1.5087,-1.5313,-1.5787,-1.6156,-1.6398,-1.663,-1.6834,-1.6996,-1.7001,-1.7001,-1.7001,-1.7001,-1.7001,-1.7001,-1.7001,-1.7001,-1.7001,-1.7001,-1.7001,-1.7001,-1.7001,-1.7001,-1.699,-1.6824,-1.6721,-1.6624,-1.621,-1.6005,-1.5919,-1.5688,-1.5451,-1.5098,0.0,0.0,0.0,0.0,0.0,0.0,0.0,0.0,0.0,0.0,0.0,0.0,0.0,0.0,0.0,0.0,0.0,0.0,0.0,-1.6197,-1.7155,-1.7041,-1.8689,-1.9626,-1.9647,-2.0333,-2.0594,-2.0411,-2.1169,-2.1389,-2.1265,-2.212,-2.2523,-2.2503,-2.199,-2.171,-2.1431,-2.0409,-1.982,-1.9554,-1.9012,-1.8619,-1.8443,-1.8425,-1.8119,-1.7746,-1.7371,-1.6994,-1.6565,-1.598,-1.5692,-1.5397,-1.4832,-1.4749,0.0,-1.4643,-1.4798,-1.5061,-1.4713,0.0,-1.5164,-1.5013,-1.4995,-1.4937,-1.4937,-1.498,-1.5071,-1.5083,-1.5082,-1.5053,-1.5059,-1.4853,-1.4589,-1.4595,-1.4396,-1.4196,-1.4196,-1.4196,-1.4277,-1.4509,-1.474,-1.4977,0.0,-1.5451,-1.5688,-1.5919,-1.6167,-1.6404,-1.664,-1.6872,-1.6996,-1.7001,-1.7001,-1.7001,-1.7001,-1.7001,-1.7001,-1.7001,-1.7001,-1.7001,-1.7001,-1.7001,-1.7001,-1.7001,-1.7001,-1.7001,-1.7001,-1.6996,-1.6861,-1.664,-1.6398,-1.6156,-1.5919,-1.5688,-1.5451,-1.5098,0.0,0.0,0.0,0.0,0.0,0.0,0.0,0.0,0.0,0.0,0.0,0.0,0.0,0.0,0.0,0.0,0.0,0.0,0.0,-1.5226,-1.6078,-1.7213,-1.7763,-1.8423,-1.9254,-1.9754,-2.0096,-2.0333,-2.074,-2.0959,-2.0897,-2.091,-2.0903,-2.0893,-2.0601,-2.0466,-2.0372,-1.9861,-1.9669,-1.9585,-1.9072,-1.8858,-1.8718,-1.7934,-1.7444,-1.7097,0.0,-1.6183,-1.6482,-1.5816,-1.5466,-1.5225,-1.4896,-1.498,-1.5273,-1.5544,-1.5649,-1.5626,-1.5388,0.0,-1.5989,-1.5631,-1.5698,-1.5834,-1.563,-1.5619,-1.5579,-1.5366,-1.5335,-1.5285,-1.5181,-1.5042,-1.4784,-1.4362,-1.4399,-1.4401,-1.4196,-1.4326,-1.4503,-1.474,-1.4982,0.0,0.0,0.0,0.0,-1.593,-1.6178,-1.6414,-1.6651,-1.6877,-1.7001,-1.7001,-1.7001,-1.7001,-1.7001,-1.7001,-1.7001,-1.7001,-1.7001,-1.7001,-1.7001,-1.7001,-1.7001,-1.7001,-1.7001,-1.7001,-1.7001,-1.7001,-1.6958,-1.6867,-1.6635,-1.6398,-1.6161,-1.5919,-1.5682,-1.5328,0.0,0.0,0.0,0.0,0.0,0.0,0.0,0.0,0.0,0.0,0.0,0.0,0.0,0.0,0.0,0.0,0.0,0.0,0.0,0.0,-1.5277,-1.6384,-1.6883,-1.7518,-1.844,-1.8803,-1.9212,-1.9628,-1.9885,-2.0049,-2.0049,-1.9872,-1.9805,-1.9805,-1.9595,-1.9535,-1.9455,-1.9164,-1.8964,-1.8884,-1.8447,-1.817,-1.7963,-1.7137,-1.6738,0.0,-1.5564,-1.5601,-1.6009,-1.5477,-1.5238,-1.5158,-1.5153,-1.5316,-1.5597,-1.6156,-1.6238,-1.6082,-1.5972,-1.6357,-1.658,-1.6209,-1.6315,-1.6367,-1.6056,-1.5997,-1.5817,-1.5603,-1.5421,-1.5251,-1.5148,-1.5045,-1.4867,-1.4543,-1.4584,-1.4506,-1.439,-1.45,-1.4733,-1.4853,-1.5101,0.0,0.0,0.0,0.0,-1.6059,-1.6301,-1.6538,-1.6775,-1.6926,-1.7001,-1.7001,-1.7001,-1.7001,-1.7001,-1.7001,-1.7001,-1.7001,-1.7001,-1.7001,-1.7001,-1.7001,-1.7001,-1.7001,-1.7001,-1.7001,-1.7001,-1.7001,-1.7001,-1.698,-1.6754,-1.6522,-1.6285,-1.6038,-1.5801,-1.5445,0.0,0.0,0.0,0.0,0.0,0.0,0.0,0.0,0.0,0.0,0.0,0.0,0.0,0.0,0.0,0.0,0.0,0.0,0.0,0.0,0.0,-1.4697,-1.6059,-1.6946,-1.7346,-1.766,-1.8002,-1.8337,-1.8678,-1.8871,-1.8807,-1.9133,-1.9212,-1.9212,-1.9069,-1.8936,-1.8716,-1.8277,-1.79,-1.7546,-1.7139,-1.6772,-1.6383,-1.6237,-1.6036,-1.5854,-1.545,-1.5274,-1.5151,-1.5002,-1.5047,-1.5295,-1.5446,-1.5597,-1.5744,-1.6423,-1.6503,-1.6446,-1.6521,-1.6826,-1.694,-1.6753,-1.6751,-1.6659,-1.6426,-1.6122,-1.5817,-1.5585,-1.527,-1.5089,0.0,0.0,-1.4753,-1.4994,-1.4856,-1.4645,-1.4556,-1.4828,-1.4977,0.0,0.0,0.0,0.0,0.0,0.0,-1.6317,0.0,-1.6764,-1.699,-1.7001,-1.7001,-1.7001,-1.7001,-1.7001,-1.7001,-1.7001,-1.7001,-1.7001,-1.7001,-1.7001,-1.7001,-1.7001,-1.7001,-1.7001,-1.7001,-1.7001,-1.7001,-1.7001,-1.7001,-1.698,-1.6764,-1.6538,-1.6301,-1.6059,-1.5817,-1.5467,0.0,0.0,0.0,0.0,0.0,0.0,0.0,0.0,0.0,0.0,0.0,0.0,0.0,0.0,0.0,0.0,0.0,0.0,0.0,0.0,0.0,0.0,0.0,0.0,0.0,0.0,0.0,-1.7137,-1.7701,-1.798,-1.7991,-1.836,-1.8385,-1.8239,-1.8239,-1.8124,-1.7945,-1.7758,-1.7582,-1.7498,-1.7146,-1.6971,-1.6743,-1.6047,-1.5737,-1.5576,-1.4857,-1.4639,0.0,0.0,0.0,0.0,0.0,-1.5795,-1.5997,-1.668,-1.684,-1.6872,-1.7144,-1.7253,-1.7364,-1.738,-1.7365,-1.7206,-1.6685,-1.6426,-1.6059,-1.5642,-1.5093,-1.4817,0.0,0.0,0.0,-1.4495,-1.4727,0.0,-1.465,-1.4976,0.0,-1.5219,0.0,-1.5601,-1.5838,-1.6081,0.0,0.0,-1.663,-1.6764,-1.699,-1.7001,-1.7001,-1.7001,-1.7001,-1.7001,-1.7001,-1.7001,-1.7001,-1.7001,-1.7001,-1.7001,-1.7001,-1.7001,-1.7001,-1.7001,-1.7001,-1.7001,-1.7001,-1.7001,-1.7001,-1.6996,-1.6937,-1.6775,-1.6544,-1.6307,-1.607,-1.5828,0.0,0.0,0.0,0.0,0.0,0.0,0.0,0.0,0.0,0.0,0.0,0.0,0.0,0.0,0.0,0.0,0.0,0.0,0.0,0.0,0.0,0.0,0.0,0.0,0.0,0.0,0.0,0.0,0.0,0.0,-1.6861,-1.6973,-1.6988,-1.692,-1.6749,-1.6691,-1.6597,-1.6471,-1.6355,0.0,0.0,-1.5879,-1.5742,-1.508,-1.4934,-1.4949,-1.4431,0.0,0.0,0.0,0.0,-1.5955,-1.5771,-1.6022,-1.6484,-1.6847,0.0,-1.7125,-1.7541,-1.7577,-1.751,-1.7764,-1.7583,-1.7348,-1.6782,-1.6438,-1.5972,-1.5295,-1.4838,0.0,0.0,0.0,0.0,0.0,0.0,0.0,-1.4821,-1.5218,-1.5552,0.0,-1.566,0.0,-1.6167,-1.6295,-1.6409,0.0,-1.6759,-1.6867,-1.6996,-1.7001,-1.7001,-1.7001,-1.7001,-1.7001,-1.7001,-1.7001,-1.7001,-1.7001,-1.7001,-1.7001,-1.7001,-1.7001,-1.7001,-1.7001,0.0,-1.7001,-1.7001,-1.7001,-1.7001,-1.7001,-1.7001,-1.6867,-1.6635,-1.6404,-1.6161,-1.5914,0.0,0.0,0.0,0.0,0.0,0.0,0.0,0.0,0.0,0.0,0.0,0.0,0.0,0.0,0.0,0.0,0.0,0.0,0.0,0.0,0.0,0.0,0.0,0.0,0.0,0.0,0.0,0.0,0.0,0.0,0.0,0.0,0.0,-1.5569,-1.5362,-1.5216,-1.5216,-1.5049,-1.4934,-1.4829,-1.4661,-1.4513,-1.4301,0.0,0.0,0.0,0.0,0.0,0.0,0.0,-1.5255,-1.6234,-1.5835,-1.6275,-1.6955,-1.7003,-1.7093,-1.7405,-1.7869,-1.7711,-1.7645,-1.7922,-1.7653,-1.7128,-1.6754,-1.6201,-1.5635,-1.4879,0.0,-1.4069,-1.3647,-1.3513,-1.3676,-1.4165,0.0,-1.4466,-1.5021,-1.5476,-1.58,-1.5856,-1.5975,-1.6153,-1.6458,-1.6434,-1.655,-1.6816,-1.7022,-1.7007,-1.7001,-1.7001,-1.7001,-1.7001,-1.7001,-1.7001,-1.7001,-1.7001,-1.7001,-1.7001,-1.7001,-1.7001,-1.7001,-1.7001,-1.7001,-1.7001,0.0,0.0,-1.7001,-1.7001,-1.7001,-1.7001,-1.7001,-1.6883,-1.6678,-1.6414,-1.6178,-1.5957,0.0,0.0,0.0,0.0,0.0,0.0,0.0,0.0,0.0,0.0,-1.0034,0.0,0.0,0.0,0.0,0.0,0.0,0.0,0.0,0.0,0.0,0.0,0.0,0.0,0.0,0.0,0.0,0.0,0.0,0.0,0.0,0.0,0.0,-1.5609,-1.5455,-1.531,-1.5216,-1.5049,-1.4997,-1.4945,-1.4724,-1.4556,-1.4503,-1.4077,0.0,0.0,0.0,0.0,0.0,0.0,-1.5255,-1.6234,-1.5996,-1.6603,-1.7265,-1.7072,-1.7259,-1.7695,-1.8116,-1.8009,-1.7903,-1.796,-1.7811,-1.734,-1.654,-1.5959,0.0,0.0,-1.4412,-1.3944,-1.3894,-1.361,-1.3616,-1.3924,0.0,0.0,0.0,0.0,-1.5602,0.0,0.0,0.0,0.0,0.0,0.0,0.0,0.0,0.0,-1.7007,-1.7001,-1.7001,-1.7001,-1.7001,-1.7001,-1.7001,-1.7001,-1.7001,-1.7001,-1.7001,-1.7001,-1.7001,-1.7001,-1.7001,-1.7001,0.0,0.0,-1.7001,-1.7001,-1.7001,-1.7001,-1.7001,-1.698,-1.6894,-1.6468,-1.6285,-1.6065,0.0,0.0,0.0,0.0,0.0,0.0,0.0,0.0,0.0,-1.0262,-1.0173,-1.0059,0.0,0.0,0.0,0.0,0.0,0.0,0.0,0.0,0.0,0.0,0.0,0.0,0.0,0.0,0.0,0.0,0.0,0.0,0.0,0.0,0.0,0.0,0.0,0.0,0.0,0.0,-1.4283,0.0,0.0,0.0,0.0,0.0,0.0,0.0,0.0,0.0,0.0,0.0,-1.5074,-1.5741,-1.5959,-1.6477,-1.7055,-1.698,-1.7348,-1.7695,-1.7971,-1.7862,-1.7647,-1.7753,-1.7417,-1.6891,-1.6242,0.0,0.0,0.0,-1.4084,-1.3586,-1.3361,0.0,0.0,0.0,0.0,0.0,0.0,0.0,0.0,0.0,0.0,0.0,0.0,0.0,0.0,0.0,0.0,0.0,-1.7001,-1.7125,-1.7254,-1.7373,-1.726,-1.72,-1.72,-1.7071,-1.7001,-1.7001,-1.7001,-1.7001,-1.7001,-1.7001,-1.7001,-1.7007,0.0,0.0,-1.7271,-1.7271,-1.7271,-1.7265,-1.7007,-1.7001,-1.6947,-1.6484,-1.6312,-1.6124,0.0,0.0,0.0,0.0,0.0,0.0,0.0,-1.0399,-1.0374,-1.0299,-1.0262,-1.0173,-1.0059,-1.0021,-0.9995,0.0,0.0,0.0,0.0,0.0,0.0,0.0,0.0,0.0,0.0,0.0,0.0,0.0,0.0,0.0,0.0,0.0,0.0,0.0,0.0,0.0,0.0,0.0,0.0,0.0,0.0,0.0,0.0,0.0,0.0,0.0,0.0,0.0,0.0,0.0,-1.4807,-1.513,-1.5625,-1.6204,-1.6775,-1.6891,-1.7262,-1.7614,-1.7749,-1.7676,-1.7502,-1.7443,-1.7086,-1.6498,-1.5906,-1.5464,0.0,0.0,-1.3762,-1.3226,-1.2782,0.0,-1.2337,0.0,0.0,0.0,0.0,0.0,0.0,0.0,0.0,0.0,0.0,0.0,0.0,0.0,0.0,0.0,0.0,-1.7445,-1.7668,-1.7712,-1.7545,-1.7426,-1.7378,-1.7184,-1.7055,-1.7001,-1.7001,-1.7001,-1.7001,-1.7001,-1.7001,-1.7007,0.0,0.0,0.0,-1.7535,-1.7535,-1.7535,-1.7136,-1.6974,-1.6883,-1.6468,-1.628,-1.6172,0.0,0.0,0.0,0.0,0.0,0.0,0.0,-1.0449,-1.0374,-1.0299,-1.0274,-1.0249,-1.0186,-1.0085,-1.0172,0.0,0.0,0.0,0.0,0.0,0.0,0.0,0.0,0.0,0.0,0.0,0.0,0.0,0.0,0.0,0.0,0.0,0.0,0.0,0.0,0.0,0.0,0.0,0.0,0.0,0.0,0.0,0.0,0.0,0.0,0.0,0.0,0.0,0.0,0.0,0.0,-1.4572,-1.5105,-1.5896,-1.6727,-1.6853,0.0,0.0,-1.7669,-1.7699,-1.7734,-1.7473,-1.7053,-1.6459,-1.5882,0.0,0.0,-1.4195,-1.3721,-1.3179,-1.266,-1.2363,-1.2282,-1.262,0.0,-1.3435,0.0,0.0,0.0,0.0,0.0,0.0,0.0,0.0,0.0,0.0,0.0,0.0,0.0,-1.8089,-1.8099,-1.7717,-1.7701,-1.7588,-1.7383,-1.7356,-1.7227,-1.7001,-1.7001,-1.7001,-1.7001,-1.7001,-1.7001,-1.7007,0.0,0.0,0.0,-1.7535,-1.7535,-1.7535,-1.7136,-1.6877,-1.6662,-1.6409,-1.6172,-1.5941,0.0,0.0,0.0,0.0,0.0,0.0,0.0,-1.0498,-1.0449,-1.0374,-1.0324,-1.0392,-1.065,-1.0315,-1.0136,0.0,0.0,0.0,0.0,0.0,0.0,0.0,0.0,0.0,0.0,0.0,0.0,0.0,0.0,0.0,0.0,0.0,0.0,0.0,0.0,0.0,0.0,0.0,0.0,0.0,0.0,0.0,0.0,0.0,0.0,0.0,0.0,0.0,0.0,0.0,0.0,0.0,-1.4932,-1.5414,0.0,0.0,-1.6792,-1.6969,-1.7034,-1.7032,-1.6854,-1.6586,-1.6401,-1.6049,-1.5397,0.0,-1.4331,-1.3881,-1.3272,-1.2759,-1.2577,-1.2239,-1.2043,-1.2337,-1.2675,0.0,0.0,0.0,0.0,0.0,0.0,0.0,0.0,0.0,0.0,0.0,0.0,0.0,0.0,-1.8615,-1.8544,-1.8418,-1.815,-1.783,-1.7588,-1.7448,-1.7254,-1.7001,-1.7001,-1.7001,-1.7001,-1.7001,-1.7001,-1.7001,0.0,0.0,0.0,-1.7781,-1.7781,-1.7781,-1.726,-1.6867,-1.6635,-1.6404,-1.6161,-1.5914,0.0,0.0,0.0,0.0,0.0,0.0,-1.0251,-1.0403,-1.0474,-1.0374,-1.0324,-1.0418,-1.074,-1.0367,-1.0072,-1.0021,0.0,0.0,0.0,0.0,0.0,0.0,0.0,0.0,0.0,0.0,0.0,0.0,0.0,0.0,0.0,0.0,0.0,0.0,0.0,0.0,0.0,0.0,0.0,0.0,0.0,0.0,0.0,0.0,0.0,0.0,0.0,0.0,0.0,0.0,0.0,0.0,0.0,0.0,0.0,0.0,-1.635,-1.6499,-1.6462,-1.6491,-1.6463,-1.6197,-1.5956,-1.5725,0.0,0.0,-1.4076,-1.3454,-1.2961,-1.2573,-1.2348,-1.2094,-1.1908,-1.2184,-1.2459,-1.2954,-1.3676,0.0,0.0,0.0,0.0,0.0,0.0,0.0,0.0,0.0,0.0,0.0,0.0,-1.9174,-1.902,-1.8982,-1.8555,-1.8177,-1.7723,-1.7561,-1.7319,-1.7001,-1.7001,-1.7001,-1.7001,-1.7001,-1.7001,0.0,0.0,0.0,0.0,-1.791,-1.791,-1.7776,-1.7183,-1.6764,-1.6533,-1.6296,-1.6054,-1.5817,0.0,0.0,0.0,0.0,0.0,0.0,0.0,-1.0126,-1.0449,-1.0324,-1.0299,-1.0287,-1.0225,-1.0135,-1.0072,-1.0021,0.0,0.0,0.0,0.0,0.0,0.0,0.0,0.0,0.0,0.0,-1.2016,-1.1782,-1.1782,-1.1952,0.0,0.0,0.0,0.0,0.0,0.0,0.0,0.0,0.0,0.0,0.0,0.0,0.0,0.0,0.0,0.0,0.0,0.0,0.0,0.0,0.0,0.0,0.0,0.0,0.0,0.0,-1.6039,-1.635,-1.6087,-1.632,-1.6639,-1.6463,-1.5966,-1.5483,0.0,-1.4427,-1.3789,-1.295,-1.2829,-1.2659,-1.2136,-1.2009,-1.2048,-1.2153,-1.2469,0.0,-1.3405,0.0,0.0,0.0,0.0,0.0,0.0,0.0,0.0,0.0,0.0,0.0,0.0,0.0,-1.9433,-1.8982,-1.8982,-1.8611,-1.7723,-1.7717,-1.7475,-1.7001,-1.7001,-1.7001,-1.7001,-1.7001,0.0,0.0,0.0,0.0,0.0,-1.7535,-1.7535,-1.7512,-1.6886,-1.6522,-1.6291,-1.6043,-1.5801,-1.5601,0.0,0.0,0.0,0.0,0.0,0.0,0.0,-0.9781,-0.9999,-1.0335,-1.0324,-1.0249,-1.0122,-1.0122,-1.0046,-0.9944,0.0,0.0,0.0,0.0,0.0,0.0,0.0,0.0,0.0,0.0,-1.1918,-1.1782,-1.2079,-1.2146,-1.2081,-1.2386,0.0,0.0,0.0,0.0,0.0,0.0,0.0,0.0,0.0,0.0,0.0,0.0,0.0,0.0,0.0,0.0,0.0,0.0,0.0,0.0,0.0,0.0,0.0,-1.4316,-1.502,0.0,-1.5637,-1.5473,-1.5308,-1.5227,-1.5072,-1.4735,-1.4379,-1.3952,-1.3445,-1.3008,-1.2654,-1.2412,-1.2244,-1.2077,-1.2123,-1.2634,-1.2475,0.0,0.0,0.0,0.0,0.0,0.0,0.0,0.0,0.0,0.0,0.0,0.0,0.0,0.0,0.0,-1.9581,-1.9146,-1.8876,-1.8374,-1.7491,-1.7486,-1.7324,-1.7001,-1.7001,-1.7001,-1.7001,-1.7001,0.0,0.0,0.0,0.0,0.0,-1.7535,-1.7535,-1.7512,-1.6881,-1.6522,-1.6285,-1.6038,-1.5801,-1.5601,0.0,0.0,0.0,0.0,0.0,0.0,0.0,-0.9178,-0.9493,-1.0004,-1.0011,-1.0003,-1.0097,-1.0097,-1.0021,-0.988,0.0,0.0,0.0,0.0,0.0,0.0,0.0,0.0,0.0,-1.1979,-1.1934,-1.2023,-1.2235,-1.2396,-1.255,-1.2808,-1.2913,-1.2895,0.0,0.0,0.0,0.0,0.0,0.0,0.0,0.0,-1.1846,0.0,0.0,0.0,0.0,0.0,0.0,0.0,0.0,0.0,0.0,0.0,0.0,0.0,-1.4239,-1.4812,0.0,-1.4958,-1.4932,-1.4777,-1.4621,0.0,-1.4072,-1.3732,-1.3402,-1.2975,-1.2655,-1.2378,-1.2305,-1.2224,-1.2273,-1.2792,-1.2734,0.0,0.0,0.0,0.0,0.0,0.0,0.0,0.0,0.0,0.0,0.0,0.0,0.0,0.0,0.0,-1.9536,-1.9159,-1.8846,-1.83,-1.7642,-1.7505,-1.7254,-1.7001,-1.7001,-1.7001,-1.7001,0.0,0.0,0.0,0.0,0.0,0.0,-1.7271,-1.7271,-1.7238,-1.6783,-1.6441,-1.6274,-1.5941,-1.5725,-1.5601,0.0,0.0,0.0,0.0,0.0,0.0,0.0,0.0,0.0,0.0,-0.9403,-0.9553,-1.0007,-1.0021,-0.9944,0.0,0.0,0.0,0.0,0.0,0.0,0.0,0.0,0.0,-1.2054,-1.1977,-1.2076,-1.2379,-1.2316,-1.2696,-1.3452,-1.325,-1.3355,-1.3763,-1.3515,0.0,0.0,0.0,0.0,0.0,0.0,0.0,0.0,0.0,0.0,0.0,0.0,0.0,0.0,0.0,0.0,0.0,0.0,0.0,0.0,0.0,0.0,0.0,0.0,-1.4743,-1.5203,0.0,0.0,0.0,-1.386,-1.3712,0.0,-1.2808,-1.2599,-1.2526,-1.2378,-1.2318,-1.245,-1.2877,0.0,0.0,0.0,0.0,0.0,0.0,0.0,0.0,0.0,0.0,0.0,0.0,0.0,0.0,0.0,0.0,0.0,-1.8929,-1.876,-1.85,-1.7867,-1.7478,-1.7233,-1.7001,-1.7001,-1.7001,-1.7001,0.0,0.0,0.0,0.0,0.0,0.0,-1.7001,-1.7001,-1.6958,-1.6495,-1.6312,-1.6258,-1.5774,-1.5601,-1.5601,0.0,0.0,0.0,0.0,0.0,0.0,0.0,0.0,0.0,0.0,-0.9156,-0.9411,-0.9469,-0.9754,-0.9905,0.0,0.0,0.0,0.0,0.0,0.0,0.0,0.0,0.0,-1.1932,-1.2177,-1.2268,-1.225,-1.288,-1.3183,-1.3218,-1.3392,-1.3517,-1.3467,-1.3314,-1.2977,0.0,0.0,0.0,0.0,0.0,0.0,0.0,0.0,0.0,0.0,-1.2076,-1.2081,0.0,0.0,0.0,0.0,0.0,0.0,0.0,0.0,-1.3145,-1.3437,-1.3533,0.0,-1.4119,-1.4047,-1.4038,-1.3999,0.0,-1.3535,-1.3286,-1.306,-1.2826,-1.2599,-1.2526,-1.2641,-1.2766,0.0,0.0,0.0,0.0,0.0,0.0,0.0,0.0,0.0,0.0,0.0,0.0,0.0,0.0,0.0,0.0,0.0,0.0,-1.8665,-1.8323,-1.8058,-1.7618,-1.7223,-1.706,-1.7001,-1.7001,-1.7001,-1.7001,0.0,0.0,0.0,0.0,0.0,-1.7001,-1.7001,-1.7001,-1.6958,-1.6495,-1.6312,-1.6258,-1.5774,-1.5601,-1.5601,0.0,0.0,0.0,0.0,0.0,0.0,0.0,0.0,0.0,0.0,0.0,0.0,0.0,0.0,0.0,0.0,0.0,0.0,0.0,0.0,0.0,0.0,0.0,-1.0922,-1.1796,-1.2136,-1.236,-1.2468,-1.3043,-1.3324,-1.334,-1.3449,-1.342,-1.3314,-1.319,-1.2807,0.0,0.0,0.0,0.0,0.0,0.0,0.0,0.0,0.0,0.0,-1.2012,-1.2076,0.0,-1.207,-1.1997,-1.1904,0.0,0.0,0.0,0.0,-1.2837,-1.3009,-1.3048,-1.3411,-1.3697,-1.3785,-1.3831,-1.381,-1.3825,-1.3645,-1.3419,-1.3273,0.0,0.0,-1.2777,0.0,0.0,0.0,0.0,0.0,0.0,0.0,0.0,0.0,0.0,0.0,0.0,0.0,0.0,0.0,0.0,0.0,0.0,0.0,0.0,0.0,-1.8173,-1.7781,-1.7535,-1.7136,-1.7001,-1.7001,-1.7001,-1.7001,-1.7001,0.0,0.0,0.0,0.0,0.0,-1.7001,-1.7001,-1.7001,-1.6958,-1.6495,-1.6312,-1.6258,-1.5774,-1.5601,-1.5601,0.0,0.0,0.0,0.0,0.0,0.0,0.0,0.0,0.0,0.0,0.0,0.0,0.0,0.0,0.0,0.0,0.0,0.0,0.0,0.0,0.0,0.0,0.0,-1.09,-1.1771,-1.2129,-1.2479,-1.285,-1.3091,-1.3361,-1.3666,-1.346,-1.3276,-1.3122,-1.3065,-1.2676,0.0,0.0,0.0,0.0,-1.0424,0.0,0.0,0.0,0.0,0.0,0.0,0.0,0.0,-1.1927,-1.1828,-1.1731,-1.1861,0.0,0.0,0.0,0.0,0.0,-1.2756,-1.3131,-1.3521,-1.3721,-1.3785,-1.3847,-1.3852,0.0,0.0,0.0,0.0,0.0,0.0,-1.3119,0.0,0.0,0.0,0.0,0.0,0.0,0.0,0.0,0.0,0.0,0.0,0.0,0.0,0.0,0.0,0.0,0.0,0.0,0.0,0.0,-1.8168,-1.7781,-1.74,-1.7136,-1.7001,-1.7001,-1.7001,-1.7001,-1.7001,-1.7001,0.0,0.0,0.0,0.0,-1.7001,-1.7001,-1.6985,-1.691,-1.6479,-1.6291,-1.6204,-1.5763,-1.5601,-1.5601,0.0,0.0,0.0,0.0,0.0,0.0,0.0,0.0,0.0,0.0,0.0,0.0,0.0,0.0,0.0,0.0,0.0,0.0,0.0,0.0,0.0,-1.0295,-1.034,-1.0887,-1.2107,-1.25,-1.2818,-1.3057,-1.3382,-1.3697,-1.3991,-1.3429,-1.3075,-1.292,-1.2822,-1.2696,-1.2532,-1.1633,-1.1173,-1.0973,-1.0196,0.0,0.0,0.0,0.0,0.0,0.0,0.0,0.0,-1.1927,-1.1877,-1.1837,-1.1648,0.0,0.0,0.0,0.0,0.0,-1.268,-1.2833,-1.3058,-1.3505,-1.3742,-1.3917,-1.4204,-1.4008,0.0,0.0,0.0,0.0,0.0,0.0,0.0,0.0,0.0,0.0,0.0,0.0,0.0,0.0,0.0,0.0,0.0,0.0,0.0,0.0,0.0,0.0,0.0,0.0,0.0,0.0,0.0,-1.7647,-1.7136,-1.7001,-1.7001,-1.7001,-1.7001,-1.7001,-1.7001,-1.7001,-1.7001,0.0,0.0,-1.7001,-1.7001,-1.7001,-1.6888,-1.6689,-1.642,-1.6188,-1.5973,-1.5698,-1.5601,-1.5601,0.0,0.0,0.0,0.0,0.0,0.0,0.0,0.0,0.0,0.0,0.0,0.0,0.0,0.0,0.0,0.0,0.0,0.0,0.0,0.0,0.0,-1.0112,-1.0156,-1.076,-1.2048,-1.2433,-1.2742,-1.2972,-1.3594,-1.385,-1.3851,-1.3411,-1.3046,-1.2783,-1.2627,-1.2529,-1.2423,-1.1525,-1.1079,-1.0925,0.0,0.0,0.0,0.0,0.0,0.0,0.0,0.0,0.0,0.0,-1.1977,-1.1877,-1.1778,0.0,0.0,0.0,0.0,0.0,-1.2671,-1.2889,-1.3161,-1.3606,-1.3703,-1.3829,-1.4308,-1.4283,-1.42,0.0,0.0,0.0,0.0,0.0,0.0,0.0,0.0,0.0,0.0,0.0,0.0,0.0,0.0,0.0,0.0,0.0,0.0,0.0,0.0,0.0,0.0,0.0,0.0,0.0,0.0,0.0,-1.6818,-1.6818,-1.6883,-1.7001,-1.7001,-1.7001,-1.7001,-1.7001,-1.7001,-1.7001,0.0,-1.7001,-1.6996,-1.6872,-1.6759,-1.6624,-1.6258,-1.6048,-1.5919,-1.5688,-1.5601,-1.5601,0.0,0.0,0.0,0.0,0.0,0.0,0.0,0.0,0.0,0.0,0.0,0.0,0.0,0.0,0.0,0.0,0.0,0.0,0.0,0.0,-0.924,-0.9961,-0.995,-1.0594,-1.205,-1.2267,-1.2557,-1.3037,-1.3657,-1.3902,-1.3765,-1.3549,-1.3224,-1.2771,-1.2567,-1.2382,-1.2276,-1.1388,-1.099,-1.0837,0.0,0.0,0.0,0.0,0.0,0.0,0.0,0.0,0.0,0.0,0.0,0.0,0.0,0.0,0.0,-1.1835,-1.2137,-1.2458,-1.2577,-1.2941,-1.3417,-1.3811,-1.3784,-1.3791,-1.4442,-1.4607,-1.4666,0.0,0.0,0.0,0.0,0.0,0.0,0.0,0.0,0.0,0.0,0.0,0.0,0.0,0.0,0.0,0.0,0.0,0.0,0.0,0.0,0.0,0.0,0.0,0.0,0.0,0.0,0.0,-1.6581,-1.6581,-1.6727,-1.7001,-1.7001,-1.7001,-1.7001,-1.7001,-1.7001,-1.7001,-1.6947,-1.6926,-1.6904,-1.6678,-1.6549,-1.6457,-1.6091,-1.5914,-1.5844,-1.5666,-1.5601,-1.5601,0.0,0.0,0.0,0.0,0.0,0.0,0.0,0.0,0.0,0.0,0.0,0.0,0.0,0.0,0.0,0.0,0.0,0.0,0.0,0.0,-0.9043,-0.9961,-0.983,-1.0562,-1.232,-1.2266,-1.258,-1.3369,-1.3631,-1.3763,-1.3869,-1.3941,-1.3667,-1.3029,-1.2541,-1.2332,-1.2218,-1.1297,-1.0901,-1.0837,-1.0036,0.0,0.0,0.0,0.0,0.0,0.0,0.0,0.0,0.0,0.0,0.0,0.0,0.0,-1.1828,-1.1604,-1.2035,-1.2564,-1.2423,-1.2864,-1.3479,-1.4154,-1.4057,-1.399,-1.4911,-1.5016,-1.4886,-1.505,0.0,0.0,0.0,0.0,0.0,0.0,0.0,0.0,0.0,0.0,0.0,0.0,0.0,0.0,0.0,0.0,0.0,0.0,0.0,0.0,0.0,0.0,0.0,0.0,0.0,0.0,-1.6339,-1.6339,-1.656,-1.7001,-1.7001,-1.7001,-1.7001,-1.7001,-1.7001,-1.699,-1.678,-1.6689,-1.6667,-1.6436,-1.6204,-1.5994,-1.5962,-1.5811,-1.5623,-1.5607,-1.5601,-1.5601,0.0,0.0,0.0,0.0,0.0,0.0,0.0,0.0,0.0,0.0,0.0,0.0,0.0,0.0,0.0,0.0,0.0,0.0,0.0,-0.8656,-0.8966,-0.9798,-0.9676,-1.0267,-1.1747,-1.2015,-1.2477,-1.321,-1.3606,-1.3733,-1.3532,-1.3651,-1.3308,-1.2598,-1.2299,-1.2175,-1.212,-1.1251,-1.0901,-1.0837,-1.0036,-0.9683,0.0,0.0,0.0,0.0,0.0,0.0,0.0,0.0,-1.114,-1.1214,-1.1533,-1.1613,-1.1562,-1.1706,-1.2007,-1.226,-1.2494,-1.2946,-1.3585,-1.4219,-1.4546,-1.4771,-1.5251,-1.5439,-1.5615,-1.5862,-1.5974,0.0,0.0,0.0,0.0,0.0,0.0,0.0,0.0,0.0,0.0,0.0,0.0,0.0,0.0,0.0,0.0,0.0,0.0,0.0,0.0,0.0,0.0,0.0,0.0,0.0,0.0,-1.6086,-1.6253,-1.6576,-1.6576,-1.6576,-1.6576,-1.6576,-1.6576,-1.6571,-1.6484,-1.6447,-1.6425,-1.6188,-1.6032,-1.5935,-1.579,-1.5677,-1.5601,-1.5601,-1.5601,-1.5601,0.0,0.0,0.0,0.0,0.0,0.0,0.0,0.0,0.0,0.0,0.0,0.0,0.0,0.0,0.0,0.0,0.0,0.0,-0.8628,-0.8561,-0.8878,-0.9611,-0.952,-1.0042,-1.1287,-1.1679,-1.2203,-1.2819,-1.3362,-1.3542,-1.3347,-1.3349,-1.301,-1.241,-1.2181,-1.2076,-1.2021,-1.1205,-1.0857,-1.0739,-0.9912,-0.9594,0.0,0.0,0.0,0.0,0.0,0.0,0.0,0.0,-1.0717,-1.0791,-1.1205,-1.1332,-1.1393,-1.1664,-1.1864,-1.2131,-1.2506,-1.3053,-1.3638,-1.4349,-1.4991,-1.5501,-1.57,-1.5958,-1.6241,-1.6487,-1.6583,-1.6536,0.0,0.0,0.0,0.0,0.0,0.0,0.0,0.0,0.0,0.0,0.0,0.0,0.0,0.0,0.0,0.0,0.0,0.0,0.0,0.0,0.0,0.0,0.0,0.0,0.0,-1.5838,-1.5919,-1.6086,-1.6086,-1.6167,-1.6312,-1.6312,-1.6312,-1.6307,-1.6231,-1.6199,-1.6178,-1.5935,-1.5838,-1.5822,-1.5661,-1.5601,-1.5601,-1.5601,-1.5553,-1.5488,0.0,0.0,0.0,0.0,0.0,0.0,0.0,0.0,0.0,0.0,0.0,0.0,0.0,0.0,0.0,0.0,0.0,0.0,-0.86,-0.8467,-0.8719,-0.9468,-0.9419,-0.9934,-1.1084,-1.1348,-1.1752,-1.219,-1.2788,-1.3251,-1.3495,-1.3075,-1.2818,-1.2696,-1.23,-1.2076,-1.2021,-1.1113,-1.0678,-1.0606,-0.968,-0.9377,-0.9484,0.0,0.0,0.0,0.0,0.0,0.0,0.0,-1.0303,-1.0376,-1.0772,-1.1186,-1.148,-1.1348,-1.1751,-1.2237,-1.2506,-1.3053,-1.3699,0.0,0.0,0.0,-1.6236,-1.6476,-1.6759,-1.6853,-1.7037,-1.7241,-1.7274,0.0,0.0,0.0,0.0,0.0,0.0,0.0,0.0,0.0,0.0,0.0,0.0,0.0,0.0,0.0,0.0,0.0,0.0,0.0,0.0,0.0,0.0,0.0,0.0,-1.5601,-1.5601,-1.5601,-1.5601,-1.5849,-1.6307,-1.6307,-1.6307,-1.6296,-1.6048,-1.5946,-1.593,-1.5693,-1.5601,-1.5601,-1.5601,-1.5601,-1.5601,-1.5596,-1.5451,-1.5252,0.0,0.0,0.0,0.0,0.0,0.0,0.0,0.0,0.0,0.0,0.0,0.0,0.0,0.0,0.0,0.0,0.0,0.0,-0.8477,-0.8347,-0.862,-0.9378,-0.9275,-0.9596,-1.0528,-1.0946,-1.158,-1.2387,-1.277,-1.2847,-1.2647,-1.2753,-1.2516,-1.2141,-1.2031,-1.1927,-1.1774,-1.0928,-1.0543,-1.0472,-0.9638,-0.9328,-0.9368,0.0,0.0,0.0,0.0,0.0,0.0,0.0,0.0,0.0,-1.0358,-1.0763,-1.115,-1.1351,-1.1652,-1.1988,-1.2599,-1.311,0.0,-1.4487,0.0,0.0,0.0,-1.683,0.0,0.0,-1.7629,-1.7762,0.0,0.0,0.0,0.0,0.0,0.0,0.0,0.0,0.0,0.0,0.0,0.0,0.0,0.0,0.0,0.0,0.0,0.0,0.0,0.0,0.0,0.0,0.0,0.0,0.0,0.0,-1.5601,-1.5601,-1.5601,-1.5671,-1.5811,-1.5811,-1.5811,-1.5806,-1.5736,-1.5704,-1.5698,-1.5628,-1.5601,-1.5601,-1.5601,-1.5601,-1.558,-1.5413,-1.5311,-1.5225,0.0,0.0,0.0,0.0,0.0,0.0,0.0,0.0,0.0,0.0,-0.6432,0.0,0.0,0.0,0.0,0.0,0.0,0.0,0.0,-0.8244,-0.853,-0.9234,-0.913,-0.9473,-1.0309,-1.0634,-1.1166,-1.2041,-1.2391,-1.2415,-1.2135,-1.2324,-1.2204,-1.1828,-1.1828,-1.1778,-1.1625,-1.078,-1.0409,-1.0338,-0.9523,-0.9208,-0.9248,0.0,0.0,0.0,0.0,0.0,0.0,0.0,0.0,0.0,-0.9999,-1.0349,-1.0754,-1.1122,-1.1384,-1.1651,-1.2582,-1.3063,0.0,-1.4453,-1.5615,-1.6573,-1.6995,0.0,0.0,0.0,0.0,0.0,0.0,0.0,0.0,0.0,0.0,0.0,0.0,0.0,0.0,0.0,0.0,0.0,0.0,0.0,0.0,0.0,0.0,0.0,0.0,0.0,0.0,0.0,0.0,0.0,0.0,0.0,0.0,-1.5601,-1.5601,-1.5601,-1.5601,-1.5601,-1.5601,-1.5601,-1.5601,-1.5601,-1.5601,-1.5601,-1.5601,-1.5591,-1.5499,-1.5461,-1.5429,-1.5192,-1.5047,-1.4945,0.0,0.0,0.0,0.0,0.0,0.0,0.0,0.0,0.0,0.0,-0.6665,-0.6904,0.0,0.0,0.0,0.0,0.0,0.0,0.0,0.0,-0.842,-0.8997,-0.9014,-0.9446,-1.0345,-1.0359,-1.0636,-1.1237,-1.178,-1.199,-1.1877,-1.1877,-1.1819,-1.1678,-1.1678,-1.1669,-1.1625,-1.0696,-1.0273,-1.0204,-0.9366,-0.9056,-0.9177,-0.9177,0.0,0.0,0.0,0.0,0.0,0.0,0.0,0.0,-0.9683,-0.9999,-1.0395,-1.0791,-1.0976,-1.1359,-1.2467,0.0,0.0,-1.4401,-1.554,0.0,-1.7961,0.0,0.0,0.0,0.0,0.0,0.0,0.0,0.0,0.0,0.0,0.0,0.0,0.0,0.0,0.0,0.0,0.0,0.0,0.0,0.0,0.0,0.0,0.0,0.0,0.0,0.0,0.0,0.0,0.0,0.0,0.0,0.0,0.0,-1.5531,-1.5531,-1.5537,-1.558,-1.5601,-1.5601,-1.5601,-1.5601,-1.5601,-1.5601,-1.5585,-1.5548,-1.5338,-1.5235,-1.5187,-1.4945,-1.4719,-1.453,0.0,0.0,0.0,0.0,0.0,0.0,0.0,0.0,0.0,0.0,0.0,0.0,0.0,0.0,0.0,0.0,0.0,0.0,0.0,0.0,-0.8099,-0.8518,-0.8933,-0.9413,-0.9935,-1.0063,-1.0378,-1.0813,-1.1266,-1.158,-1.1728,-1.1728,-1.1669,-1.1528,-1.1528,-1.1477,-1.1325,-1.0509,-1.0137,-1.0077,-0.9315,-0.9016,-0.9056,-0.9056,-0.9096,0.0,0.0,0.0,0.0,0.0,0.0,0.0,-0.9683,-0.9999,-1.0352,-1.0658,-1.0929,-1.131,-1.235,-1.2794,0.0,0.0,-1.5542,-1.6519,-1.731,0.0,0.0,0.0,0.0,0.0,0.0,0.0,0.0,0.0,0.0,0.0,0.0,0.0,0.0,0.0,0.0,0.0,0.0,0.0,0.0,0.0,0.0,0.0,0.0,0.0,0.0,0.0,0.0,0.0,-1.5036,-1.5036,-1.5036,0.0,-1.5036,-1.5036,-1.5047,-1.5429,-1.5601,-1.5601,-1.5601,-1.5601,-1.5601,-1.5601,-1.5494,-1.5322,-1.5273,-1.5133,-1.4934,-1.4697,-1.4579,-1.4509,0.0,0.0,0.0,0.0,0.0,0.0,0.0,0.0,0.0,0.0,0.0,0.0,0.0,0.0,0.0,0.0,0.0,0.0,0.0,0.0,-0.8038,-0.8521,-0.8969,-0.9347,-0.9664,-0.9754,-0.9927,-1.0224,-1.0623,-1.111,-1.1628,-1.1628,-1.1519,-1.1427,-1.1427,-1.1377,-1.1275,-1.0454,-1.0092,-1.0032,-0.9282,-0.9016,-0.9016,-0.9016,-0.9056,-0.9096,-0.9177,0.0,0.0,0.0,0.0,0.0,0.0,0.0,-0.9884,-1.0238,-1.0507,-1.0936,-1.1809,0.0,0.0,-1.4564,0.0,-1.6201,0.0,0.0,0.0,0.0,0.0,0.0,0.0,0.0,0.0,0.0,0.0,0.0,0.0,0.0,0.0,0.0,0.0,0.0,0.0,0.0,0.0,0.0,0.0,0.0,0.0,0.0,0.0,0.0,0.0,0.0,-1.4885,-1.4885,-1.4885,-1.4885,-1.4885,-1.4885,-1.4896,-1.5268,-1.5494,-1.5601,-1.5601,-1.5537,-1.5435,-1.5435,-1.5289,-1.5063,-1.495,-1.4832,-1.4692,-1.4455,-1.4374,-1.4358,0.0,0.0,0.0,0.0,0.0,0.0,0.0,0.0,0.0,0.0,0.0,0.0,0.0,0.0,0.0,0.0,0.0,0.0,0.0,0.0,0.0,-0.8668,-0.8909,-0.9207,-0.9515,-0.9475,-0.9541,-0.9718,-1.0091,-1.0629,-1.1382,-1.1443,-1.1427,-1.1326,-1.1326,-1.1276,-1.1233,-1.0484,-1.0152,-1.0032,-0.935,-0.9035,-0.9016,-0.9016,-0.9016,-0.9016,-0.9136,-0.9177,-0.9177,-0.9248,0.0,0.0,0.0,0.0,-0.9359,-0.9765,-1.0022,-1.036,-1.1242,0.0,-1.298,-1.4541,-1.5283,0.0,0.0,0.0,0.0,0.0,0.0,0.0,0.0,0.0,0.0,0.0,0.0,0.0,0.0,0.0,0.0,0.0,0.0,0.0,0.0,0.0,0.0,0.0,0.0,0.0,0.0,0.0,0.0,0.0,0.0,-1.4767,-1.4767,-1.4767,-1.4767,-1.4767,-1.4767,-1.4783,-1.4832,-1.5036,-1.5257,-1.5478,-1.5478,-1.5365,-1.5187,-1.5187,-1.5042,-1.4805,-1.4611,-1.4514,-1.4455,-1.4266,-1.4196,-1.4196,0.0,0.0,0.0,0.0,0.0,0.0,0.0,0.0,0.0,0.0,0.0,0.0,0.0,0.0,0.0,0.0,0.0,0.0,-0.7821,0.0,0.0,-0.858,-0.8474,-0.8748,-0.9466,-0.9306,-0.9377,-0.9718,-1.0002,-1.036,-1.0805,-1.1172,-1.1326,-1.1326,-1.1326,-1.1226,-1.1099,-1.0628,-1.0258,-0.9877,-0.9493,-0.9223,-0.9016,-0.9016,-0.9016,-0.9016,-0.9016,-0.9016,-0.9056,-0.9177,-0.9217,0.0,0.0,0.0,0.0,-0.9639,-0.9753,-1.003,0.0,0.0,-1.3442,0.0,-1.4655,-1.5355,0.0,0.0,0.0,0.0,0.0,0.0,0.0,0.0,0.0,0.0,0.0,0.0,0.0,0.0,0.0,0.0,0.0,0.0,0.0,0.0,0.0,0.0,0.0,0.0,0.0,0.0,-1.4288,-1.4288,-1.4288,0.0,-1.4288,-1.4288,-1.4288,-1.4288,-1.4288,-1.439,-1.4579,-1.4616,-1.4756,-1.4977,-1.4977,-1.4961,-1.4934,-1.4934,-1.4794,-1.4579,-1.4546,-1.4412,-1.4239,-1.4207,-1.4196,-1.4196,0.0,0.0,0.0,0.0,0.0,0.0,0.0,0.0,0.0,0.0,0.0,0.0,0.0,0.0,0.0,-0.814,-0.7947,-0.7792,-0.7705,-0.7549,-0.7807,-0.858,-0.8419,-0.8657,-0.9359,-0.9257,-0.9223,-0.9305,-0.9649,-0.999,-1.0263,-1.0643,-1.098,-1.1175,-1.1124,-1.1023,-1.0947,-1.054,-1.0291,-1.0092,-0.9504,-0.9215,-0.9098,-0.8987,-0.8952,-0.8952,-0.8984,-0.9016,-0.9024,-0.9056,-0.9096,-0.9096,-0.9128,0.0,0.0,0.0,-0.9469,-0.989,-1.1017,-1.201,-1.2915,0.0,-1.395,-1.4551,0.0,0.0,0.0,0.0,0.0,0.0,0.0,0.0,0.0,0.0,0.0,0.0,0.0,0.0,0.0,0.0,0.0,0.0,0.0,0.0,0.0,0.0,0.0,0.0,0.0,-1.4509,-1.4196,-1.4196,-1.4196,0.0,-1.4196,-1.4196,-1.4196,-1.4196,-1.4196,-1.425,-1.4347,-1.4347,-1.4541,-1.4885,-1.4885,-1.481,-1.4692,-1.4692,-1.4552,-1.4347,-1.4347,-1.4283,-1.4196,-1.4196,-1.4196,-1.4196,0.0,0.0,0.0,0.0,0.0,0.0,0.0,0.0,0.0,0.0,0.0,0.0,0.0,0.0,0.0,0.0,-0.7889,-0.7744,-0.7588,-0.746,-0.7744,-0.8477,-0.835,-0.8575,-0.927,-0.9177,-0.9096,-0.9016,-0.9367,-0.9648,-0.9784,-1.0206,-1.0573,-1.0831,-1.088,-1.0871,-1.0854,-1.0541,-1.0327,-1.0188,-0.9632,-0.9407,-0.9292,-0.9165,-0.9106,-0.9106,-0.9182,-0.9215,-0.9206,-0.9146,-0.912,-0.9153,-0.905,-0.9016,0.0,0.0,0.0,0.0,0.0,0.0,-1.2036,-1.2822,-1.3317,-1.3711,0.0,0.0,0.0,0.0,0.0,0.0,0.0,0.0,0.0,0.0,0.0,0.0,0.0,0.0,0.0,0.0,0.0,0.0,0.0,0.0,0.0,0.0,0.0,0.0,-1.4928,-1.4401,-1.4196,-1.4196,-1.4196,-1.4196,-1.4196,-1.4196,-1.4196,-1.4196,-1.4196,-1.4196,-1.4196,-1.4196,-1.4379,-1.4708,-1.4708,-1.4611,-1.4449,-1.4449,-1.4347,-1.4196,-1.4196,-1.4196,-1.4196,-1.4196,-1.4196,-1.4196,0.0,0.0,0.0,0.0,0.0,0.0,0.0,0.0,0.0,0.0,0.0,0.0,-0.841,-0.829,-0.8119,-0.7927,-0.785,-0.7715,-0.7519,-0.744,-0.7682,-0.8288,-0.8184,0.0,-0.9199,-0.9056,-0.9016,-0.9016,-0.9266,-0.9409,-0.9443,-0.9886,-1.0124,-1.0157,-1.0664,-1.082,-1.0718,-1.0702,-1.044,-1.0108,-1.0076,-0.9904,-0.9657,-0.9678,-0.9678,-0.967,-0.9678,-0.9761,-0.9801,-0.9485,-0.947,-0.9512,-0.9136,-0.9016,-0.9016,0.0,0.0,0.0,0.0,-1.0464,0.0,-1.202,0.0,0.0,0.0,0.0,0.0,0.0,0.0,0.0,0.0,0.0,0.0,0.0,0.0,0.0,0.0,0.0,0.0,0.0,0.0,0.0,0.0,0.0,0.0,0.0,0.0,0.0,-1.46,-1.4401,-1.4196,-1.4196,-1.4196,-1.4196,-1.4196,-1.4196,-1.4196,-1.4196,-1.4196,-1.4196,-1.4196,-1.4196,-1.4207,-1.4229,-1.4229,-1.4223,-1.4213,-1.4213,-1.4207,-1.4196,-1.4196,-1.4196,-1.4196,-1.4196,-1.4196,-1.4196,0.0,0.0,0.0,0.0,0.0,0.0,0.0,0.0,0.0,0.0,0.0,0.0,0.0,-0.8808,-0.8856,-0.8686,-0.8493,-0.8364,-0.8266,-0.8155,-0.8271,-0.8676,-0.8548,-0.8721,-0.9208,-0.9065,-0.8984,-0.8952,-0.9038,-0.914,-0.9201,-0.9367,-0.952,-0.9706,-1.035,-1.0624,-1.0565,-1.0565,-1.0493,0.0,0.0,-0.9899,-0.9811,-0.9687,0.0,0.0,0.0,0.0,0.0,-0.9624,-0.9628,-0.9614,-0.924,-0.9115,-0.9073,-0.888,0.0,0.0,0.0,0.0,0.0,-1.1145,0.0,0.0,0.0,0.0,0.0,0.0,0.0,0.0,0.0,0.0,0.0,0.0,0.0,0.0,0.0,0.0,0.0,0.0,0.0,0.0,0.0,0.0,0.0,0.0,0.0,0.0,-1.4595,-1.4401,-1.4196,-1.4196,-1.4196,-1.4196,-1.4196,-1.4196,-1.4196,-1.4196,-1.4196,-1.4196,-1.4196,-1.4196,-1.4196,-1.4196,-1.4196,-1.4196,-1.4196,-1.4196,-1.4196,-1.4196,-1.4196,-1.4196,-1.4196,-1.4196,-1.4196,-1.4196,0.0,0.0,0.0,0.0,0.0,0.0,0.0,0.0,0.0,-0.8868,0.0,0.0,0.0,0.0,-0.9231,-0.9028,-0.8814,-0.8702,-0.8677,-0.8558,-0.8602,-0.8809,-0.8752,-0.8823,-0.9136,-0.9056,-0.8984,-0.892,-0.8871,-0.8865,-0.8885,-0.8972,-0.9105,-0.9255,-0.9851,-1.0176,-1.0295,0.0,0.0,-1.0498,0.0,0.0,-1.0097,0.0,0.0,0.0,0.0,0.0,0.0,0.0,-1.0041,-1.0007,-0.9522,-0.9284,0.0,0.0,0.0,0.0,-0.9212,0.0,0.0,0.0,0.0,0.0,0.0,0.0,0.0,0.0,0.0,0.0,0.0,0.0,0.0,0.0,0.0,0.0,0.0,0.0,0.0,0.0,0.0,0.0,0.0,0.0,0.0,0.0,0.0,0.0,-1.436,-1.4169,-1.411,-1.4191,-1.4196,-1.4196,-1.4196,-1.4196,-1.4196,-1.4196,-1.4196,-1.4196,-1.4196,-1.4196,-1.4196,-1.4196,-1.4196,-1.4196,-1.4196,-1.4196,-1.4196,-1.4196,-1.4196,-1.4196,-1.4196,-1.4196,-1.4196,-1.4196,0.0,0.0,0.0,0.0,0.0,0.0,0.0,0.0,-0.9473,-0.934,0.0,0.0,0.0,0.0,0.0,-0.8862,-0.8784,-0.8715,-0.8655,-0.856,-0.8603,-0.8714,-0.8732,-0.8793,-0.9007,-0.9016,-0.8984,-0.8879,-0.8773,-0.8643,-0.8488,-0.8765,-0.8889,-0.8905,-0.9231,-0.9573,-0.9922,0.0,-1.0514,-1.0522,0.0,-1.053,-1.0569,0.0,0.0,0.0,-1.1376,-1.1559,0.0,0.0,0.0,0.0,0.0,0.0,0.0,0.0,0.0,0.0,0.0,0.0,0.0,0.0,0.0,0.0,0.0,0.0,0.0,0.0,0.0,0.0,0.0,0.0,0.0,0.0,0.0,0.0,0.0,0.0,0.0,0.0,0.0,0.0,0.0,0.0,0.0,0.0,0.0,-1.3859,-1.3793,-1.3809,-1.3922,-1.4175,-1.4186,-1.4186,-1.4196,-1.4191,-1.4191,-1.4191,-1.4191,-1.4196,-1.4196,-1.4196,-1.4191,-1.4191,-1.4191,-1.4191,-1.4196,-1.4196,-1.4196,-1.4196,-1.4196,-1.4196,-1.4196,-1.4196,-1.4196,-1.4196,0.0,0.0,0.0,0.0,0.0,0.0,-0.9475,-0.968,-0.9819,0.0,0.0,0.0,-0.9808,-0.992,-0.9959,-0.9772,-0.9668,-0.9592,-0.9478,-0.9296,-0.9187,-0.912,-0.909,-0.9032,-0.9016,-0.9016,-0.8935,-0.8773,-0.8724,-0.8602,-0.8414,-0.8518,-0.8524,-0.854,-0.8881,-0.9096,-0.9223,-0.9819,0.0,0.0,-1.0522,-1.0673,0.0,0.0,0.0,0.0,0.0,-1.1495,-1.1519,0.0,-1.1096,-1.0821,0.0,0.0,0.0,0.0,0.0,0.0,-0.8814,0.0,0.0,0.0,0.0,0.0,0.0,0.0,0.0,0.0,0.0,0.0,0.0,0.0,0.0,0.0,0.0,0.0,0.0,0.0,0.0,0.0,0.0,0.0,0.0,0.0,0.0,0.0,0.0,-1.3617,-1.3561,-1.3572,-1.368,-1.3916,-1.3922,-1.4008,-1.4191,-1.3975,-1.3862,-1.3862,-1.3645,-1.3537,-1.3537,-1.3537,-1.3645,-1.3862,-1.3862,-1.3975,-1.4196,-1.4196,-1.4196,-1.4196,-1.4196,-1.4196,-1.4196,-1.4196,-1.4196,-1.4196,0.0,0.0,0.0,0.0,0.0,-0.9973,-0.9788,-1.0037,-1.025,0.0,0.0,0.0,-1.0655,-1.0785,-1.0779,-1.0565,-1.0523,-1.0375,-1.0043,-0.984,-0.9636,-0.9328,-0.9248,-0.9136,-0.9016,-0.9016,-0.8895,-0.8716,-0.8716,-0.8602,-0.8414,-0.8414,-0.8414,-0.8422,0.0,0.0,0.0,0.0,0.0,0.0,-1.0566,0.0,0.0,-1.1312,-1.1543,0.0,0.0,0.0,-1.1916,-1.1757,-1.1487,0.0,0.0,0.0,0.0,0.0,0.0,0.0,-0.8828,-0.9074,0.0,0.0,0.0,0.0,0.0,-0.9908,0.0,0.0,0.0,0.0,0.0,0.0,0.0,0.0,0.0,0.0,0.0,0.0,0.0,0.0,0.0,0.0,0.0,0.0,0.0,0.0,-1.311,-1.3161,-1.3303,-1.3421,-1.354,-1.3674,-1.368,-1.3688,-1.3821,-1.3714,-1.3542,-1.3532,-1.3423,-1.3315,-1.3315,-1.3315,-1.3423,-1.3532,-1.364,-1.3862,-1.3975,-1.4191,-1.4196,-1.4196,-1.4196,-1.4196,-1.4196,-1.4196,-1.4196,-1.4196,0.0,0.0,0.0,-0.9884,-1.0154,-1.0331,-1.019,-1.0478,-1.0855,0.0,-1.1366,-1.1591,-1.1743,-1.1645,-1.1494,-1.1312,-1.123,-1.0963,-1.0404,-1.0249,-0.9891,-0.9408,-0.9278,-0.9189,-0.9016,-0.9016,-0.8895,-0.8724,-0.8716,-0.8602,-0.8414,-0.8414,-0.8414,-0.8414,0.0,0.0,0.0,0.0,0.0,-0.993,-1.0693,-1.1018,0.0,0.0,-1.2067,0.0,-1.2504,-1.2709,-1.2615,-1.221,-1.1787,0.0,0.0,0.0,0.0,0.0,-0.9197,0.0,-0.9042,-0.927,-0.9449,0.0,0.0,0.0,-0.9465,-0.9635,0.0,0.0,0.0,0.0,0.0,0.0,0.0,0.0,0.0,0.0,0.0,0.0,0.0,0.0,0.0,0.0,0.0,0.0,0.0,-1.2736,-1.2493,-1.2592,-1.3007,-1.3265,-1.341,-1.3437,-1.3437,-1.3447,-1.3357,-1.3357,-1.3254,-1.3239,-1.3131,-1.3146,-1.3171,-1.3171,-1.3181,-1.3315,-1.3537,-1.364,-1.3753,-1.3975,-1.4196,-1.4196,-1.4196,-1.4196,-1.4196,-1.4196,-1.4196,-1.4196,-0.9775,0.0,-0.9912,-1.023,-1.0553,-1.0862,-1.1079,-1.1421,-1.1747,-1.2089,-1.1931,-1.195,-1.2242,-1.1752,-1.1551,-1.1759,-1.1339,-1.0971,-1.0791,-1.057,-1.0215,-0.9783,-0.9614,-0.9341,-0.9024,-0.9016,-0.8943,-0.8871,-0.8765,-0.8643,-0.848,-0.8406,-0.8414,-0.8414,-0.8414,0.0,0.0,0.0,0.0,-0.9588,-1.0589,0.0,-1.1439,-1.186,-1.2377,-1.2893,-1.2965,-1.3163,-1.329,0.0,-1.203,-1.1612,0.0,0.0,0.0,0.0,0.0,0.0,0.0,0.0,0.0,0.0,0.0,0.0,-0.9413,-0.9306,0.0,0.0,0.0,0.0,0.0,0.0,0.0,0.0,0.0,0.0,0.0,0.0,0.0,0.0,0.0,0.0,0.0,0.0,-1.234,-1.221,-1.2307,-1.2457,-1.2544,-1.2775,-1.2985,-1.3168,-1.2978,-1.2988,-1.3127,-1.2713,-1.2526,-1.2467,-1.2253,-1.2135,-1.2307,-1.2307,-1.2612,-1.2989,-1.2989,-1.3315,-1.3753,-1.3753,-1.3975,-1.4196,-1.4196,-1.4196,-1.4196,-1.4196,-1.4196,-1.4196,-0.9863,-1.0217,-1.0546,-1.0676,-1.1151,-1.1577,-1.1625,-1.1935,-1.2278,-1.2611,-1.2807,-1.2992,-1.3234,-1.289,-1.2704,-1.2814,-1.2445,-1.2057,-1.1546,-1.1226,-1.0827,-1.0241,-0.9822,-0.9512,-0.9315,-0.9118,-0.8984,-0.892,-0.8773,-0.8635,-0.8521,-0.8455,-0.8414,-0.8414,-0.8414,0.0,0.0,0.0,-0.9493,-0.9755,-1.0812,0.0,-1.1551,-1.2083,-1.2623,-1.3092,-1.3092,-1.313,-1.3144,-1.2608,-1.2205,0.0,0.0,-1.1073,-1.085,0.0,-1.0225,-0.9777,0.0,0.0,0.0,-0.9344,0.0,0.0,0.0,-0.9113,-0.8996,0.0,0.0,0.0,0.0,0.0,0.0,0.0,0.0,0.0,0.0,0.0,0.0,0.0,0.0,0.0,0.0,0.0,-1.1527,-1.1682,-1.2032,-1.2231,-1.2231,-1.2457,-1.2544,-1.2559,-1.2573,-1.2552,-1.2486,-1.2181,-1.2133,-1.2029,-1.1921,-1.1874,-1.1978,-1.1978,-1.214,-1.2346,-1.2558,-1.277,-1.3203,-1.3422,-1.3683,-1.4019,-1.4148,-1.4196,-1.4196,-1.4196,-1.4196,-1.4196,-1.0152,-1.0704,-1.116,-1.1145,-1.1707,-1.2113,-1.205,-1.2341,-1.2663,-1.3032,-1.3589,-1.4089,-1.4326,-1.4144,-1.4,-1.4042,-1.3764,-1.3238,-1.2521,-1.2097,-1.1545,-1.0756,-1.0212,-0.9863,-0.9709,-0.9332,-0.9095,-0.9021,-0.8806,-0.8643,-0.8521,-0.8447,-0.8414,-0.8414,-0.8414,0.0,0.0,0.0,0.0,-1.0113,0.0,-1.1487,-1.1567,-1.235,-1.2822,-1.3203,-1.3338,-1.315,-1.2883,-1.2611,0.0,-1.2096,-1.1632,-1.1413,0.0,0.0,0.0,0.0,0.0,0.0,0.0,0.0,0.0,-0.9263,0.0,0.0,0.0,-0.8804,0.0,0.0,0.0,0.0,0.0,0.0,0.0,0.0,0.0,0.0,0.0,0.0,0.0,0.0,0.0,0.0,-1.0794,-1.1102,-1.165,-1.1914,-1.1914,-1.2188,-1.225,-1.1963,-1.2188,-1.2103,-1.1795,-1.1739,-1.174,-1.1699,-1.1699,-1.1718,-1.1761,-1.1761,-1.1779,-1.1817,-1.2132,-1.2339,-1.2555,-1.3044,-1.3435,-1.3677,-1.4078,-1.4196,-1.4196,-1.4196,-1.4196,-1.4196,-1.1058,-1.1047,-1.1157,-1.1553,-1.1823,-1.2141,-1.2446,-1.2827,-1.3221,-1.371,-1.4039,-1.4483,-1.5176,-1.4658,-1.4563,-1.5302,-1.4464,0.0,-1.3681,0.0,-1.2352,-1.158,-1.1254,-1.0762,-1.0041,-0.9718,-0.9538,-0.9504,-0.8973,-0.8675,-0.8675,-0.8488,-0.8414,0.0,-0.8414,0.0,0.0,0.0,-0.9787,0.0,-1.1193,-1.1487,0.0,-1.235,-1.2965,-1.3608,-1.4104,-1.3917,-1.334,0.0,-1.2519,-1.2191,0.0,-1.1365,-1.113,0.0,0.0,0.0,0.0,0.0,0.0,0.0,-0.9414,0.0,0.0,0.0,-0.8804,-0.8633,0.0,0.0,0.0,0.0,0.0,0.0,0.0,0.0,0.0,0.0,0.0,0.0,0.0,0.0,0.0,0.0,0.0,-1.0713,-1.116,-1.1429,-1.1429,-1.1849,-1.1994,-1.1718,-1.1665,-1.1607,-1.135,-1.1336,-1.1246,-1.1264,-1.1264,-1.1368,-1.1553,-1.1553,-1.1652,-1.1817,-1.1817,-1.2024,-1.2339,-1.257,-1.289,-1.3251,-1.3907,-1.4196,-1.4196,-1.4196,-1.4196,-1.4196,-1.1194,-1.1303,-1.1553,-1.2003,-1.224,-1.2498,-1.2935,-1.3407,-1.3908,-1.4576,-1.4904,-1.5231,0.0,0.0,0.0,0.0,0.0,-1.4836,0.0,0.0,-1.3274,-1.2698,-1.1826,-1.1122,-1.0805,-1.0214,-0.9812,-0.9606,-0.9249,-0.8973,-0.8675,-0.8521,-0.8447,0.0,-0.8588,0.0,-0.9215,0.0,0.0,0.0,0.0,0.0,0.0,-1.2369,-1.2933,-1.3486,-1.4033,-1.3851,-1.3314,0.0,-1.2373,0.0,0.0,0.0,0.0,0.0,0.0,0.0,0.0,0.0,0.0,0.0,0.0,0.0,0.0,0.0,-0.8752,0.0,0.0,0.0,0.0,0.0,0.0,0.0,0.0,0.0,0.0,0.0,0.0,0.0,0.0,0.0,0.0,0.0,0.0,0.0,0.0,-1.0851,-1.0851,-1.1386,-1.1467,-1.1112,-1.1268,-1.1328,-1.1086,-1.1077,-1.108,-1.1194,-1.1194,-1.1241,-1.1331,-1.1331,-1.1378,-1.1458,-1.1458,-1.1659,-1.1969,-1.2304,-1.2557,-1.2903,-1.3682,-1.3976,-1.3997,-1.4137,-1.4196,-1.4196,-1.134,-1.1547,-1.1826,0.0,0.0,0.0,0.0,0.0,0.0,0.0,0.0,0.0,-1.6429,-1.6478,0.0,0.0,-1.6281,-1.59,0.0,0.0,-1.4228,0.0,0.0,0.0,0.0,-1.0839,-1.0326,-1.006,-0.9705,-0.9324,-0.8873,-0.8716,-0.8633,-0.8532,0.0,-0.9144,-0.9565,0.0,0.0,-1.1161,-1.1495,-1.1908,-1.2353,-1.2648,-1.3032,-1.3423,-1.3859,-1.3697,-1.3308,-1.2836,-1.2438,0.0,-1.1794,0.0,0.0,0.0,0.0,0.0,-1.102,0.0,0.0,0.0,0.0,0.0,0.0,0.0,0.0,0.0,0.0,0.0,0.0,0.0,0.0,0.0,0.0,0.0,0.0,0.0,0.0,0.0,0.0,0.0,0.0,0.0,0.0,0.0,-1.0169,0.0,-1.0439,-1.0808,-1.0931,-1.0565,-1.0934,-1.0968,-1.0726,-1.0839,-1.0967,-1.1113,-1.1165,-1.1194,-1.1194,-1.1194,-1.1194,-1.1194,-1.1194,-1.1292,-1.1502,-1.2063,-1.2323,-1.2547,-1.3362,-1.3663,-1.3766,-1.4078,-1.4196,-1.4196,-1.1708,-1.1671,0.0,0.0,0.0,0.0,0.0,0.0,0.0,0.0,0.0,0.0,0.0,0.0,0.0,0.0,0.0,-1.6862,-1.6844,0.0,-1.5052,0.0,0.0,-1.3284,0.0,0.0,-1.1283,-1.1266,-1.0403,-0.9717,-0.9271,-0.9142,-0.9012,-0.8889,-0.8897,-0.9279,-0.993,-1.0295,-1.0844,-1.1503,-1.186,-1.2425,-1.3092,0.0,-1.3392,-1.3529,-1.3742,0.0,0.0,-1.3104,-1.2775,0.0,0.0,0.0,0.0,0.0,0.0,0.0,0.0,0.0,0.0,-1.0395,0.0,0.0,0.0,0.0,-0.8699,0.0,0.0,0.0,0.0,0.0,-0.7794,-0.7574,0.0,0.0,0.0,0.0,0.0,0.0,0.0,0.0,0.0,0.0,0.0,0.0,-0.9669,0.0,-0.9943,-1.0396,-1.0516,-1.0317,-1.0469,-1.0524,-1.0291,-1.0693,-1.0896,-1.091,-1.1104,-1.1194,-1.1194,-1.1194,-1.1194,-1.1194,-1.1194,-1.1194,-1.1292,-1.179,-1.1991,-1.2109,-1.2835,-1.3276,-1.355,-1.4019,-1.4196,-1.4196,0.0,-1.2513,0.0,0.0,0.0,0.0,0.0,-1.5141,0.0,0.0,0.0,0.0,0.0,0.0,-1.8322,0.0,0.0,-1.7715,-1.7715,-1.6806,0.0,0.0,0.0,-1.3848,0.0,0.0,-1.2029,-1.1326,-1.1019,-1.0479,-0.9743,-0.9608,-0.9473,-0.9353,0.0,-0.9708,0.0,0.0,0.0,0.0,0.0,-1.2735,-1.3251,0.0,0.0,-1.3544,-1.375,-1.3645,0.0,-1.3119,-1.2797,-1.2467,-1.2138,-1.1816,-1.1622,-1.1622,-1.1498,0.0,0.0,0.0,-1.0671,-1.0289,0.0,0.0,0.0,0.0,0.0,0.0,0.0,0.0,0.0,0.0,-0.7848,-0.7676,-0.7568,-0.7413,0.0,0.0,0.0,0.0,0.0,0.0,0.0,0.0,0.0,-0.8748,-0.9179,-0.9518,0.0,-0.9992,-1.0037,-0.9862,-1.0236,-1.0282,-1.006,-1.0343,-1.0622,-1.0896,-1.0967,-1.1066,-1.1194,-1.1194,-1.1194,-1.1194,-1.1194,-1.1194,-1.1194,-1.1785,-1.198,-1.2098,-1.2814,-1.3157,-1.3287,-1.3771,-1.4051,-1.4196,-1.3026,0.0,0.0,0.0,0.0,0.0,0.0,0.0,0.0,0.0,-1.7599,0.0,-1.8213,0.0,-1.8984,0.0,-1.862,-1.8405,-1.8339,-1.7633,0.0,-1.6508,-1.5641,0.0,0.0,0.0,0.0,-1.167,-1.1541,-1.1038,-1.0157,-1.0018,-0.9886,-0.98,0.0,-0.9994,-1.016,0.0,-1.1296,0.0,0.0,-1.2853,0.0,0.0,-1.3355,0.0,0.0,-1.3645,-1.3462,-1.325,-1.2884,-1.2482,-1.2277,-1.1911,-1.1622,-1.1622,-1.1435,-1.124,-1.1122,-1.0933,0.0,0.0,-1.0194,0.0,-0.9639,0.0,0.0,0.0,0.0,0.0,0.0,0.0,-0.7842,-0.7723,-0.7622,-0.7521,0.0,-0.7198,0.0,0.0,0.0,0.0,0.0,0.0,-0.8296,-0.8377,-0.8743,-0.9066,0.0,0.0,-0.9679,-0.9524,-0.9963,-1.005,-0.9838,-1.013,-1.0409,-1.0679,-1.0825,-1.0962,-1.109,-1.1161,-1.1194,-1.1194,-1.1194,-1.1194,-1.1194,-1.1683,-1.1878,-1.2088,-1.2625,-1.2934,-1.3163,-1.3642,-1.3976,-1.4196,0.0,0.0,0.0,0.0,-1.3983,0.0,0.0,0.0,-1.6477,0.0,-1.7994,-1.8232,-1.8652,-1.9251,-1.9611,-1.9392,-1.9172,0.0,-1.877,-1.8403,0.0,0.0,-1.6544,-1.5863,-1.4539,0.0,0.0,0.0,0.0,-1.1379,-1.0553,-1.0391,-1.0286,0.0,-0.9995,0.0,-1.0561,-1.1201,-1.1511,-1.1598,-1.235,-1.2853,-1.3274,-1.3065,0.0,-1.379,-1.3572,-1.3492,-1.3492,-1.3492,-1.3075,-1.2541,-1.2526,-1.2087,-1.1645,-1.163,-1.1435,-1.124,-1.1122,-1.0933,-1.0744,-1.0618,0.0,0.0,0.0,0.0,-0.9167,0.0,0.0,0.0,0.0,0.0,0.0,-0.7723,-0.7723,-0.7622,-0.7311,0.0,0.0,0.0,0.0,0.0,0.0,-0.7645,-0.7876,-0.8158,-0.835,-0.8597,0.0,0.0,0.0,-0.9296,-0.9647,-0.9823,-0.963,-1.0036,-1.0253,-1.0277,-1.0679,-1.0877,-1.0905,-1.1094,-1.1184,-1.1194,-1.1194,-1.1194,-1.1194,-1.1487,-1.178,-1.2078,-1.2273,-1.2713,-1.3179,-1.3647,-1.3976,-1.4196,-1.4548,-1.4736,-1.5033,0.0,-1.5745,-1.597,0.0,0.0,0.0,0.0,-1.8705,-1.9121,-1.9541,-2.012,-2.0483,-2.0254,-2.0376,0.0,0.0,0.0,0.0,-1.7956,-1.7306,-1.6581,-1.5711,-1.4963,0.0,-1.322,0.0,0.0,-1.1438,-1.1057,0.0,0.0,0.0,0.0,-1.0561,-1.1201,-1.1797,-1.2305,-1.2549,-1.2789,0.0,0.0,-1.3207,-1.3572,-1.3492,-1.3492,-1.3492,-1.3492,-1.3221,-1.284,-1.2599,-1.2241,-1.1867,-1.1633,-1.1373,-1.1122,-1.1122,-1.0877,-1.0624,-1.0624,-1.0564,-1.0388,0.0,0.0,0.0,0.0,0.0,0.0,0.0,0.0,0.0,-0.7842,-0.7783,-0.7622,0.0,0.0,0.0,0.0,0.0,0.0,0.0,0.0,-0.7506,-0.7623,-0.8011,0.0,0.0,0.0,0.0,-0.929,-0.9428,-0.9523,-0.9582,-0.9762,-0.9965,-1.0277,-1.0381,-1.0594,-1.0896,-1.0948,-1.1052,-1.1194,-1.1194,-1.1194,-1.1194,-1.1487,-1.178,-1.2078,-1.2273,-1.2819,-1.3416,-1.3712,-1.3976,-1.4196,-1.5421,0.0,0.0,-1.6337,0.0,0.0,-1.7253,0.0,0.0,-1.8781,-1.9249,0.0,-2.0156,-2.0732,-2.1047,-2.0986,-2.1049,0.0,0.0,0.0,0.0,-1.8816,-1.8131,-1.7315,-1.636,-1.5771,0.0,-1.364,0.0,0.0,-1.178,0.0,0.0,0.0,0.0,-1.0624,0.0,-1.1201,-1.1908,-1.2621,-1.2621,0.0,0.0,-1.3065,-1.3277,-1.3645,-1.3499,-1.3492,-1.3492,-1.3492,-1.3279,-1.295,-1.2621,-1.2299,-1.197,-1.1655,-1.1373,-1.1185,-1.1122,-1.087,-1.0681,-1.0624,-1.0624,-1.0577,-1.0347,-1.0207,-1.0013,0.0,0.0,0.0,0.0,0.0,0.0,-0.7919,0.0,0.0,0.0,0.0,0.0,0.0,0.0,0.0,0.0,0.0,0.0,0.0,0.0,0.0,0.0,0.0,0.0,-0.9118,-0.9229,-0.9383,-0.9582,-0.9628,-0.9809,-1.0135,-1.023,-1.0442,-1.0759,-1.0853,-1.1005,-1.1194,-1.1194,-1.1194,-1.1194,-1.1389,-1.1585,-1.1878,-1.2273,-1.2856,-1.3491,-1.3626,-1.3895,-1.4196,0.0,0.0,0.0,0.0,0.0,0.0,0.0,-1.8619,0.0,-1.9324,0.0,-2.0166,-2.0605,-2.1103,-2.1461,-2.1553,0.0,-2.124,-2.1025,-2.0311,-1.9824,-1.9402,-1.8788,-1.7959,-1.6872,-1.6395,0.0,0.0,0.0,0.0,-1.1856,0.0,0.0,0.0,0.0,0.0,0.0,-1.1289,-1.1948,0.0,-1.2621,-1.2853,-1.3274,-1.3065,-1.3346,-1.379,-1.3572,-1.3492,-1.3492,-1.3492,-1.3309,-1.3009,-1.2636,-1.2328,-1.2028,-1.167,-1.1435,-1.124,-1.1185,-1.0996,-1.0744,-1.0681,-1.0624,-1.0624,-1.0624,-1.0361,-1.0113,-0.9997,-0.9635,0.0,0.0,0.0,0.0,0.0,0.0,0.0,0.0,0.0,0.0,0.0,0.0,0.0,0.0,0.0,0.0,0.0,0.0,0.0,0.0,0.0,0.0,0.0,-0.9175,0.0,-0.9663,0.0,-0.9724,-1.0043,-1.0145,-1.0338,-1.0542,-1.0759,-1.0962,-1.1156,-1.1184,-1.1194,-1.1194,-1.1194,-1.1389,-1.1688,-1.2175,-1.2856,-1.3475,-1.348,-1.3782,-1.4196,0.0,0.0,0.0,0.0,0.0,-1.9199,-1.9955,-1.9622,-1.9525,-2.0199,-2.0546,0.0,-2.1074,-2.1816,-2.224,-2.2063,-2.2111,0.0,0.0,0.0,0.0,-1.9833,-1.903,-1.8297,-1.7604,-1.6964,-1.5958,0.0,0.0,0.0,-1.2286,0.0,0.0,0.0,0.0,0.0,-1.1336,-1.1749,0.0,-1.2621,-1.2621,-1.2853,-1.3274,-1.3065,-1.3346,-1.379,-1.3572,-1.3492,-1.3492,-1.3492,-1.3455,-1.3309,-1.2709,-1.2482,-1.2321,-1.1736,-1.1435,-1.1303,-1.124,-1.1059,-1.08,-1.0744,-1.0681,-1.0624,-1.0624,-1.0521,-1.0481,-1.0481,-1.0124,-0.9726,-0.968,0.0,0.0,0.0,0.0,0.0,0.0,0.0,0.0,0.0,0.0,0.0,0.0,0.0,0.0,0.0,0.0,0.0,0.0,0.0,0.0,0.0,0.0,0.0,0.0,0.0,0.0,-1.0038,-1.0076,-1.0121,-1.0334,-1.0537,-1.0745,-1.0957,-1.1123,-1.1194,-1.1194,-1.1194,-1.1389,-1.1688,-1.2175,-1.2757,-1.3167,-1.3378,-1.3782,-1.4196,0.0,0.0,0.0,0.0,0.0,0.0,0.0,-2.0731,0.0,-2.0974,-2.1121,-2.1411,-2.2001,-2.235,-2.2522,-2.265,-2.2591,-2.2444,-2.1973,-2.1398,-2.0819,-2.0255,-1.9659,0.0,-1.8279,-1.7614,-1.6776,-1.5657,0.0,0.0,-1.2963,0.0,0.0,-1.1646,0.0,-1.1501,0.0,0.0,0.0,-1.2645,-1.2758,-1.3075,-1.3483,-1.3452,-1.363,-1.3928,-1.3717,-1.3572,-1.3492,-1.3492,-1.3492,-1.3382,-1.2731,-1.2519,-1.2394,-1.175,-1.156,-1.1435,-1.1303,-1.1178,-1.0989,-1.0863,-1.0744,-1.0688,-1.0624,-1.0624,-1.0624,-1.0624,-1.0322,-1.006,-0.9849,-0.9231,0.0,0.0,0.0,0.0,0.0,0.0,0.0,0.0,0.0,0.0,0.0,0.0,0.0,0.0,0.0,0.0,0.0,0.0,0.0,0.0,0.0,0.0,0.0,0.0,0.0,-0.9961,-0.9986,-1.0152,-1.0282,-1.048,-1.0693,-1.0905,-1.1109,-1.1194,-1.1194,-1.1194,-1.1389,-1.1683,-1.2078,-1.2552,-1.3167,-1.3372,-1.3782,-1.4196,0.0,-1.9404,0.0,0.0,-2.017,0.0,0.0,-2.1714,-2.1876,-2.1655,-2.1809,-2.2096,-2.279,-2.2768,-2.2783,-2.3105,-2.2882,-2.2706,-2.253,-2.187,-2.1191,-2.0624,-2.0145,-1.9549,-1.8733,-1.8161,-1.7424,0.0,0.0,0.0,0.0,0.0,0.0,0.0,0.0,0.0,0.0,0.0,-1.2345,-1.2703,-1.2973,-1.333,-1.3727,-1.3791,-1.3971,-1.4137,-1.3863,-1.3717,-1.3572,-1.3499,-1.3492,-1.3382,-1.2731,-1.2519,-1.2394,-1.175,-1.1622,-1.156,-1.1428,-1.1303,-1.1247,-1.0989,-1.087,-1.0744,-1.0688,-1.0624,-1.0624,-1.0624,-1.0498,-1.0216,-0.982,-0.9455,0.0,0.0,0.0,0.0,0.0,0.0,0.0,0.0,0.0,0.0,0.0,0.0,0.0,0.0,0.0,0.0,0.0,0.0,0.0,0.0,0.0,0.0,-0.987,0.0,-0.9771,0.0,-1.0024,-1.0129,-1.0216,-1.0461,-1.0664,-1.0839,-1.109,-1.1194,-1.1194,-1.1194,-1.1292,-1.159,-1.1835,-1.2399,-1.2967,-1.3323,-1.3609,-1.3975,0.0,0.0,0.0,0.0,0.0,0.0,0.0,-2.2408,-2.236,-2.2124,-2.2625,-2.3022,-2.2944,-2.3034,-2.3096,-2.3135,-2.2882,-2.2803,-2.2803,-2.1957,-2.1286,-2.0876,-2.0228,-1.9549,-1.8733,-1.832,-1.7579,0.0,0.0,0.0,0.0,0.0,0.0,0.0,0.0,0.0,0.0,-1.2498,-1.2718,-1.3044,-1.3076,-1.3481,-1.4061,-1.3885,-1.4042,-1.4353,-1.3935,-1.379,-1.3717,-1.3572,-1.3492,-1.3382,-1.2731,-1.2519,-1.2394,-1.175,-1.1622,-1.1622,-1.156,-1.1428,-1.1303,-1.124,-1.0989,-1.0807,-1.0807,-1.0688,-1.0624,-1.0624,-1.0561,-1.0405,-0.9936,-0.9858,-0.9693,0.0,0.0,0.0,0.0,0.0,0.0,0.0,0.0,0.0,0.0,0.0,0.0,0.0,0.0,0.0,0.0,0.0,0.0,0.0,0.0,-0.94,-0.987,-1.0113,0.0,-0.9897,-1.0191,-1.0217,-1.0086,-1.039,-1.0584,-1.0627,-1.1023,-1.1194,-1.1194,-1.1194,-1.1194,-1.1311,-1.171,-1.2136,-1.2467,-1.287,-1.3209,-1.3423,0.0,0.0,0.0,0.0,0.0,0.0,0.0,-2.2967,-2.3329,-2.3247,-2.3308,-2.3372,-2.3473,-2.3394,-2.3319,-2.3135,-2.3057,-2.2969,-2.2794,-2.2456,-2.1892,-2.0978,-2.0625,-2.007,-1.9081,-1.8449,-1.7889,0.0,0.0,0.0,0.0,0.0,0.0,0.0,0.0,-1.283,-1.2927,-1.2885,-1.3076,-1.3402,-1.3616,-1.387,-1.4132,-1.4206,-1.43,-1.4361,-1.4072,-1.3928,-1.379,-1.3572,-1.3492,-1.3411,-1.2958,-1.268,-1.2431,-1.1977,-1.1714,-1.1622,-1.1622,-1.156,-1.1435,-1.1303,-1.1178,-1.1052,-1.087,-1.0744,-1.0681,-1.0624,-1.0624,-1.0521,-1.0345,-1.02,-1.0092,0.0,0.0,0.0,0.0,0.0,0.0,0.0,0.0,0.0,0.0,0.0,0.0,0.0,0.0,0.0,0.0,0.0,0.0,-0.9174,0.0,-0.9408,-0.9898,-1.0205,-1.0279,-1.0125,-1.0218,-1.0294,-1.0222,-1.0472,-1.0712,-1.0957,-1.1123,-1.1194,-1.1194,-1.1194,-1.1194,-1.1217,-1.1734,-1.205,-1.2368,-1.2785,-1.3118,-1.3315,-2.1718,0.0,-2.1945,0.0,-2.2286,-2.2594,-2.2863,-2.3453,-2.3929,-2.4053,-2.3895,-2.3839,-2.38,-2.358,-2.3406,-2.3135,-2.3135,-2.3057,-2.2882,-2.2688,-2.2122,-2.1053,-2.0828,0.0,-1.932,-1.8641,-1.8163,-1.7886,-1.6589,0.0,0.0,0.0,0.0,0.0,-1.3497,-1.3449,-1.3558,-1.3372,-1.3499,-1.3759,-1.4013,-1.4172,-1.4291,-1.4546,-1.4569,-1.4425,-1.4281,-1.4065,-1.3855,-1.3645,-1.3564,-1.344,-1.3111,-1.2848,-1.2584,-1.216,-1.1875,-1.1677,-1.1645,-1.1622,-1.156,-1.1435,-1.1373,-1.124,-1.0926,-1.087,-1.0744,-1.0624,-1.0624,-1.0624,-1.0624,-1.0498,-1.0371,0.0,0.0,0.0,0.0,0.0,0.0,0.0,0.0,-0.8546,-0.8411,0.0,0.0,0.0,0.0,0.0,0.0,0.0,0.0,0.0,0.0,0.0,0.0,0.0,-1.0426,-1.0418,-1.0464,-1.0472,-1.0309,-1.0472,-1.0801,-1.1194,-1.1194,-1.1194,-1.1194,-1.1194,-1.1194,-1.1217,-1.1635,-1.1948,-1.2156,-1.258,-1.2904,-1.2989,-2.2053,-2.2221,-2.2465,-2.2709,-2.2647,-2.2801,-2.3722,-2.3867,-2.4033,-2.4478,-2.4444,-2.4272,-2.3841,-2.358,-2.3406,-2.3135,-2.3135,-2.3135,-2.3135,-2.2495,-2.1901,0.0,0.0,-1.9894,-1.9311,-1.8907,-1.8513,-1.8128,0.0,0.0,-1.5748,0.0,-1.4675,-1.4667,-1.4461,-1.4255,-1.4049,-1.3924,-1.3993,-1.4109,-1.4109,-1.4323,-1.4561,-1.4569,-1.4569,-1.4569,-1.4425,-1.4281,-1.4057,-1.3863,-1.3645,-1.344,-1.3111,-1.3001,-1.2877,-1.2226,-1.2028,-1.1963,-1.1648,-1.1622,-1.1622,-1.1622,-1.1435,-1.124,-1.1122,-1.0933,-1.0744,-1.0624,-1.0624,-1.0624,-1.0624,-1.0624,-1.0624,-1.0624,0.0,0.0,0.0,0.0,0.0,0.0,-0.9364,-0.9198,-0.8757,0.0,0.0,0.0,0.0,0.0,0.0,0.0,0.0,-0.9486,-0.9281,0.0,-1.0283,-1.0519,-1.0587,-1.0564,-1.0893,-1.0743,-1.0309,-1.0472,-1.0801,-1.1194,-1.1194,-1.1194,-1.1194,-1.1194,-1.1194,-1.1217,-1.1435,-1.1642,-1.1841,-1.2063,-1.2266,-1.2441,-2.255,-2.2713,-2.2857,-2.2783,-2.3179,-2.3536,-2.3836,-2.4136,-2.4385,-2.4519,-2.454,-2.4368,-2.411,-2.3841,-2.358,0.0,-2.3232,-2.3018,0.0,-2.2502,-2.202,-2.1029,-2.0642,-2.0136,-1.9487,-1.8994,-1.865,-1.8522,0.0,0.0,0.0,-1.5238,-1.4915,-1.4684,-1.4478,-1.4463,-1.4622,-1.4359,-1.4364,-1.4616,-1.4474,-1.4466,-1.4569,-1.4569,-1.4569,-1.4569,-1.4433,-1.4281,-1.4057,-1.3863,-1.3645,-1.3477,-1.3375,-1.3184,-1.2965,-1.276,-1.2387,-1.2014,-1.1911,-1.1728,-1.1622,-1.1622,-1.156,-1.1435,-1.131,-1.0996,-1.0744,-1.0624,-1.0624,-1.0624,-1.0624,-1.0624,-1.0624,-1.0624,0.0,0.0,0.0,0.0,0.0,0.0,0.0,-0.9339,0.0,-0.8901,0.0,0.0,0.0,0.0,0.0,0.0,0.0,0.0,-0.9449,0.0,-1.0288,-1.0519,-1.0669,-1.0899,-1.0979,-1.0901,-1.0739,-1.0758,-1.0943,-1.1194,-1.1194,-1.1194,-1.1194,-1.1194,-1.1194,-1.1217,-1.1435,-1.1638,-1.1846,-1.2058,-1.2266,-1.2441,-2.2864,-2.299,-2.3144,-2.3186,-2.3576,-2.3929,-2.4105,-2.4364,-2.454,-2.454,-2.454,-2.4392,-2.4142,-2.378,0.0,-2.3265,-2.2997,0.0,-2.2305,-2.2129,-2.1705,-2.0909,-2.0575,-2.0137,-1.9645,0.0,0.0,-1.8715,-1.7613,-1.6688,-1.5939,-1.5575,-1.5317,-1.5103,-1.4959,-1.501,-1.5144,-1.4796,-1.4795,-1.4872,-1.4713,-1.4569,-1.4569,-1.4569,-1.4569,-1.4569,-1.4497,-1.4353,-1.4209,-1.4,-1.379,-1.3572,-1.3492,-1.336,-1.317,-1.3045,-1.2716,-1.235,-1.2102,-1.1889,-1.1714,-1.1659,-1.1622,-1.156,-1.131,-1.0989,-1.0744,-1.0624,-1.0624,-1.0624,-1.0624,-1.0624,-1.0624,-1.0624,0.0,-1.0561,0.0,0.0,0.0,0.0,0.0,0.0,0.0,-0.926,0.0,0.0,0.0,0.0,0.0,0.0,0.0,-0.9561,-0.9669,0.0,-1.0417,-1.0562,-1.0799,-1.1122,-1.111,-1.1148,-1.1037,-1.108,-1.1101,-1.1194,-1.1194,-1.1194,-1.1194,-1.1194,-1.1194,-1.1208,-1.1345,-1.1524,-1.1728,-1.194,-1.2148,-1.2337,-2.3097,-2.3136,0.0,0.0,-2.3908,0.0,-2.4478,-2.454,-2.4529,-2.4498,-2.4498,-2.4322,-2.3877,-2.3398,-2.3052,-2.2864,0.0,0.0,0.0,-2.1455,-2.1131,-2.0922,-2.0229,0.0,-1.9636,-1.939,-1.9109,-1.8715,-1.7584,-1.7007,-1.6771,-1.6188,-1.5865,-1.584,-1.584,-1.5752,-1.5505,-1.5275,-1.507,-1.4864,-1.4713,-1.4641,-1.4569,-1.4569,-1.4569,-1.4569,-1.4569,-1.4497,-1.4353,-1.4209,-1.4,-1.379,-1.3572,-1.3492,-1.3433,-1.3133,-1.3023,-1.2877,-1.2262,-1.2022,-1.1992,-1.1699,-1.1626,-1.1563,-1.1248,-1.1059,-1.0869,-1.0685,-1.0672,-1.0651,-1.0651,-1.0638,-1.0624,-1.0624,-1.0624,-1.0624,-1.0624,0.0,0.0,0.0,0.0,0.0,0.0,-0.9823,-0.9765,0.0,0.0,0.0,0.0,0.0,-0.9775,-0.9723,-0.9852,-1.0176,-1.0632,-1.0654,-1.0808,-1.1267,-1.1342,-1.1387,-1.1313,-1.1283,-1.1308,-1.1194,-1.1194,-1.1194,-1.1194,-1.1194,-1.1194,-1.1194,-1.1194,-1.1326,-1.1539,-1.1728,-1.1935,-1.2143,0.0,0.0,-2.3758,-2.4105,-2.4241,-2.4416,-2.4529,-2.454,-2.4416,-2.4074,-2.4033,-2.3857,-2.3401,-2.293,-2.2553,-2.214,-2.2093,-2.1855,-2.1416,-2.1289,-2.1074,-2.0654,-2.0156,-1.9863,-1.9872,-1.946,-1.9109,-1.8715,-1.8285,-1.7814,-1.7305,-1.6985,-1.6638,-1.6297,-1.6208,-1.5982,-1.5726,-1.5505,-1.5284,-1.5133,-1.4935,-1.4713,-1.4569,-1.4569,-1.4569,-1.4569,-1.4569,-1.4497,-1.4353,-1.4209,-1.4,-1.379,-1.3572,-1.3492,-1.3477,-1.3404,-1.3206,-1.298,-1.2819,-1.2592,-1.2387,-1.2314,-1.2292,-1.2225,-1.2033,-1.1833,-1.1692,-1.1491,-1.1181,-1.0895,-1.0895,-1.0708,-1.0624,-1.0624,-1.0624,-1.0624,-1.0624,0.0,0.0,0.0,-1.0371,-1.0238,-0.9989,-1.0055,-1.0042,0.0,0.0,0.0,0.0,0.0,-1.0355,-0.9984,-1.0276,-1.0523,-1.0632,-1.081,-1.1052,-1.1267,-1.15,-1.1532,-1.1318,-1.1436,-1.1444,-1.1194,-1.1194,-1.1194,-1.1194,-1.1194,-1.1194,-1.1194,-1.1194,-1.1326,-1.1524,-1.1572,-1.1718,-1.1898,-2.3328,-2.3474,-2.3568,-2.3801,-2.3929,-2.3919,-2.3919,-2.3919,-2.3836,-2.3598,-2.3567,-2.3391,-2.2925,-2.2543,-2.213,-2.1617,-2.1579,-2.1396,-2.0957,-2.0928,-2.082,-2.0576,-2.0255,-2.0029,-1.9863,-1.9627,-1.9279,-1.8981,-1.8556,-1.8204,-1.7778,-1.7366,-1.7024,-1.661,-1.6602,-1.649,-1.6302,-1.5905,-1.5694,-1.5596,-1.5072,-1.4864,-1.4721,-1.4641,-1.4569,-1.4569,-1.4569,-1.4569,-1.4497,-1.4281,-1.4065,-1.3928,-1.3717,-1.3572,-1.3492,-1.3492,-1.3367,-1.3199,-1.3045,-1.2877,-1.2709,-1.2555,-1.2519,-1.2458,-1.2323,-1.2187,-1.2044,-1.1771,-1.1506,-1.1256,-1.1189,-1.0955,-1.0755,-1.0755,-1.0712,-1.0624,-1.0624,-1.0624,0.0,-1.0624,-1.0498,-1.0424,-1.0354,-1.0312,-1.025,-1.0245,0.0,0.0,-1.0508,-1.0755,-1.0627,-1.0153,-1.0492,-1.0717,-1.0632,-1.0977,-1.1219,-1.1267,-1.1536,-1.1577,-1.1318,-1.1477,-1.1497,-1.1194,-1.1194,-1.1194,-1.1194,-1.1194,-1.1194,-1.1194,-1.1194,-1.1269,-1.1383,-1.1482,-1.1586,-1.1694,-2.3405,-2.327,-2.3264,-2.3503,-2.3426,-2.3265,-2.3265,-2.3184,-2.3163,-2.3091,-2.308,-2.2904,-2.2439,-2.2241,-2.1852,-2.1312,-2.1164,-2.0977,-2.0586,-2.0566,-2.0566,-2.0566,-2.042,-2.0186,-1.9942,-1.9636,-1.9469,-1.9301,-1.8797,-1.8401,-1.8246,-1.7687,-1.7351,-1.7004,-1.7004,-1.697,-1.6901,-1.6436,-1.6201,-1.6052,-1.5363,-1.4992,-1.4872,-1.4713,-1.4641,-1.4569,-1.4569,-1.4569,-1.4569,-1.4433,-1.4281,-1.4137,-1.3928,-1.3717,-1.3564,-1.3564,-1.3492,-1.3433,-1.3155,-1.3082,-1.3016,-1.2738,-1.2665,-1.2604,-1.2535,-1.2467,-1.2329,-1.1978,-1.1868,-1.1772,-1.1559,-1.1323,-1.1108,-1.1002,-1.0788,-1.0672,-1.0631,0.0,-1.0645,-1.0685,-1.0692,-1.067,-1.0764,-1.0629,-1.0547,-1.0647,-1.07,0.0,0.0,-1.1027,-1.0926,-1.0267,-1.0718,-1.0869,-1.074,-1.1064,-1.1262,-1.1267,-1.1591,-1.1547,-1.1313,-1.1546,-1.148,-1.1194,-1.1194,-1.1194,-1.1194,-1.1194,-1.1194,-1.1194,-1.1194,-1.1194,-1.1217,-1.1401,-1.1468,-1.1491,-2.3558,-2.3502,-2.3498,-2.3902,-2.3668,-2.3426,-2.3426,-2.3346,-2.3049,-2.2656,-2.2604,-2.2428,-2.1963,-2.1768,-2.1584,-2.1436,-2.1121,-2.081,-2.0644,-2.0566,-2.0566,-2.0566,-2.042,-2.0186,-1.9942,-1.9548,-1.9301,-1.9301,-1.9237,-1.9052,-1.8824,-1.8761,-1.8328,-1.7631,-1.7631,-1.7372,-1.691,-1.6783,-1.6504,-1.6077,-1.5945,-1.551,-1.4872,-1.4864,-1.4721,-1.4569,-1.4569,-1.4569,-1.4569,-1.4433,-1.4361,-1.4353,-1.4137,-1.3928,-1.3725,-1.3725,-1.3645,-1.3484,-1.3433,-1.3418,-1.3404,-1.336,-1.3345,-1.3345,-1.3345,-1.3201,-1.3049,-1.2977,-1.2621,-1.2298,-1.2086,-1.184,-1.1485,-1.1029,-1.0955,-1.0842,-1.0658,0.0,-1.0648,-1.0895,-1.0922,-1.0976,-1.1132,-1.1172,-1.1114,-1.0945,-1.0973,-1.1051,-1.1051,-1.1317,-1.1295,-1.1023,-1.1146,-1.1198,-1.115,-1.1225,-1.1262,-1.1267,-1.1591,-1.1547,-1.1313,-1.1546,-1.148,-1.1194,-1.1194,-1.1194,-1.1194,-1.1194,-1.1194,-1.1194,-1.1194,-1.1194,-1.1198,-1.1231,-1.1246,-1.125,-2.3296,-2.3188,-2.3102,-2.3328,-2.3139,-2.2907,-2.2751,-2.2673,-2.2522,-2.2149,-2.2128,-2.2045,-2.1828,-2.1731,-2.1655,-2.1502,-2.1359,-2.1128,-2.0964,-2.0722,-2.0566,-2.0566,-2.0489,-2.0255,-1.9942,-1.9627,-1.939,-1.9301,-1.9301,-1.9231,-1.9002,-1.9002,-1.8753,-1.8268,-1.818,-1.8005,-1.7666,-1.7381,-1.6928,-1.6504,-1.6235,-1.5777,-1.5221,-1.5007,-1.4864,-1.4721,-1.4641,-1.4569,-1.4569,-1.4497,-1.4425,-1.4361,-1.4281,-1.4137,-1.3928,-1.3928,-1.371,-1.3492,-1.3492,-1.3492,-1.3492,-1.3492,-1.3492,-1.3492,-1.3492,-1.3419,-1.3346,-1.3193,-1.3006,-1.2834,-1.2618,-1.2219,-1.1902,-1.1696,-1.1397,0.0,0.0,-1.1022,-1.1076,-1.1209,-1.1229,-1.1343,-1.1567,-1.1507,-1.1429,-1.1357,-1.1341,-1.1253,-1.1329,-1.1461,-1.1504,-1.1623,-1.1415,-1.1238,-1.1262,-1.1262,-1.1262,-1.1262,-1.1462,-1.1368,-1.1141,-1.1364,-1.1308,-1.1042,-1.1146,-1.1194,-1.1194,-1.1194,-1.1194,-1.1194,-1.1194,-1.1194,-1.1194,-1.1194,-1.1194,-1.1194,-2.3001,-2.2852,-2.2777,-2.2777,-2.2628,-2.2402,-2.2252,-2.2176,-2.2025,-2.1883,-2.1807,-2.1807,-2.1807,-2.1807,-2.1731,-2.1578,-2.1502,-2.1425,-2.1282,-2.0964,-2.0722,-2.0654,-2.0566,-2.0333,-2.002,-1.9715,-1.9557,-1.939,-1.9301,-1.9222,-1.9073,-1.9073,-1.8922,-1.8772,-1.8603,-1.8523,-1.8425,-1.7961,-1.7415,-1.6968,-1.6461,-1.5998,-1.5505,-1.515,-1.5007,-1.4872,-1.4721,-1.4641,-1.4569,-1.4569,-1.4497,-1.4433,-1.4433,-1.4353,-1.4209,-1.4209,-1.392,-1.3637,-1.3499,-1.3492,-1.3492,-1.3492,-1.3492,-1.3492,-1.3492,-1.3492,-1.3492,-1.3273,-1.3273,-1.32,-1.3046,-1.2704,-1.2386,-1.231,0.0,0.0,0.0,-1.1423,-1.145,-1.1523,-1.153,-1.1643,-1.1944,-1.1827,-1.1695,-1.1694,-1.1546,-1.1532,-1.1522,-1.1648,-1.1766,-1.198,-1.1573,-1.133,-1.1262,-1.1262,-1.1262,-1.1262,-1.1262,-1.121,-1.1079,-1.1212,-1.1155,-1.1001,-1.1109,-1.1194,-1.1194,-1.1194,-1.1194,-1.1194,-1.1194,-1.1194,-1.1194,-1.1194,-1.1194,-1.1194,-2.3001,-2.3001,-2.3001,-2.3001,-2.2777,-2.2703,-2.2628,-2.2327,-2.2101,-2.2101,-2.1959,-2.1807,-2.1807,-2.1807,-2.1807,-2.1807,-2.1578,-2.1502,-2.1502,-2.1282,-2.1051,-2.0906,-2.0508,-2.0342,-2.0264,-1.9794,-1.9557,-1.9566,-1.939,-1.9301,-1.9301,-1.9301,-1.9152,-1.9002,-1.8922,-1.8843,-1.8692,-1.8416,-1.7883,-1.7128,-1.696,-1.6292,-1.5505,-1.5505,-1.5221,-1.4872,-1.4872,-1.4792,-1.4569,-1.4569,-1.4569,-1.4569,-1.4569,-1.4497,-1.4361,-1.4361,-1.4209,-1.3985,-1.3564,-1.3492,-1.3492,-1.3492,-1.3492,-1.3492,-1.3492,-1.3492,-1.3492,-1.3499,-1.3499,-1.3419,-1.32,-1.3178,-1.2991,-1.2565,0.0,0.0,-1.1737,-1.1498,-1.153,-1.1804,-1.1837,-1.1951,-1.2238,-1.2117,-1.1909,-1.1706,-1.1733,-1.1664,-1.1528,-1.1992,-1.2141,-1.2003,-1.1757,-1.151,-1.1262,-1.1262,-1.1262,-1.1262,-1.1262,-1.1298,-1.1258,-1.1298,-1.1243,-1.1191,-1.1201,-1.1194,-1.1194,-1.1194,-1.1194,-1.1194,-1.1194,-1.1194,-1.1194,-1.1194,-1.1194,-1.1194,-2.315,-2.3075,-2.3001,-2.3001,-2.2927,-2.2852,-2.2703,-2.2553,-2.2402,-2.2327,-2.2101,-2.1959,-2.1959,-2.1883,-2.1807,-2.1807,-2.1731,-2.1655,-2.1655,-2.1502,-2.1205,-2.0906,-2.0654,-2.0411,-2.0264,-2.0108,-1.9951,-1.9794,-1.9548,-1.9478,-1.9478,-1.9381,-1.9222,-1.9152,-1.9073,-1.8922,-1.8843,-1.8692,-1.8074,-1.7203,-1.7136,-1.6538,-1.5655,-1.5576,-1.5434,-1.5292,-1.5141,-1.4927,-1.4792,-1.4792,-1.4721,-1.4569,-1.4569,-1.4569,-1.4497,-1.4425,-1.4353,-1.4209,-1.392,-1.3783,-1.3717,-1.3717,-1.3572,-1.3492,-1.3492,-1.3492,-1.3492,-1.3492,-1.3492,-1.3499,-1.3419,-1.3273,-1.3157,-1.2963,0.0,-1.2394,-1.2278,-1.2114,-1.2011,-1.2124,-1.2138,-1.2178,-1.2291,-1.2224,-1.2162,-1.2201,-1.2088,-1.2064,-1.2246,-1.2444,-1.2433,-1.2283,-1.2037,-1.1699,-1.1262,-1.1262,-1.1262,-1.1262,-1.1262,-1.1223,-1.1149,-1.1237,-1.1169,-1.0988,-1.1144,-1.1194,-1.1194,-1.1194,-1.1194,-1.1194,-1.1194,-1.1194,-1.1194,-1.1194,-1.1194,-1.1194,-2.3372,-2.3298,-2.315,-2.3075,-2.3075,-2.3001,-2.2852,-2.2777,-2.2628,-2.2478,-2.2327,-2.2176,-2.2176,-2.2025,-2.1883,-2.1883,-2.1807,-2.1807,-2.1807,-2.1578,-2.1359,-2.0906,-2.0741,-2.0576,-2.042,-2.0342,-2.0186,-2.0029,-1.9794,-1.9636,-1.9566,-1.9478,-1.9381,-1.9301,-1.9152,-1.9073,-1.9063,-1.8717,-1.8124,-1.7345,-1.7147,-1.6572,-1.5867,-1.5655,-1.5576,-1.5505,-1.5346,-1.5141,-1.4999,-1.4935,-1.4792,-1.4713,-1.4641,-1.4569,-1.4569,-1.4497,-1.4425,-1.4425,-1.4274,-1.4145,-1.4008,-1.3928,-1.371,-1.3572,-1.3572,-1.3564,-1.3492,-1.3492,-1.3492,-1.3492,-1.3492,-1.3419,-1.3273,-1.3273,-1.3046,-1.2746,-1.2673,-1.2526,-1.2378,-1.2305,-1.2305,-1.2305,-1.2305,-1.2385,-1.2457,-1.2523,-1.2388,-1.2456,-1.2671,-1.2693,-1.2619,-1.2448,-1.2118,-1.1785,-1.144,-1.1354,-1.1262,-1.1262,-1.1262,-1.1305,-1.121,-1.1323,-1.1344,-1.1155,-1.1236,-1.1292,-1.1194,-1.1194,-1.1194,-1.1194,-1.1194,-1.1194,-1.1194,-1.1194,-1.1194,-1.1194,-2.3593,-2.3593,-2.3519,-2.3372,-2.3298,-2.3224,-2.3001,-2.2852,-2.2703,-2.2703,-2.2553,-2.2402,-2.2402,-2.2252,-2.2101,-2.2101,-2.1959,-2.1807,-2.1807,-2.1578,-2.1359,-2.0906,-2.0906,-2.0819,-2.0644,-2.042,-2.0264,-2.0264,-2.002,-1.9794,-1.9645,-1.9566,-1.9478,-1.9301,-1.9301,-1.9301,-1.9274,-1.8656,-1.8181,-1.7766,-1.694,-1.641,-1.6061,-1.5867,-1.5655,-1.5505,-1.5505,-1.5355,-1.5204,-1.5007,-1.4872,-1.4864,-1.4641,-1.4569,-1.4569,-1.4569,-1.4569,-1.4569,-1.4569,-1.4497,-1.4353,-1.4129,-1.3928,-1.3797,-1.3797,-1.3645,-1.3492,-1.3492,-1.3492,-1.3492,-1.3492,-1.3492,-1.3492,-1.3492,-1.3346,-1.3119,-1.29,-1.2753,-1.2526,-1.2305,-1.2305,-1.2305,-1.2305,-1.2572,-1.2746,-1.2523,-1.2827,-1.2939,-1.2693,-1.2705,-1.2619,-1.2448,-1.2118,-1.1871,-1.1699,-1.144,-1.1262,-1.1262,-1.1262,-1.1472,-1.1709,-1.1663,-1.1621,-1.1572,-1.1594,-1.1487,-1.1194,-1.1194,-1.1194,-1.1194,-1.1194,-1.1194,-1.1194,-1.1194,-1.1194,-1.1194,-2.3824,-2.3677,-2.3593,-2.3519,-2.3372,-2.3298,-2.3224,-2.3075,-2.2927,-2.2927,-2.2703,-2.2628,-2.2628,-2.2402,-2.2327,-2.2327,-2.2252,-2.2176,-2.2025,-2.1807,-2.1578,-2.1359,-2.1061,-2.0906,-2.0819,-2.0576,-2.0489,-2.0489,-2.0255,-2.0186,-2.0108,-1.9872,-1.9715,-1.9478,-1.9478,-1.9321,-1.888,-1.8693,-1.817,-1.7388,-1.7126,-1.6625,-1.6061,-1.5991,-1.5859,-1.5726,-1.5726,-1.5576,-1.5426,-1.5363,-1.5213,-1.507,-1.4856,-1.4792,-1.4792,-1.4641,-1.4569,-1.4569,-1.4569,-1.4569,-1.4497,-1.4353,-1.4137,-1.3992,-1.3992,-1.3855,-1.3717,-1.3717,-1.3572,-1.3492,-1.3492,-1.3492,-1.3492,-1.3492,-1.3346,-1.32,-1.3119,-1.2826,-1.2599,-1.2526,-1.2378,-1.2385,-1.2592,-1.2768,-1.2919,-1.326,-1.3315,-1.3218,-1.296,-1.279,-1.2705,-1.2619,-1.2209,-1.1957,-1.1871,-1.1521,-1.1262,-1.1262,-1.1262,-1.1472,-1.1709,-1.1663,-1.1621,-1.1572,-1.1594,-1.1487,-1.1194,-1.1194,-1.1194,-1.1194,-1.1194,-1.1194,-1.1194,-1.1194,-1.1194,-1.1194,-2.4043,-2.3897,-2.3824,-2.3751,-2.3604,-2.3446,-2.3298,-2.3224,-2.3075,-2.3001,-2.2927,-2.2852,-2.2852,-2.2628,-2.2553,-2.2553,-2.2478,-2.2253,-2.1988,-2.1753,-2.152,-2.1195,-2.0822,-2.0691,-2.0974,-2.0819,-2.0731,-2.0731,-2.0498,-2.0342,-2.0264,-2.0098,-1.9951,-1.9706,-1.9459,-1.9167,-1.8764,-1.8366,-1.788,-1.7279,-1.7045,-1.6696,-1.6263,-1.6132,-1.6,-1.5938,-1.5797,-1.5726,-1.5576,-1.5505,-1.5355,-1.5204,-1.507,-1.4999,-1.4999,-1.4848,-1.4784,-1.4721,-1.4721,-1.4641,-1.4569,-1.4497,-1.4353,-1.4209,-1.4209,-1.4065,-1.3935,-1.379,-1.3717,-1.3572,-1.3499,-1.3492,-1.3492,-1.3492,-1.3419,-1.3273,-1.32,-1.2973,-1.2795,-1.2763,-1.2621,-1.2667,-1.2899,-1.3033,-1.33,-1.3609,-1.3471,-1.3307,-1.3143,-1.2875,-1.2705,-1.2705,-1.2369,-1.2123,-1.2043,-1.1613,-1.1435,-1.1262,-1.1262,-1.1521,-1.1844,-1.1893,-1.1859,-1.1884,-1.192,-1.1683,-1.1389,-1.1389,-1.1296,-1.1194,-1.1194,-1.1194,-1.1194,-1.1194,-1.1292,-1.1389,-2.42,-2.42,-2.4116,-2.397,-2.3897,-2.3751,-2.3372,-2.3372,-2.3224,-2.3075,-2.3001,-2.3001,-2.3001,-2.2852,-2.2703,-2.2703,-2.251,-2.2137,-2.1658,-2.1491,-2.1156,-2.0726,-2.0349,-2.0459,-2.1141,-2.0981,-2.0847,-2.0847,-2.0712,-2.0489,-2.0342,-2.0342,-2.0157,-1.9875,-1.9333,-1.9041,-1.8844,-1.7953,-1.7477,-1.7403,-1.6897,-1.6603,-1.6533,-1.6263,-1.6132,-1.6061,-1.5867,-1.5797,-1.5797,-1.5576,-1.5426,-1.5275,-1.5204,-1.5204,-1.5204,-1.5204,-1.507,-1.4935,-1.4935,-1.4792,-1.4641,-1.4641,-1.4529,-1.4464,-1.4441,-1.4281,-1.4065,-1.3863,-1.3797,-1.3717,-1.3572,-1.3499,-1.3492,-1.3492,-1.3521,-1.3462,-1.3316,-1.3264,-1.3237,-1.3051,-1.3085,-1.3138,-1.322,-1.3514,-1.3712,-1.3717,-1.3568,-1.3313,-1.3143,-1.2875,-1.2705,-1.2705,-1.2534,-1.2283,-1.2043,-1.1785,-1.1613,-1.1262,-1.1262,-1.1596,-1.214,-1.214,-1.2213,-1.237,-1.237,-1.2078,-1.1683,-1.1683,-1.1487,-1.1292,-1.1292,-1.1292,-1.1292,-1.1292,-1.1389,-1.1683,-2.42,-2.42,-2.42,-2.4116,-2.397,-2.3897,-2.3751,-2.3677,-2.3446,-2.3224,-2.3224,-2.315,-2.3001,-2.2927,-2.2927,-2.2927,-2.2431,-2.1876,-2.1414,-2.1179,-2.0973,-2.0705,-2.0634,-2.0585,-2.0576,-2.0565,-2.0532,-2.0315,-2.0661,-2.0731,-2.0566,-2.0566,-2.0236,-1.9678,-1.9516,-1.9031,-1.826,-1.7875,-1.7534,-1.7227,-1.6936,-1.6751,-1.6603,-1.6542,-1.6403,-1.6272,-1.6061,-1.5991,-1.6,-1.5797,-1.5726,-1.5647,-1.5505,-1.5426,-1.5426,-1.5275,-1.5204,-1.5133,-1.5133,-1.4999,-1.4864,-1.4864,-1.4936,-1.4917,-1.4632,-1.4425,-1.4353,-1.4289,-1.4008,-1.379,-1.3717,-1.3645,-1.3492,-1.3492,-1.3711,-1.3872,-1.3797,-1.3939,-1.3881,-1.3627,-1.3478,-1.3444,-1.352,-1.3814,-1.4015,-1.3997,-1.3652,-1.3398,-1.3313,-1.2966,-1.2705,-1.2705,-1.2534,-1.2283,-1.2043,-1.1785,-1.1613,-1.1262,-1.1262,-1.1596,-1.214,-1.214,-1.2213,-1.237,-1.237,-1.2175,-1.1878,-1.1878,-1.1883,-1.178,-1.178,-1.178,-1.178,-1.178,-1.1878,-1.1878,-2.42,-2.42,-2.42,-2.42,-2.4116,-2.397,-2.3897,-2.3824,-2.3666,-2.3446,-2.3446,-2.3372,-2.315,-2.315,-2.2988,-2.2695,-2.2154,-2.1604,-2.1138,-2.0898,-2.0653,-2.0339,-2.026,-2.0054,-1.9848,-2.0103,-2.0225,-2.0136,-2.0302,-2.0272,-2.0121,-2.0121,-1.9844,-1.9461,-1.912,-1.872,-1.8218,-1.7807,-1.7451,-1.7166,-1.7107,-1.689,-1.6751,-1.6612,-1.6533,-1.6403,-1.6272,-1.6132,-1.6061,-1.6,-1.5867,-1.5805,-1.5655,-1.5647,-1.5647,-1.5505,-1.5426,-1.5346,-1.5346,-1.5213,-1.4999,-1.4935,-1.5138,-1.5274,-1.4943,-1.4949,-1.4993,-1.4926,-1.471,-1.4561,-1.4403,-1.4253,-1.4096,-1.4096,-1.4175,-1.4216,-1.4216,-1.4277,-1.4281,-1.4186,-1.4034,-1.3844,-1.3828,-1.3995,-1.4088,-1.4088,-1.3737,-1.3483,-1.3398,-1.3052,-1.279,-1.2705,-1.2619,-1.2454,-1.2203,-1.1952,-1.1699,-1.1527,-1.1348,-1.1596,-1.214,-1.214,-1.2307,-1.2565,-1.2565,-1.2467,-1.2175,-1.2175,-1.2078,-1.198,-1.198,-1.198,-1.198,-1.198,-1.2078,-1.2175,-2.4273,-2.4189,-2.42,-2.42,-2.42,-2.4116,-2.397,-2.397,-2.3897,-2.3677,-2.3677,-2.3593,-2.3372,-2.3294,-2.2955,-2.2188,-2.1761,-2.1322,-2.084,-2.0606,-2.0355,-1.9889,-1.9736,-1.955,-1.9351,-1.9729,-1.9941,-2.0032,-1.9899,-1.9805,-1.9608,-1.9608,-1.9476,-1.9232,-1.8747,-1.8411,-1.8325,-1.7751,-1.7451,-1.7304,-1.7235,-1.7107,-1.6899,-1.6751,-1.6673,-1.6612,-1.6403,-1.6272,-1.6132,-1.6132,-1.6,-1.5867,-1.5867,-1.5867,-1.5867,-1.5797,-1.5655,-1.5576,-1.5576,-1.5426,-1.5204,-1.5007,-1.5316,-1.5551,-1.5418,-1.5559,-1.5682,-1.5466,-1.5389,-1.5312,-1.515,-1.4995,-1.4832,-1.4832,-1.4736,-1.4624,-1.4545,-1.4596,-1.4649,-1.4667,-1.4444,-1.4296,-1.4139,-1.4088,-1.4088,-1.4088,-1.3822,-1.3652,-1.3398,-1.3222,-1.2966,-1.2705,-1.2705,-1.2619,-1.2363,-1.2203,-1.1952,-1.1699,-1.144,-1.1575,-1.1989,-1.2124,-1.2285,-1.2705,-1.2748,-1.2662,-1.2467,-1.2467,-1.237,-1.2175,-1.2175,-1.2175,-1.2175,-1.2175,-1.2273,-1.2467,-2.449,-2.4345,-2.42,-2.42,-2.42,-2.42,-2.4189,-2.4127,-2.4127,-2.3897,-2.3824,-2.3751,-2.3593,-2.3151,-2.2525,-2.1632,-2.133,-2.0941,-2.0478,-2.0314,-2.0074,-1.9933,-1.9868,-1.9736,-1.9539,-1.9603,-1.9599,-1.9583,-1.989,-1.9939,-1.9795,-1.9795,-1.9513,-1.8923,-1.8863,-1.8567,-1.8027,-1.7813,-1.7638,-1.7638,-1.7304,-1.7166,-1.7166,-1.6968,-1.683,-1.683,-1.6612,-1.6403,-1.6272,-1.6272,-1.6272,-1.6202,-1.607,-1.607,-1.6,-1.5867,-1.5805,-1.5726,-1.5726,-1.5576,-1.5426,-1.5434,-1.5806,-1.616,-1.5932,-1.5803,-1.5682,-1.5682,-1.5536,-1.5389,-1.5389,-1.5235,-1.4995,-1.4832,-1.5001,-1.5115,-1.4874,-1.5123,-1.5231,-1.5018,-1.4678,-1.435,-1.4391,-1.4159,-1.4088,-1.4088,-1.3822,-1.3652,-1.3398,-1.3222,-1.2966,-1.2705,-1.2705,-1.2619,-1.2363,-1.2363,-1.2118,-1.1699,-1.1699,-1.1669,-1.1752,-1.1957,-1.2199,-1.2474,-1.2678,-1.2764,-1.2764,-1.2764,-1.2764,-1.2667,-1.2667,-1.2667,-1.2667,-1.2667,-1.2662,-1.2764,-2.4646,-2.4502,-2.4345,-2.4345,-2.4273,-2.42,-2.42,-2.42,-2.42,-2.4043,-2.4043,-2.397,-2.3824,-2.2981,-2.217,-2.1475,-2.1085,-2.0763,-2.0551,-2.0475,-2.0335,-2.0205,-2.0205,-2.0074,-1.9802,-1.9736,-1.9711,-1.9588,-1.965,-1.9538,-1.9261,-1.9261,-1.9022,-1.8694,-1.8626,-1.8448,-1.8144,-1.793,-1.7784,-1.7706,-1.7579,-1.7442,-1.7323,-1.7176,-1.7038,-1.7038,-1.683,-1.6621,-1.6473,-1.6473,-1.6412,-1.6272,-1.6202,-1.6202,-1.6202,-1.6,-1.6,-1.5929,-1.5797,-1.5726,-1.5647,-1.5505,-1.5836,-1.6138,-1.6193,-1.6228,-1.6337,-1.6301,-1.6198,-1.6118,-1.6118,-1.595,-1.579,-1.5702,-1.5589,-1.5442,-1.536,-1.5418,-1.534,-1.509,-1.4915,-1.4657,-1.4398,-1.4321,-1.4243,-1.4088,-1.3997,-1.3822,-1.3568,-1.3398,-1.3137,-1.2966,-1.279,-1.2619,-1.2534,-1.2448,-1.2277,-1.2118,-1.1952,-1.1821,-1.1704,-1.1806,-1.1984,-1.2221,-1.2463,-1.2571,-1.2576,-1.2711,-1.2764,-1.2764,-1.2764,-1.2764,-1.2764,-1.2764,-1.2764,-1.2748]},{"header":{"parameterUnit":"m.s-1","parameterCategory":1,"la1":30.6,"la2":28.766,"lo1":-90.7593,"lo2":-88.6598,"dy":0.0162,"dx":0.0183,"nx":116,"ny":114,"refTime":"2023-07-02T00:00:00:Z","depth":0,"parameterNumber":3,"parameterNumberName":"V-component_of_WINDS"},"data":[0.0,0.0,0.0,0.0,0.0,0.0,0.0,0.0,0.0,0.0,0.0,0.0,0.0,0.0,0.0,0.0,0.0,0.0,0.0,0.0,0.0,0.0,0.0,0.0,0.0,0.0,0.0,0.0,0.0,0.0,0.0,0.0,0.0,0.0,0.0,0.0,0.0,0.0,0.0,0.0,0.0,0.0,0.0,0.0,0.0,0.0,0.0,0.0,0.0,0.0,0.0,0.0,0.0,0.0,0.0,0.0,0.0,0.0,0.0,0.0,0.0,0.0,0.0,0.0,0.0,0.0,0.0,0.0,0.0,0.0,0.0,0.0,0.0,0.0,0.0,0.0,0.0,0.0,0.0,0.0,0.0,0.0,0.0,0.0,0.0,0.0,0.0,0.0,0.0,0.0,0.0,0.0,0.0,0.0,0.0,0.0,0.0,0.0,0.0,0.0,0.0,0.0,0.0,0.0,0.0,0.0,0.0,0.0,0.0,0.0,0.0,0.0,0.0,0.0,0.0,0.0,0.0,0.0,0.0,0.0,0.0,0.0,0.0,0.0,0.0,0.0,0.0,0.0,0.0,0.0,0.0,0.0,0.0,0.0,0.0,0.0,0.0,0.0,0.0,0.0,0.0,0.0,0.0,0.0,0.0,0.0,0.0,0.0,0.0,0.0,0.0,0.0,0.0,0.0,0.0,0.0,0.0,0.0,0.0,0.0,0.0,0.0,0.0,0.0,0.0,0.0,0.0,0.0,0.0,0.0,0.0,0.0,0.0,0.0,0.0,0.0,0.0,0.0,0.0,0.0,0.0,0.0,0.0,0.0,0.0,0.0,0.0,0.0,0.0,0.0,0.0,0.0,0.0,0.0,0.0,0.0,0.0,0.0,0.0,0.0,0.0,0.0,0.0,0.0,0.0,0.0,0.0,0.0,0.0,0.0,0.0,0.0,0.0,0.0,0.0,0.0,0.0,0.0,0.0,0.0,0.0,0.0,0.0,0.0,0.0,0.0,0.0,0.0,0.0,0.0,0.0,0.0,0.0,0.0,0.0,0.0,0.0,0.0,0.0,0.0,0.0,0.0,0.0,0.0,0.0,0.0,0.0,0.0,0.0,0.0,0.0,0.0,0.0,0.0,0.0,0.0,0.0,0.0,0.0,0.0,0.0,0.0,0.0,0.0,0.0,0.0,0.0,0.0,0.0,0.0,0.0,0.0,0.0,0.0,0.0,0.0,0.0,0.0,0.0,0.0,0.0,0.0,0.0,0.0,0.0,0.0,0.0,0.0,0.0,0.0,0.0,0.0,0.0,0.0,0.0,0.0,0.0,0.0,0.0,0.0,0.0,0.0,0.0,0.0,0.0,0.0,0.0,0.0,0.0,0.0,0.0,0.0,0.0,0.0,0.0,0.0,0.0,0.0,0.0,0.0,0.0,0.0,0.0,0.0,0.0,0.0,0.0,0.0,0.0,0.0,0.0,0.0,0.0,0.0,0.0,0.0,0.0,0.0,0.0,0.0,0.0,0.0,0.0,0.0,0.0,0.0,0.0,0.0,0.0,0.0,0.0,0.0,0.0,0.0,0.0,0.0,0.0,0.0,0.0,0.0,0.0,0.0,0.0,0.0,0.0,0.0,0.0,0.0,0.0,0.0,0.0,0.0,0.0,0.0,0.0,0.0,0.0,0.0,0.0,0.0,0.0,0.0,0.0,0.0,0.0,0.0,0.0,0.0,0.0,0.0,0.0,0.0,0.0,0.0,0.0,0.0,0.0,0.0,0.0,0.0,0.0,0.0,0.0,0.0,0.0,0.0,0.0,0.0,0.0,0.0,0.0,0.0,0.0,0.0,0.0,0.0,0.0,0.0,0.0,0.0,0.0,0.0,0.0,0.0,0.0,0.0,0.0,0.0,0.0,0.0,0.0,0.0,0.0,0.0,0.0,0.0,0.0,0.0,0.0,0.0,0.0,0.0,0.0,0.0,0.0,0.0,0.0,0.0,0.0,0.0,0.0,0.0,0.0,0.0,0.0,0.0,0.0,0.0,0.0,0.0,0.0,0.0,0.0,0.0,0.0,0.0,0.0,0.0,0.0,0.0,0.0,0.0,0.0,0.0,0.0,0.0,0.0,0.0,0.0,0.0,0.0,0.0,0.0,0.0,0.0,0.0,0.0,0.0,0.0,0.0,0.0,0.0,0.0,0.0,0.0,0.0,0.0,0.0,0.0,0.0,0.0,0.0,0.0,0.0,0.0,0.0,0.0,0.0,0.0,0.0,0.0,0.0,0.0,0.0,0.0,0.0,0.0,0.0,0.0,0.0,0.0,0.0,0.0,0.0,0.0,0.0,0.0,0.0,0.0,0.0,0.0,0.0,0.0,0.0,0.0,0.0,0.0,0.0,0.0,0.0,0.0,0.0,0.0,0.0,0.0,0.0,0.0,0.0,0.0,0.0,0.0,0.0,0.0,0.0,0.0,0.0,0.0,0.0,0.0,0.0,0.0,0.0,0.0,0.0,0.0,0.0,0.0,0.0,0.0,0.0,0.0,0.0,0.0,0.0,0.0,0.0,0.0,0.0,0.0,0.0,0.0,0.0,0.0,0.0,0.0,0.0,0.0,0.0,0.0,0.0,0.0,0.0,0.0,0.0,0.0,0.0,0.0,0.0,0.0,0.0,0.0,0.0,0.0,0.0,0.0,0.0,0.0,0.0,0.0,0.0,0.0,0.0,0.0,0.0,0.0,0.0,0.0,0.0,0.0,0.0,0.0,0.0,0.0,0.0,0.0,0.0,0.0,0.0,0.0,0.0,0.0,0.0,0.0,0.0,0.0,0.0,0.0,0.0,0.0,0.0,0.0,0.0,0.0,0.0,0.0,0.0,0.0,0.0,0.0,0.0,0.0,0.0,0.0,0.0,0.0,0.0,0.0,0.0,0.0,0.0,0.0,0.0,0.0,0.0,0.0,0.0,0.0,0.0,0.0,0.0,0.0,0.0,0.0,0.0,0.0,0.0,0.0,0.0,0.0,0.0,0.0,0.0,0.0,0.0,0.0,0.0,0.0,0.0,0.0,0.0,0.0,0.0,0.0,0.0,0.0,0.0,0.0,0.0,0.0,0.0,0.0,0.0,0.0,0.0,0.0,0.0,0.0,0.0,0.0,0.0,0.0,0.0,0.0,0.0,0.0,0.0,0.0,0.0,0.0,0.0,0.0,0.0,0.0,0.0,0.0,0.0,0.0,0.0,0.0,0.0,0.0,0.0,0.0,0.0,0.0,0.0,0.0,0.0,0.0,0.0,0.0,0.0,0.0,0.0,0.0,0.0,0.0,0.0,0.0,0.0,0.0,0.0,0.0,0.0,0.0,0.0,0.0,0.0,0.0,0.0,0.0,0.0,0.0,0.0,0.0,0.0,0.0,0.0,0.0,0.0,0.0,0.0,0.0,0.0,0.0,0.0,0.0,0.0,0.0,0.0,0.0,0.0,0.0,0.0,0.0,0.0,0.0,0.0,0.0,0.0,0.0,0.0,0.0,0.0,0.0,0.0,0.0,0.0,0.0,0.0,0.0,0.0,0.0,0.0,0.0,0.0,0.0,0.0,0.0,0.0,0.0,0.0,0.0,0.0,0.0,0.0,0.0,0.0,0.0,0.0,0.0,0.0,0.0,0.0,0.0,0.0,0.0,0.0,0.0,0.0,0.0,0.0,0.0,0.0,0.0,0.0,0.0,0.0,0.0,0.0,0.0,0.0,0.0,0.0,0.0,0.0,0.0,0.0,0.0,0.0,0.0,0.0,0.0,0.0,0.0,0.0,0.0,0.0,0.0,0.0,0.0,0.0,0.0,0.0,0.0,0.0,0.0,0.0,0.0,0.0,0.0,0.0,0.0,0.0,0.0,0.0,0.0,0.0,0.0,0.0,0.0,0.0,0.0,0.0,0.0,0.0,0.0,0.0,0.0,0.0,0.0,0.0,0.0,0.0,0.0,0.0,0.0,0.0,0.0,0.0,0.0,0.0,0.0,0.0,0.0,0.0,0.0,0.0,0.0,0.0,0.0,0.0,0.0,0.0,0.0,0.0,0.0,0.0,0.0,0.0,0.0,0.0,0.0,0.0,0.0,0.0,0.0,0.0,0.0,0.0,0.0,0.0,0.0,0.0,0.0,0.0,0.0,0.0,0.0,0.0,0.0,0.0,0.0,0.0,0.0,0.0,0.0,0.0,0.0,0.0,0.0,0.0,0.0,0.0,0.0,0.0,0.0,0.0,0.0,0.0,0.0,0.0,0.0,0.0,0.0,0.0,0.0,0.0,0.0,0.0,0.0,0.0,0.0,0.0,0.0,0.0,0.0,0.0,0.0,0.0,0.0,0.0,0.0,0.0,0.0,0.0,0.0,0.0,0.0,0.0,0.0,0.0,0.0,0.0,0.0,0.0,0.0,0.0,0.0,0.0,0.0,0.0,0.0,0.0,0.0,0.0,0.0,0.0,0.0,0.0,0.0,0.0,0.0,0.0,0.0,0.0,0.0,0.0,0.0,0.0,0.0,0.0,0.0,0.0,0.0,0.0,0.0,0.0,0.0,0.0,0.0,0.0,0.0,0.0,0.0,0.0,0.0,0.0,0.0,0.0,0.0,0.0,0.0,0.0,0.0,0.0,0.0,0.0,0.0,0.0,0.0,0.0,0.0,0.0,0.0,0.0,0.0,0.0,0.0,0.0,0.0,0.0,0.0,0.0,0.0,0.0,0.0,0.0,0.0,0.0,0.0,0.0,0.0,0.0,0.0,0.0,0.0,0.0,0.0,0.0,0.0,0.0,0.0,0.0,0.0,0.0,0.0,0.0,0.0,0.0,0.0,0.0,0.0,0.0,0.0,0.0,0.0,0.0,0.0,0.0,0.0,0.0,0.0,0.0,0.0,0.0,0.0,0.0,0.0,0.0,0.0,0.0,0.0,0.0,0.0,0.0,0.0,0.0,0.0,0.0,0.0,0.0,0.0,0.0,0.0,0.0,0.0,0.0,0.0,0.0,0.0,0.0,0.0,0.0,0.0,0.0,0.0,0.0,0.0,0.0,0.0,0.0,0.0,0.0,0.0,0.0,0.0,0.0,0.0,0.0,0.0,0.0,0.0,0.0,0.0,0.0,0.0,0.0,0.0,0.0,0.0,0.0,0.0,0.0,0.0,0.0,0.0,0.0,0.0,0.0,0.0,0.0,0.0,0.0,0.0,0.0,0.0,0.0,0.0,0.0,0.0,0.0,0.0,0.0,0.0,0.0,0.0,0.0,0.0,0.0,0.0,0.0,0.0,0.0,0.0,0.0,0.0,0.0,0.0,0.0,0.0,0.0,0.0,0.0,0.0,0.0,0.0,0.0,0.0,0.0,0.0,0.0,0.0,0.0,0.0,0.0,0.0,0.0,0.0,0.0,0.0,0.0,0.0,0.0,0.0,0.0,0.0,0.0,0.0,0.0,0.0,0.0,0.0,0.0,0.0,0.0,0.0,0.0,0.0,0.0,0.0,0.0,0.0,0.0,0.0,0.0,0.0,0.0,0.0,0.0,0.0,0.0,0.0,0.0,0.0,0.0,0.0,0.0,0.0,0.0,0.0,0.0,0.0,0.0,0.0,0.0,0.0,0.0,0.0,0.0,0.0,0.0,0.0,0.0,0.0,0.0,0.0,0.0,0.0,0.0,0.0,0.0,0.0,0.0,0.0,0.0,0.0,0.0,0.0,0.0,0.0,0.0,0.0,0.0,0.0,0.0,0.0,0.0,0.0,0.0,0.0,0.0,0.0,0.0,0.0,0.0,0.0,0.0,0.0,0.0,0.0,0.0,0.0,0.0,0.0,0.0,0.0,0.0,0.0,0.0,0.0,0.0,0.0,0.0,0.0,0.0,0.0,0.0,0.0,0.0,0.0,0.0,0.0,0.0,0.0,0.0,0.0,0.0,0.0,0.0,0.0,0.0,0.0,0.0,0.0,0.0,0.0,0.0,0.0,0.0,0.0,0.0,0.0,0.0,0.0,0.0,0.0,0.0,0.0,0.0,0.0,0.0,0.0,0.0,0.0,0.0,0.0,0.0,0.0,0.0,0.0,0.0,0.0,0.0,0.0,0.0,0.0,0.0,0.0,0.0,-2.5292,0.0,0.0,0.0,0.0,0.0,0.0,0.0,0.0,0.0,0.0,0.0,0.0,0.0,0.0,0.0,0.0,0.0,0.0,0.0,0.0,0.0,0.0,0.0,0.0,0.0,0.0,0.0,0.0,0.0,0.0,0.0,0.0,0.0,0.0,0.0,0.0,0.0,0.0,0.0,-1.9237,-2.0457,-2.1252,-2.1237,-2.0878,-2.0228,0.0,0.0,0.0,0.0,0.0,0.0,0.0,0.0,0.0,0.0,0.0,0.0,0.0,0.0,0.0,0.0,0.0,0.0,0.0,0.0,0.0,0.0,0.0,0.0,0.0,0.0,0.0,0.0,0.0,0.0,0.0,0.0,0.0,0.0,0.0,0.0,0.0,0.0,0.0,0.0,0.0,0.0,0.0,0.0,0.0,0.0,0.0,0.0,0.0,0.0,0.0,0.0,0.0,0.0,0.0,0.0,0.0,0.0,0.0,0.0,0.0,0.0,0.0,0.0,0.0,0.0,0.0,0.0,0.0,0.0,0.0,-2.7092,0.0,0.0,0.0,0.0,0.0,0.0,0.0,0.0,0.0,0.0,0.0,0.0,0.0,0.0,0.0,0.0,0.0,0.0,0.0,0.0,0.0,0.0,0.0,0.0,0.0,0.0,0.0,0.0,0.0,0.0,0.0,0.0,0.0,0.0,0.0,0.0,0.0,0.0,-2.1062,-2.2604,-2.4105,-2.4859,-2.424,-2.2488,-2.2198,0.0,0.0,0.0,0.0,0.0,0.0,0.0,0.0,0.0,0.0,0.0,0.0,0.0,0.0,0.0,0.0,0.0,0.0,0.0,0.0,0.0,0.0,0.0,0.0,0.0,0.0,0.0,0.0,0.0,0.0,0.0,0.0,0.0,0.0,0.0,0.0,0.0,0.0,0.0,0.0,0.0,0.0,0.0,0.0,0.0,0.0,0.0,0.0,0.0,0.0,0.0,0.0,0.0,0.0,0.0,0.0,0.0,0.0,0.0,0.0,0.0,0.0,0.0,0.0,-3.555,-3.5465,-3.5465,-3.5465,-3.5315,-3.2593,-3.1091,-3.049,0.0,0.0,0.0,0.0,0.0,0.0,0.0,0.0,0.0,0.0,0.0,0.0,0.0,0.0,0.0,0.0,0.0,0.0,0.0,0.0,0.0,0.0,0.0,0.0,0.0,0.0,0.0,0.0,0.0,0.0,0.0,0.0,0.0,0.0,-1.9978,-2.1138,-2.1861,-2.3513,-2.4771,-2.5631,-2.6469,-2.6734,-2.6393,-2.5036,-2.4472,-2.4447,0.0,0.0,0.0,0.0,0.0,0.0,0.0,0.0,0.0,0.0,0.0,0.0,0.0,0.0,0.0,0.0,0.0,0.0,0.0,0.0,0.0,0.0,0.0,0.0,0.0,0.0,0.0,0.0,0.0,0.0,0.0,0.0,0.0,0.0,0.0,0.0,0.0,0.0,0.0,0.0,0.0,-2.4829,-2.6493,0.0,0.0,0.0,0.0,0.0,0.0,0.0,0.0,0.0,0.0,0.0,0.0,0.0,0.0,-3.6707,-3.6837,-3.7627,-3.9033,-3.9039,-3.9011,-3.892,-3.892,-3.892,-3.8925,-3.8493,0.0,-3.3888,-3.3081,0.0,0.0,0.0,0.0,0.0,0.0,0.0,0.0,0.0,0.0,0.0,0.0,0.0,0.0,0.0,0.0,0.0,0.0,0.0,0.0,0.0,0.0,0.0,0.0,0.0,0.0,0.0,0.0,0.0,0.0,0.0,0.0,0.0,-2.1533,-2.317,-2.4871,-2.6104,-2.7111,-2.7879,-2.8675,-2.9106,-2.9133,-2.8461,-2.7453,-2.6159,-2.5041,0.0,0.0,0.0,0.0,0.0,0.0,0.0,0.0,0.0,0.0,0.0,0.0,0.0,0.0,0.0,0.0,0.0,0.0,0.0,0.0,0.0,0.0,0.0,0.0,0.0,0.0,0.0,0.0,0.0,0.0,0.0,0.0,0.0,0.0,0.0,0.0,0.0,0.0,0.0,-2.5185,-2.7244,-2.8462,-2.9326,-3.0171,0.0,0.0,0.0,0.0,0.0,0.0,0.0,0.0,0.0,-3.7652,-3.7711,-3.8509,-4.0195,-4.0167,-4.0953,-4.2504,-4.2467,-4.2434,-4.2355,-4.2355,-4.2355,-4.2355,-4.2355,-4.1248,-3.9276,-3.6592,-3.524,-3.4771,0.0,0.0,0.0,0.0,0.0,-3.2522,0.0,0.0,0.0,0.0,0.0,0.0,0.0,0.0,0.0,0.0,0.0,0.0,0.0,0.0,0.0,-1.8784,0.0,0.0,0.0,0.0,0.0,0.0,0.0,0.0,0.0,-2.3483,-2.5366,-2.7173,-2.8223,-2.9169,-2.9982,-3.0749,-3.126,-3.1553,-3.1553,-3.0288,-2.8056,-2.7248,-2.6458,-2.565,0.0,0.0,0.0,0.0,0.0,0.0,0.0,0.0,0.0,0.0,0.0,0.0,0.0,0.0,0.0,0.0,0.0,0.0,0.0,0.0,0.0,0.0,0.0,0.0,0.0,0.0,0.0,0.0,0.0,0.0,0.0,0.0,0.0,0.0,0.0,0.0,0.0,-2.758,-2.9213,-3.049,-3.1354,-3.2424,0.0,0.0,0.0,0.0,0.0,0.0,-3.8296,-3.858,-3.9337,-4.084,-4.1086,-4.1878,-4.3336,-4.3307,-4.397,-4.5327,-4.5273,-4.519,-4.5153,-4.5153,-4.5153,-4.5153,-4.5153,-4.4815,-4.3933,-3.9971,-3.8225,-3.7887,-3.6441,-3.5878,-3.5878,-3.5878,-3.5772,-3.5647,0.0,0.0,0.0,0.0,0.0,0.0,0.0,0.0,0.0,0.0,0.0,0.0,0.0,0.0,-1.9361,-2.0127,-2.0366,-2.0512,0.0,0.0,0.0,0.0,0.0,0.0,0.0,0.0,-2.7798,-2.795,-2.9473,-3.0637,-3.1511,-3.2325,-3.314,-3.3937,-3.3937,-3.2711,-3.0582,-2.9773,-2.8937,-2.8146,-2.7338,0.0,0.0,0.0,0.0,0.0,0.0,0.0,0.0,0.0,0.0,0.0,0.0,0.0,0.0,0.0,0.0,0.0,0.0,0.0,0.0,0.0,0.0,0.0,0.0,0.0,0.0,0.0,0.0,0.0,0.0,0.0,0.0,0.0,0.0,0.0,0.0,0.0,0.0,-3.2931,-3.3926,0.0,0.0,0.0,0.0,-3.8385,-3.9161,-4.0034,-4.095,-4.1749,-4.2583,-4.3474,-4.4251,-4.506,-4.5892,-4.5911,-4.6267,-4.6977,-4.6996,-4.6938,-4.688,-4.688,-4.688,-4.688,-4.688,-4.6861,-4.6561,-4.3163,-4.1304,-4.0534,-3.9671,-3.9357,-3.9357,-3.9357,-3.8826,-3.8136,0.0,0.0,0.0,0.0,0.0,0.0,0.0,0.0,0.0,0.0,0.0,0.0,0.0,-1.9022,-2.0338,-2.167,-2.2254,-2.2832,-2.3413,0.0,0.0,0.0,0.0,0.0,0.0,0.0,-2.9382,-3.09,-3.1479,-3.2464,-3.372,-3.4003,-3.4321,-3.4587,-3.4587,-3.4212,-3.3455,-3.1696,-3.051,-2.9676,-2.898,-2.804,0.0,0.0,0.0,0.0,0.0,0.0,0.0,0.0,0.0,0.0,0.0,0.0,0.0,0.0,0.0,0.0,0.0,0.0,0.0,0.0,0.0,0.0,0.0,0.0,0.0,0.0,0.0,0.0,0.0,0.0,0.0,0.0,0.0,0.0,0.0,0.0,0.0,-3.4139,-3.5907,0.0,0.0,-3.9471,-4.0613,-4.1737,-4.2158,-4.2939,-4.4345,-4.4687,-4.5236,-4.6051,-4.6904,-4.7712,-4.8464,-4.8957,-4.955,-5.024,-5.0209,-5.0197,-5.0147,-5.0147,-5.0147,-5.0147,-5.0147,-4.9865,-4.9246,-4.7537,-4.5697,-4.3876,-4.3069,-4.2431,-4.198,-4.198,-4.1461,-4.076,0.0,0.0,0.0,0.0,0.0,0.0,0.0,0.0,0.0,0.0,0.0,-1.6785,-1.8356,-1.9755,-2.119,-2.2781,-2.3374,-2.4047,-2.4982,0.0,0.0,0.0,-2.5692,0.0,0.0,-2.9449,-3.0826,-3.2387,-3.2949,-3.3935,-3.526,-3.526,-3.5437,-3.5721,-3.5721,-3.5616,-3.5332,-3.3821,-3.2624,-3.1653,-3.0945,-3.0159,-2.9347,0.0,0.0,0.0,0.0,0.0,0.0,0.0,0.0,0.0,0.0,0.0,0.0,0.0,0.0,0.0,0.0,0.0,0.0,0.0,0.0,0.0,0.0,0.0,0.0,0.0,0.0,0.0,0.0,0.0,0.0,0.0,0.0,0.0,0.0,0.0,-3.5396,-3.6287,-3.8098,-3.9746,-4.0967,-4.1865,-4.2948,-4.4372,-4.4757,-4.5558,-4.6961,-4.7302,-4.7832,-4.8666,-4.9473,-5.0118,-5.06,-5.1039,-5.1525,-5.1957,-5.1925,-5.1912,-5.1912,-5.1912,-5.1912,-5.1912,-5.1912,-5.1593,-5.1048,-5.0522,-4.9321,-4.7631,-4.5979,-4.5021,-4.4552,-4.4552,-4.4016,-4.3243,0.0,0.0,0.0,0.0,0.0,0.0,0.0,0.0,0.0,0.0,-1.6575,-1.8126,-1.9807,-2.0711,-2.1813,-2.3408,-2.3585,-2.4013,-2.4905,-2.5016,0.0,0.0,0.0,0.0,-2.9845,-3.1377,-3.2195,-3.2284,-3.384,-3.5107,-3.6048,-3.6066,-3.6547,-3.7385,-3.7367,-3.6905,-3.6198,-3.618,-3.5403,-3.4169,-3.3312,-3.2474,-3.1599,0.0,0.0,0.0,0.0,0.0,0.0,0.0,0.0,0.0,0.0,0.0,0.0,0.0,0.0,0.0,0.0,0.0,0.0,0.0,0.0,0.0,0.0,0.0,0.0,0.0,0.0,0.0,0.0,0.0,0.0,0.0,0.0,0.0,-3.4677,-3.5512,-3.7024,-3.9449,-4.0556,-4.1779,-4.3496,-4.4386,-4.5281,-4.6241,-4.7036,-4.787,-4.8761,-4.9538,-5.0353,-5.1225,-5.1935,-5.2311,-5.2239,-5.2128,-5.2033,-5.1987,-5.1987,-5.1987,-5.1987,-5.1987,-5.1987,-5.1987,-5.1987,-5.1987,-5.1987,-5.1949,-5.1949,-5.163,-4.8382,-4.7105,-4.7068,-4.7049,-4.6486,-4.5538,0.0,0.0,0.0,0.0,0.0,0.0,0.0,0.0,0.0,0.0,-1.6508,-1.8037,-1.962,-2.0492,-2.186,-2.4032,-2.4232,-2.4853,-2.6339,0.0,0.0,0.0,0.0,0.0,-3.1306,-3.2385,-3.3465,-3.46,-3.5558,-3.6446,-3.733,-3.7953,-3.8362,-3.8596,-3.8714,-3.8672,-3.8523,-3.7958,-3.7485,-3.7051,-3.5225,-3.4015,-3.3197,0.0,0.0,0.0,0.0,0.0,0.0,0.0,0.0,0.0,0.0,0.0,0.0,0.0,0.0,0.0,0.0,0.0,0.0,0.0,0.0,0.0,0.0,0.0,0.0,0.0,0.0,0.0,0.0,0.0,0.0,0.0,0.0,-3.6427,-3.6494,-3.7736,-3.9194,-4.0552,-4.2502,-4.3969,-4.4492,-4.5836,-4.7302,-4.8761,-4.9083,-4.9841,-5.1319,-5.1585,-5.1803,-5.1991,-5.2756,-5.3131,-5.2994,-5.3527,-5.3795,-5.3714,-5.3714,-5.3714,-5.3714,-5.3714,-5.3714,-5.3714,-5.3714,-5.3714,-5.3677,-5.3076,-5.2832,-5.2625,-5.0504,-4.9321,-4.8739,-4.8101,-4.7379,-4.6647,0.0,0.0,0.0,0.0,0.0,0.0,0.0,0.0,0.0,0.0,-1.6417,-1.7939,-1.9482,-2.0367,-2.1786,-2.4166,-2.4382,-2.5086,-2.6757,0.0,0.0,0.0,0.0,-3.1433,-3.2268,-3.3394,-3.4614,-3.5908,-3.6655,-3.7436,-3.8285,-3.8763,-3.9015,-3.9015,-3.9076,-3.9178,-3.9228,-3.8813,-3.8661,-3.8566,-3.7064,-3.5793,-3.4747,-3.4068,-3.3301,-3.2464,-3.1296,-3.0683,-3.0248,-2.9007,0.0,0.0,0.0,0.0,0.0,0.0,0.0,0.0,0.0,0.0,0.0,0.0,0.0,0.0,0.0,0.0,0.0,0.0,0.0,0.0,0.0,0.0,0.0,0.0,-3.7268,-3.8536,-3.9637,-4.0339,-4.124,-4.2508,-4.4278,-4.5685,-4.6411,-4.7681,-4.8988,-5.0334,-5.0751,-5.1528,-5.2873,-5.2901,-5.2994,-5.3343,-5.4063,-5.4433,-5.4355,-5.513,-5.551,-5.5441,-5.5441,-5.5441,-5.5441,-5.5441,-5.5441,0.0,-5.5066,-5.4916,-5.4841,-5.4033,-5.3695,0.0,0.0,0.0,0.0,0.0,-4.8555,-4.7598,0.0,0.0,0.0,0.0,0.0,0.0,0.0,0.0,0.0,0.0,0.0,-1.7839,-1.9287,-2.0191,-2.1574,-2.3744,-2.4093,-2.491,0.0,0.0,0.0,-3.0319,-3.1172,-3.2034,-3.2865,-3.4294,-3.5511,-3.6582,-3.7283,-3.8131,-3.8981,-3.9068,-3.9147,-3.9164,-3.9147,-3.9147,-3.9147,-3.919,-3.9198,-3.9171,-3.8538,-3.7478,-3.6251,-3.5492,-3.4764,-3.4054,-3.3405,-3.2688,-3.1974,-3.1196,0.0,0.0,0.0,0.0,0.0,0.0,0.0,0.0,0.0,0.0,0.0,0.0,0.0,0.0,0.0,0.0,0.0,0.0,0.0,0.0,0.0,0.0,0.0,0.0,-3.9464,-4.0935,-4.3213,-4.3076,-4.3303,-4.4758,-4.5855,-4.7093,-4.8666,-4.9557,-5.0448,-5.1414,-5.2125,-5.2901,-5.3773,0.0,0.0,0.0,0.0,-5.5936,-5.5902,-5.6566,-5.6887,-5.6887,-5.6887,-5.6887,-5.6887,-5.6887,-5.6887,-5.6849,-5.608,-5.5704,-5.5554,-5.4841,-5.4484,-5.424,-5.2663,-5.1987,-5.1799,-5.0992,-4.9814,0.0,0.0,0.0,0.0,0.0,0.0,0.0,0.0,0.0,0.0,-1.4821,-1.6254,-1.7551,-1.8437,-1.98,-2.1106,-2.2239,-2.3448,-2.5046,0.0,0.0,-2.9127,-3.0095,-3.1528,-3.2701,-3.3522,-3.4445,-3.5574,-3.6987,-3.7723,-3.8505,-3.9416,-4.0129,-4.0579,-4.0689,-4.0728,-4.0774,-4.0722,-4.0147,-3.9904,-3.9826,-3.8576,-3.7988,-3.7747,-3.641,-3.581,-3.558,-3.4941,-3.4584,-3.4228,-3.292,-3.2411,-3.2097,-3.0769,-2.9845,0.0,0.0,0.0,0.0,0.0,0.0,0.0,0.0,0.0,0.0,0.0,0.0,0.0,0.0,0.0,0.0,0.0,0.0,0.0,-4.0121,-4.2149,-4.3753,-4.4277,-4.5396,-4.6072,-4.5873,-4.7257,-4.859,-4.9557,-5.0448,-5.1585,-5.3101,-5.327,-5.3664,-5.4546,-5.5133,0.0,-5.5593,-5.635,-5.6748,-5.6697,-5.6812,-5.6887,-5.6887,0.0,0.0,-5.6887,-5.6887,-5.6887,-5.6887,-5.6718,-5.6249,-5.561,-5.5441,-5.4991,-5.4296,-5.332,-5.2513,-5.1799,-5.0992,-5.0516,-5.0172,0.0,0.0,0.0,0.0,0.0,0.0,0.0,0.0,0.0,0.0,-1.5334,-1.6451,-1.7582,-1.8712,-2.004,-2.1625,-2.3487,0.0,0.0,-2.8062,-2.911,-2.9921,-3.178,-3.3051,-3.3522,-3.4661,-3.6031,-3.7667,-3.8025,-3.8841,-4.0018,-4.0491,-4.0745,-4.0793,-4.0918,-4.0948,-4.0931,-4.0724,-4.0388,-3.9919,-3.892,-3.8332,-3.7947,-3.6985,-3.662,-3.6514,-3.5846,-3.5652,-3.551,-3.4405,-3.3812,-3.3359,-3.2253,-3.1397,-3.0692,0.0,0.0,0.0,0.0,0.0,0.0,0.0,0.0,0.0,0.0,0.0,0.0,0.0,0.0,-3.7287,0.0,0.0,-4.121,-4.2449,-4.4026,-4.5247,-4.5735,-4.6892,-4.7617,-4.7378,-4.8113,-4.917,-5.0429,-5.1291,-5.2266,-5.3516,-5.3898,-5.4472,-5.5322,-5.5659,-5.6007,-5.6387,-5.7162,-5.7524,-5.7507,-5.7901,-5.8089,-5.8089,-5.8089,-5.8089,-5.8089,-5.8089,-5.8089,-5.807,-5.7676,-5.7263,-5.6793,-5.5967,-5.5366,-5.4934,-5.4108,-5.3282,-5.2494,-5.2081,-5.1405,-5.0667,0.0,0.0,0.0,0.0,0.0,0.0,0.0,0.0,0.0,0.0,-1.425,-1.5218,-1.6702,-1.7532,-1.8963,0.0,0.0,0.0,0.0,-2.7731,-2.8975,-2.9727,-3.1884,-3.3168,-3.333,-3.4773,-3.6327,-3.7899,-3.8052,-3.8836,-4.0263,-4.0417,-4.0485,-4.0517,-4.0446,-4.0443,-4.0474,-4.0509,-4.0187,-3.9576,-3.8964,-3.8355,-3.7694,-3.7211,-3.7031,-3.6999,-3.6478,-3.6395,-3.6363,-3.5421,-3.4761,-3.4151,-3.3283,-3.2629,-3.2056,-3.1351,-3.1183,0.0,0.0,0.0,0.0,0.0,0.0,0.0,0.0,0.0,-3.6656,-3.7359,-3.8331,-3.953,-4.1116,-4.2133,-4.3238,-4.4759,-4.566,-4.643,-4.7143,-4.7991,-4.8606,-4.8787,-4.8947,-4.9674,-5.1244,-5.2057,-5.284,-5.3671,-5.4478,-5.5187,-5.5847,-5.6086,-5.6541,-5.7181,-5.7937,-5.8333,-5.8333,-5.899,-5.929,-5.929,-5.929,-5.929,-5.929,-5.929,-5.929,-5.9253,-5.8464,-5.8107,-5.7995,-5.6474,-5.5761,-5.5554,-5.4897,-5.4127,-5.3395,-5.3245,-5.2231,-5.093,0.0,0.0,0.0,0.0,0.0,0.0,0.0,0.0,0.0,0.0,0.0,0.0,0.0,0.0,0.0,0.0,0.0,0.0,-2.5872,-2.7524,-2.8743,-2.949,-3.1842,-3.3098,-3.3141,-3.4583,-3.5833,-3.6797,-3.7455,-3.8311,-3.9336,-3.9999,-4.0387,-4.0451,-3.985,-3.9559,-3.9508,-3.8946,-3.8631,-3.8539,-3.7958,-3.7698,-3.7567,-3.6963,-3.6788,-3.6851,-3.6925,-3.7061,-3.698,-3.5563,-3.5099,-3.4829,-3.3444,-3.2988,-3.2847,-3.2162,0.0,-3.2063,-3.2119,-3.2747,-3.3587,-3.4439,-3.5293,-3.6167,0.0,0.0,-3.9909,-4.004,-4.1334,-4.2763,-4.3802,-4.4683,-4.5604,-4.6561,-4.7406,-4.795,-4.8044,-4.8814,-4.942,-4.9491,-5.0172,-5.1013,-5.2005,-5.2817,-5.3648,-5.4516,-5.5268,-5.571,-5.5804,-5.7108,-5.7882,-5.7957,-5.8746,-5.9178,-5.9178,-5.9253,-5.929,-5.929,-5.929,-5.929,-5.929,-5.929,-5.929,-5.9253,-5.8464,-5.8107,-5.8032,-5.7131,-5.6305,-5.561,-5.5516,-5.4972,-5.4183,-5.3451,-5.2588,-5.17,0.0,0.0,0.0,0.0,0.0,0.0,0.0,0.0,0.0,0.0,0.0,0.0,0.0,0.0,0.0,0.0,0.0,0.0,-2.4521,-2.6089,-2.746,-2.8596,-3.0468,-3.1938,-3.2829,-3.3968,-3.5161,-3.6458,-3.6776,-3.7379,-3.8216,-3.8618,-3.8802,-3.8882,-3.8721,-3.8632,-3.8615,-3.843,-3.8083,-3.762,-3.7489,-3.7198,-3.6715,-3.6156,-3.5983,-3.6068,-3.6225,-3.6397,0.0,-3.5385,-3.4764,-3.4351,-3.3794,-3.3709,-3.3746,-3.3453,-3.3797,0.0,-3.447,-3.5151,-3.5952,0.0,-3.7569,-3.8699,-3.905,-4.0518,-4.1924,-4.2419,-4.3532,-4.4685,-4.5567,-4.648,-4.7234,0.0,-4.8401,-4.8964,-4.8964,-4.9265,-4.9659,-5.019,-5.0992,-5.1663,-5.2164,-5.2875,-5.3704,-5.4533,-5.5262,-5.5889,-5.6431,-5.7488,-5.8314,-5.8783,-5.9121,-5.929,-5.929,-5.929,-5.929,-5.929,-5.929,-5.929,-5.929,-5.929,-5.929,-5.9271,-5.8933,-5.8802,-5.8746,-5.7938,-5.7394,-5.6981,-5.6005,-5.5404,-5.501,-5.4202,-5.3357,-5.2564,0.0,0.0,0.0,0.0,0.0,0.0,0.0,0.0,0.0,0.0,0.0,0.0,0.0,0.0,0.0,0.0,0.0,0.0,0.0,-2.4778,-2.6281,-2.7349,-2.9288,-3.0853,-3.1979,-3.3056,-3.4189,-3.5395,-3.5813,-3.6346,-3.6882,-3.7398,-3.7631,-3.7631,-3.7621,-3.7661,-3.7691,-3.7376,-3.6928,-3.6427,-3.6353,-3.6045,-3.5538,-3.5152,-3.5047,-3.5149,-3.5322,-3.5492,-3.5557,-3.4889,-3.4339,-3.3892,-3.3797,-3.3999,-3.4289,-3.4289,-3.5331,-3.6517,-3.6638,-3.746,0.0,-3.8438,-3.9804,-4.1108,-4.1108,-4.2508,-4.3986,-4.4562,-4.5406,-4.6265,-4.6874,-4.7772,-4.8428,-4.8502,-4.9077,-4.9509,-4.9509,-4.9509,-4.979,-5.0598,-5.1405,-5.2038,-5.2429,-5.3169,-5.3945,-5.4754,-5.5514,-5.6343,-5.7187,-5.7995,-5.8708,-5.9271,-5.929,-5.929,-5.929,-5.929,-5.929,-5.929,-5.929,-5.929,-5.929,-5.929,-5.929,-5.929,-5.929,-5.929,-5.9253,-5.8671,-5.8314,-5.7976,-5.653,-5.5817,-5.5516,-5.4709,-5.3883,-5.309,0.0,0.0,0.0,0.0,0.0,0.0,0.0,0.0,0.0,0.0,0.0,0.0,0.0,0.0,0.0,0.0,0.0,0.0,0.0,-2.4013,-2.5675,-2.5868,-2.8641,-3.0222,-3.0254,-3.1764,-3.264,-3.2824,-3.4376,-3.5248,-3.5392,-3.6815,-3.7484,-3.7451,-3.6779,-3.6491,-3.6565,-3.5172,-3.4677,-3.4738,-3.4123,-3.3939,-3.3968,-3.3934,-3.4076,-3.4272,-3.4463,-3.4651,-3.4728,-3.4076,-3.3844,-3.3786,-3.3119,-3.352,0.0,-3.4289,-3.6172,-3.8234,-3.8328,0.0,-4.083,-4.0969,-4.2345,-4.3689,-4.3689,-4.5097,-4.6382,-4.642,-4.7117,-4.7742,-4.776,-4.8581,-4.9252,-4.927,-4.939,-4.9509,-4.9509,-4.9509,-4.979,-5.0598,-5.1405,-5.2231,0.0,-5.3883,-5.4709,-5.5516,-5.638,-5.7206,-5.8032,-5.884,-5.9271,-5.929,-5.929,-5.929,-5.929,-5.929,-5.929,-5.929,-5.929,-5.929,-5.929,-5.929,-5.929,-5.929,-5.929,-5.929,-5.929,-5.9271,-5.8802,-5.8032,-5.7187,-5.6343,-5.5516,-5.4709,-5.3883,-5.309,0.0,0.0,0.0,0.0,0.0,0.0,0.0,0.0,0.0,0.0,0.0,0.0,0.0,0.0,0.0,0.0,0.0,0.0,0.0,-2.2051,-2.3503,-2.5519,-2.6584,-2.7834,-2.9368,-3.0418,-3.1243,-3.1764,-3.2871,-3.3379,-3.3442,-3.4122,-3.4447,-3.443,-3.4287,-3.4231,-3.4242,-3.3886,-3.3727,-3.3753,-3.3709,-3.3673,-3.3594,-3.2689,-3.2466,-3.2496,0.0,-3.2459,-3.3792,-3.3159,-3.2979,-3.3027,-3.2876,-3.3845,-3.5337,-3.7068,-3.8251,-3.9166,-3.9826,0.0,-4.2481,-4.2656,-4.4023,-4.5342,-4.5392,-4.6345,-4.7244,-4.7293,-4.7549,-4.775,-4.7783,-4.8073,-4.8357,-4.8484,-4.9002,-4.9409,-4.9509,-4.9959,-5.0579,-5.1405,-5.225,0.0,0.0,0.0,0.0,-5.5554,-5.6418,-5.7244,-5.807,-5.8858,-5.929,-5.929,-5.929,-5.929,-5.929,-5.929,-5.929,-5.929,-5.929,-5.929,-5.929,-5.929,-5.929,-5.929,-5.929,-5.929,-5.929,-5.929,-5.914,-5.8821,-5.8014,-5.7187,-5.6361,-5.5516,-5.469,-5.3898,0.0,0.0,0.0,0.0,0.0,0.0,0.0,0.0,0.0,0.0,0.0,0.0,0.0,0.0,0.0,0.0,0.0,0.0,0.0,0.0,-2.192,-2.3838,-2.468,-2.5972,-2.7729,-2.8543,-2.9303,-3.0081,-3.0915,-3.132,-3.132,-3.1802,-3.2004,-3.2004,-3.2133,-3.2193,-3.2219,-3.2052,-3.2034,-3.2059,-3.1952,-3.1953,-3.1913,-3.1076,-3.0827,0.0,-3.0057,-3.0784,-3.2109,-3.2087,-3.2309,-3.2692,-3.306,-3.4401,-3.6303,-3.8527,-3.9445,-4.0056,-4.1338,-4.2613,-4.3761,-4.4233,-4.5441,-4.6542,-4.6629,-4.7124,-4.7617,-4.7667,-4.746,-4.7289,-4.7322,-4.7355,-4.7513,-4.794,-4.8458,-4.8971,-4.9371,-5.0153,-5.096,-5.1799,-5.2663,0.0,0.0,0.0,0.0,-5.6005,-5.6849,-5.7676,-5.8502,-5.9027,-5.929,-5.929,-5.929,-5.929,-5.929,-5.929,-5.929,-5.929,-5.929,-5.929,-5.929,-5.929,-5.929,-5.929,-5.929,-5.929,-5.929,-5.929,-5.929,-5.9215,-5.8427,-5.7619,-5.6793,-5.593,-5.5103,-5.4311,0.0,0.0,0.0,0.0,0.0,0.0,0.0,0.0,0.0,0.0,0.0,0.0,0.0,0.0,0.0,0.0,0.0,0.0,0.0,0.0,0.0,-2.1087,-2.3042,-2.4542,-2.5357,-2.6183,-2.6942,-2.7704,-2.8625,-2.9059,-2.91,-2.9889,-3.0302,-3.0302,-3.0369,-3.0452,-3.0542,-2.9826,-2.9644,-2.9787,-2.9097,-2.8904,-2.9104,-2.9141,-2.923,-2.9351,-2.9522,-2.9657,-2.9896,-3.0929,-3.1903,-3.28,-3.3699,-3.5238,-3.709,-3.869,-3.9842,-4.0962,-4.2759,-4.3834,-4.4711,-4.5718,-4.6654,-4.7371,-4.7369,-4.7494,-4.7617,-4.7612,-4.6995,-4.6438,0.0,0.0,-4.6792,-4.7555,-4.7844,-4.8277,-4.9139,-5.0057,-5.097,0.0,0.0,0.0,0.0,0.0,0.0,-5.6906,0.0,-5.8464,-5.9253,-5.929,-5.929,-5.929,-5.929,-5.929,-5.929,-5.929,-5.929,-5.929,-5.929,-5.929,-5.929,-5.929,-5.929,-5.929,-5.929,-5.929,-5.929,-5.929,-5.929,-5.9215,-5.8464,-5.7676,-5.6849,-5.6005,-5.516,-5.4386,0.0,0.0,0.0,0.0,0.0,0.0,0.0,0.0,0.0,0.0,0.0,0.0,0.0,0.0,0.0,0.0,0.0,0.0,0.0,0.0,0.0,0.0,0.0,0.0,0.0,0.0,0.0,-2.5287,-2.6743,-2.7424,-2.7441,-2.8272,-2.8721,-2.8768,-2.8768,-2.8864,-2.8998,-2.8838,-2.8832,-2.8837,-2.882,-2.8811,-2.8854,-2.8509,-2.8391,-2.8391,-2.809,-2.8424,0.0,0.0,0.0,0.0,0.0,-3.6111,-3.7916,-3.9535,-4.0654,-4.1759,-4.3522,-4.4654,-4.5532,-4.6486,-4.7387,-4.7923,-4.7445,-4.7369,-4.7309,-4.6749,-4.6108,-4.5602,0.0,0.0,0.0,-4.5972,-4.7066,0.0,-4.8295,-5.0156,0.0,-5.1794,0.0,-5.4409,-5.5235,-5.608,0.0,0.0,-5.7995,-5.8464,-5.9253,-5.929,-5.929,-5.929,-5.929,-5.929,-5.929,-5.929,-5.929,-5.929,-5.929,-5.929,-5.929,-5.929,-5.929,-5.929,-5.929,-5.929,-5.929,-5.929,-5.929,-5.9271,-5.9065,-5.8502,-5.7694,-5.6868,-5.6042,-5.5197,0.0,0.0,0.0,0.0,0.0,0.0,0.0,0.0,0.0,0.0,0.0,0.0,0.0,0.0,0.0,0.0,0.0,0.0,0.0,0.0,0.0,0.0,0.0,0.0,0.0,0.0,0.0,0.0,0.0,0.0,-2.5354,-2.5889,-2.6159,-2.618,-2.629,-2.6327,-2.6432,-2.6488,-2.6559,0.0,0.0,-2.6824,-2.6859,-2.6655,-2.6804,-2.7108,-2.6857,0.0,0.0,0.0,0.0,-3.4411,-3.501,-3.663,-3.86,-3.9931,0.0,-4.2121,-4.4247,-4.5199,-4.5915,-4.7197,-4.7661,-4.7664,-4.739,-4.6744,-4.6059,-4.5382,-4.467,0.0,0.0,0.0,0.0,0.0,0.0,0.0,-4.7732,-4.9776,-5.1267,0.0,-5.3294,0.0,-5.5465,-5.6363,-5.7225,0.0,-5.8445,-5.8821,-5.9271,-5.929,-5.929,-5.929,-5.929,-5.929,-5.929,-5.929,-5.929,-5.929,-5.929,-5.929,-5.929,-5.929,-5.929,-5.929,0.0,-5.929,-5.929,-5.929,-5.929,-5.929,-5.929,-5.8821,-5.8014,-5.7206,-5.6361,-5.5498,0.0,0.0,0.0,0.0,0.0,0.0,0.0,0.0,0.0,0.0,0.0,0.0,0.0,0.0,0.0,0.0,0.0,0.0,0.0,0.0,0.0,0.0,0.0,0.0,0.0,0.0,0.0,0.0,0.0,0.0,0.0,0.0,0.0,-2.3634,-2.3769,-2.3885,-2.3885,-2.3968,-2.4016,-2.4081,-2.4161,-2.4273,-2.4399,0.0,0.0,0.0,0.0,0.0,0.0,0.0,-3.2345,-3.5013,-3.5153,-3.6988,-3.9227,-4.0056,-4.1014,-4.228,-4.479,-4.5544,-4.5968,-4.7618,-4.7531,-4.7058,-4.6985,-4.5751,-4.446,-4.3832,0.0,-4.2353,-4.169,-4.159,-4.2092,-4.3596,0.0,-4.4854,-4.7281,-4.9083,-5.0496,-5.146,-5.3078,-5.4533,-5.5563,-5.6384,-5.7245,-5.8165,-5.8878,-5.9309,-5.929,-5.929,-5.929,-5.929,-5.929,-5.929,-5.929,-5.929,-5.929,-5.929,-5.929,-5.929,-5.929,-5.929,-5.929,-5.929,0.0,0.0,-5.929,-5.929,-5.929,-5.929,-5.929,-5.8877,-5.8164,-5.7244,-5.6418,-5.5648,0.0,0.0,0.0,0.0,0.0,0.0,0.0,0.0,0.0,0.0,-1.1696,0.0,0.0,0.0,0.0,0.0,0.0,0.0,0.0,0.0,0.0,0.0,0.0,0.0,0.0,0.0,0.0,0.0,0.0,0.0,0.0,0.0,0.0,-2.3583,-2.3685,-2.3802,-2.3885,-2.3968,-2.4,-2.4033,-2.4146,-2.4225,-2.4257,-2.4506,0.0,0.0,0.0,0.0,0.0,0.0,-3.2345,-3.5013,-3.5101,-3.7291,-3.9944,-4.0218,-4.1411,-4.2985,-4.4838,-4.5428,-4.5742,-4.6788,-4.7012,-4.6689,-4.5443,-4.4448,0.0,0.0,-4.2155,-4.1674,-4.1526,-4.1579,-4.1906,-4.2853,0.0,0.0,0.0,0.0,-4.9862,0.0,0.0,0.0,0.0,0.0,0.0,0.0,0.0,0.0,-5.9309,-5.929,-5.929,-5.929,-5.929,-5.929,-5.929,-5.929,-5.929,-5.929,-5.929,-5.929,-5.929,-5.929,-5.929,-5.929,0.0,0.0,-5.929,-5.929,-5.929,-5.929,-5.929,-5.9215,-5.8915,-5.7431,-5.6793,-5.649,0.0,0.0,0.0,0.0,0.0,0.0,0.0,0.0,0.0,-1.1548,-1.1601,-1.1674,0.0,0.0,0.0,0.0,0.0,0.0,0.0,0.0,0.0,0.0,0.0,0.0,0.0,0.0,0.0,0.0,0.0,0.0,0.0,0.0,0.0,0.0,0.0,0.0,0.0,0.0,-2.2857,0.0,0.0,0.0,0.0,0.0,0.0,0.0,0.0,0.0,0.0,0.0,-3.1782,-3.395,-3.4817,-3.6791,-3.8992,-4.0002,-4.1119,-4.2456,-4.4201,-4.4771,-4.5087,-4.5947,-4.5971,-4.548,-4.4325,0.0,0.0,0.0,-4.0615,-4.0023,-3.9645,0.0,0.0,0.0,0.0,0.0,0.0,0.0,0.0,0.0,0.0,0.0,0.0,0.0,0.0,0.0,0.0,0.0,-5.929,-5.9722,-6.0173,-6.0586,-6.0191,-5.9985,-5.9985,-5.9534,-5.929,-5.929,-5.929,-5.929,-5.929,-5.929,-5.929,-5.9309,0.0,0.0,-5.9253,-5.9253,-5.9253,-5.9234,-5.9309,-5.929,-5.9102,-5.7488,-5.6887,-5.6697,0.0,0.0,0.0,0.0,0.0,0.0,0.0,-1.1399,-1.1421,-1.1489,-1.1548,-1.1601,-1.1674,-1.1681,-1.1806,0.0,0.0,0.0,0.0,0.0,0.0,0.0,0.0,0.0,0.0,0.0,0.0,0.0,0.0,0.0,0.0,0.0,0.0,0.0,0.0,0.0,0.0,0.0,0.0,0.0,0.0,0.0,0.0,0.0,0.0,0.0,0.0,0.0,0.0,0.0,-3.0871,-3.2446,-3.4089,-3.5972,-3.7899,-3.9552,-4.0668,-4.1749,-4.3385,-4.4025,-4.4431,-4.5146,-4.4802,-4.4126,-4.3408,-4.2488,0.0,0.0,-3.9135,-3.8412,-3.7655,0.0,-3.7968,0.0,0.0,0.0,0.0,0.0,0.0,0.0,0.0,0.0,0.0,0.0,0.0,0.0,0.0,0.0,0.0,-6.0341,-6.111,-6.1768,-6.1186,-6.0773,-6.0604,-5.9929,-5.9478,-5.929,-5.929,-5.929,-5.929,-5.929,-5.929,-5.9309,0.0,0.0,0.0,-5.9196,-5.9196,-5.9196,-5.9272,-5.9196,-5.8877,-5.7431,-5.6774,-5.6399,0.0,0.0,0.0,0.0,0.0,0.0,0.0,-1.1353,-1.1421,-1.1489,-1.1511,-1.1534,-1.1615,-1.1652,-1.1963,0.0,0.0,0.0,0.0,0.0,0.0,0.0,0.0,0.0,0.0,0.0,0.0,0.0,0.0,0.0,0.0,0.0,0.0,0.0,0.0,0.0,0.0,0.0,0.0,0.0,0.0,0.0,0.0,0.0,0.0,0.0,0.0,0.0,0.0,0.0,0.0,-3.0723,-3.2393,-3.5082,-3.7792,-3.876,0.0,0.0,-4.2657,-4.3532,-4.417,-4.4358,-4.3852,-4.3159,-4.2479,0.0,0.0,-3.9001,-3.8217,-3.7477,-3.6768,-3.6684,-3.7246,-3.8841,0.0,-4.1349,0.0,0.0,0.0,0.0,0.0,0.0,0.0,0.0,0.0,0.0,0.0,0.0,0.0,-6.1068,-6.1595,-6.1787,-6.1731,-6.1337,-6.0623,-6.0529,-6.0079,-5.929,-5.929,-5.929,-5.929,-5.929,-5.929,-5.9309,0.0,0.0,0.0,-5.9196,-5.9196,-5.9196,-5.9272,-5.8858,-5.8107,-5.7225,-5.6399,-5.5592,0.0,0.0,0.0,0.0,0.0,0.0,0.0,-1.1307,-1.1353,-1.1421,-1.1466,-1.1694,-1.2144,-1.1866,-1.1763,0.0,0.0,0.0,0.0,0.0,0.0,0.0,0.0,0.0,0.0,0.0,0.0,0.0,0.0,0.0,0.0,0.0,0.0,0.0,0.0,0.0,0.0,0.0,0.0,0.0,0.0,0.0,0.0,0.0,0.0,0.0,0.0,0.0,0.0,0.0,0.0,0.0,-3.2022,-3.3628,0.0,0.0,-3.9084,-4.0219,-4.1123,-4.1631,-4.1977,-4.2105,-4.1905,-4.1538,-4.0909,0.0,-3.8847,-3.8138,-3.6967,-3.603,-3.5763,-3.5798,-3.6255,-3.7413,-3.872,0.0,0.0,0.0,0.0,0.0,0.0,0.0,0.0,0.0,0.0,0.0,0.0,0.0,0.0,-6.1849,-6.2604,-6.3191,-6.278,-6.2181,-6.1337,-6.0848,-6.0173,-5.929,-5.929,-5.929,-5.929,-5.929,-5.929,-5.929,0.0,0.0,0.0,-5.9081,-5.9081,-5.9081,-5.9215,-5.8821,-5.8014,-5.7206,-5.6361,-5.5498,0.0,0.0,0.0,0.0,0.0,0.0,-1.0897,-1.1156,-1.133,-1.1421,-1.1466,-1.1724,-1.2247,-1.1873,-1.1637,-1.1681,0.0,0.0,0.0,0.0,0.0,0.0,0.0,0.0,0.0,0.0,0.0,0.0,0.0,0.0,0.0,0.0,0.0,0.0,0.0,0.0,0.0,0.0,0.0,0.0,0.0,0.0,0.0,0.0,0.0,0.0,0.0,0.0,0.0,0.0,0.0,0.0,0.0,0.0,0.0,0.0,-3.7829,-3.887,-3.95,-4.0059,-4.0492,-4.0599,-4.0506,-4.0177,0.0,0.0,-3.79,-3.6964,-3.5854,-3.5018,-3.487,-3.4877,-3.5332,-3.6414,-3.7784,-3.9574,-4.2092,0.0,0.0,0.0,0.0,0.0,0.0,0.0,0.0,0.0,0.0,0.0,0.0,-6.223,-6.3196,-6.4083,-6.3659,-6.2874,-6.1806,-6.1243,-6.0398,-5.929,-5.929,-5.929,-5.929,-5.929,-5.929,0.0,0.0,0.0,0.0,-5.9042,-5.9042,-5.9063,-5.8953,-5.8464,-5.7657,-5.6831,-5.5986,-5.516,0.0,0.0,0.0,0.0,0.0,0.0,0.0,-1.0907,-1.1353,-1.1466,-1.1489,-1.1526,-1.1608,-1.1608,-1.1637,-1.1681,0.0,0.0,0.0,0.0,0.0,0.0,0.0,0.0,0.0,0.0,-1.6691,-1.6905,-1.6905,-1.731,0.0,0.0,0.0,0.0,0.0,0.0,0.0,0.0,0.0,0.0,0.0,0.0,0.0,0.0,0.0,0.0,0.0,0.0,0.0,0.0,0.0,0.0,0.0,0.0,0.0,0.0,-3.6451,-3.7829,-3.7899,-3.9157,-4.042,-4.0492,-4.0019,-3.9306,0.0,-3.7831,-3.6881,-3.5339,-3.5009,-3.478,-3.4034,-3.3913,-3.45,-3.6321,-3.7266,0.0,-4.1256,0.0,0.0,0.0,0.0,0.0,0.0,0.0,0.0,0.0,0.0,0.0,0.0,0.0,-6.307,-6.4083,-6.4083,-6.3338,-6.1806,-6.1787,-6.0942,-5.929,-5.929,-5.929,-5.929,-5.929,0.0,0.0,0.0,0.0,0.0,-5.9196,-5.9196,-5.9121,-5.8409,-5.7619,-5.6812,-5.5948,-5.5103,-5.4409,0.0,0.0,0.0,0.0,0.0,0.0,0.0,-1.0535,-1.0865,-1.1378,-1.1466,-1.1534,-1.1593,-1.1593,-1.1659,-1.1747,0.0,0.0,0.0,0.0,0.0,0.0,0.0,0.0,0.0,0.0,-1.6785,-1.6905,-1.7412,-1.7839,-1.8166,-1.8714,0.0,0.0,0.0,0.0,0.0,0.0,0.0,0.0,0.0,0.0,0.0,0.0,0.0,0.0,0.0,0.0,0.0,0.0,0.0,0.0,0.0,0.0,0.0,-3.1596,-3.3934,0.0,-3.6179,-3.6674,-3.7187,-3.722,-3.7073,-3.6935,-3.6739,-3.6109,-3.5488,-3.5026,-3.4532,-3.41,-3.387,-3.3868,-3.4473,-3.6178,-3.6749,0.0,0.0,0.0,0.0,0.0,0.0,0.0,0.0,0.0,0.0,0.0,0.0,0.0,0.0,0.0,-6.2103,-6.3117,-6.3218,-6.2532,-6.0999,-6.098,-6.0417,-5.929,-5.929,-5.929,-5.929,-5.929,0.0,0.0,0.0,0.0,0.0,-5.9196,-5.9196,-5.9121,-5.839,-5.7619,-5.6793,-5.593,-5.5103,-5.4409,0.0,0.0,0.0,0.0,0.0,0.0,0.0,-0.9842,-1.0269,-1.0966,-1.1118,-1.1256,-1.1564,-1.1615,-1.1681,-1.1826,0.0,0.0,0.0,0.0,0.0,0.0,0.0,0.0,0.0,-1.6717,-1.6965,-1.7332,-1.7802,-1.8378,-1.905,-1.9535,-1.9979,-2.0339,0.0,0.0,0.0,0.0,0.0,0.0,0.0,0.0,-2.1481,0.0,0.0,0.0,0.0,0.0,0.0,0.0,0.0,0.0,0.0,0.0,0.0,0.0,-3.1609,-3.3663,0.0,-3.5026,-3.5609,-3.5674,-3.5738,0.0,-3.5496,-3.5084,-3.4688,-3.4475,-3.4073,-3.378,-3.3807,-3.3815,-3.442,-3.6122,-3.6722,0.0,0.0,0.0,0.0,0.0,0.0,0.0,0.0,0.0,0.0,0.0,0.0,0.0,0.0,0.0,-6.1031,-6.1703,-6.2126,-6.178,-6.0528,-6.0548,-6.0173,-5.929,-5.929,-5.929,-5.929,0.0,0.0,0.0,0.0,0.0,0.0,-5.9253,-5.9253,-5.914,-5.8052,-5.7338,-5.6756,-5.5592,-5.4841,-5.4409,0.0,0.0,0.0,0.0,0.0,0.0,0.0,0.0,0.0,0.0,-1.0535,-1.0846,-1.1461,-1.163,-1.1747,0.0,0.0,0.0,0.0,0.0,0.0,0.0,0.0,0.0,-1.6591,-1.6791,-1.7247,-1.8012,-1.8173,-1.9,-2.042,-2.0599,-2.1065,-2.1708,-2.184,0.0,0.0,0.0,0.0,0.0,0.0,0.0,0.0,0.0,0.0,0.0,0.0,0.0,0.0,0.0,0.0,0.0,0.0,0.0,0.0,0.0,0.0,0.0,0.0,-3.3906,-3.5175,0.0,0.0,0.0,-3.474,-3.4588,0.0,-3.3807,-3.3698,-3.3726,-3.378,-3.3844,-3.444,-3.6113,0.0,0.0,0.0,0.0,0.0,0.0,0.0,0.0,0.0,0.0,0.0,0.0,0.0,0.0,0.0,0.0,0.0,-6.0036,-6.0886,-6.0986,-6.0319,-6.0454,-6.0097,-5.929,-5.929,-5.929,-5.929,0.0,0.0,0.0,0.0,0.0,0.0,-5.929,-5.929,-5.914,-5.7525,-5.6887,-5.6699,-5.501,-5.4409,-5.4409,0.0,0.0,0.0,0.0,0.0,0.0,0.0,0.0,0.0,0.0,-1.0258,-1.0684,-1.0893,-1.1421,-1.1805,0.0,0.0,0.0,0.0,0.0,0.0,0.0,0.0,0.0,-1.6727,-1.7391,-1.7851,-1.8076,-1.9276,-2.0107,-2.055,-2.1226,-2.1632,-2.1869,-2.194,-2.1597,0.0,0.0,0.0,0.0,0.0,0.0,0.0,0.0,0.0,0.0,-2.2712,-2.2842,0.0,0.0,0.0,0.0,0.0,0.0,0.0,0.0,-2.8351,-2.9656,-3.0042,0.0,-3.2665,-3.2696,-3.3273,-3.3797,0.0,-3.3712,-3.3728,-3.3585,-3.3633,-3.3698,-3.3726,-3.4266,-3.5073,0.0,0.0,0.0,0.0,0.0,0.0,0.0,0.0,0.0,0.0,0.0,0.0,0.0,0.0,0.0,0.0,0.0,0.0,-5.9197,-5.9468,-5.9528,-5.9477,-5.9572,-5.9497,-5.929,-5.929,-5.929,-5.929,0.0,0.0,0.0,0.0,0.0,-5.929,-5.929,-5.929,-5.914,-5.7525,-5.6887,-5.6699,-5.501,-5.4409,-5.4409,0.0,0.0,0.0,0.0,0.0,0.0,0.0,0.0,0.0,0.0,0.0,0.0,0.0,0.0,0.0,0.0,0.0,0.0,0.0,0.0,0.0,0.0,0.0,-1.5312,-1.6847,-1.7658,-1.8238,-1.8659,-1.9894,-2.0714,-2.1143,-2.1628,-2.1899,-2.194,-2.2061,-2.1743,0.0,0.0,0.0,0.0,0.0,0.0,0.0,0.0,0.0,0.0,-2.2591,-2.2712,0.0,-2.331,-2.3545,-2.3746,0.0,0.0,0.0,0.0,-2.7374,-2.822,-2.8632,-2.9946,-3.1315,-3.1703,-3.2194,-3.2733,-3.3172,-3.3352,-3.3422,-3.3481,0.0,0.0,-3.4174,0.0,0.0,0.0,0.0,0.0,0.0,0.0,0.0,0.0,0.0,0.0,0.0,0.0,0.0,0.0,0.0,0.0,0.0,0.0,0.0,0.0,-5.8982,-5.9081,-5.9196,-5.9272,-5.929,-5.929,-5.929,-5.929,-5.929,0.0,0.0,0.0,0.0,0.0,-5.929,-5.929,-5.929,-5.914,-5.7525,-5.6887,-5.6699,-5.501,-5.4409,-5.4409,0.0,0.0,0.0,0.0,0.0,0.0,0.0,0.0,0.0,0.0,0.0,0.0,0.0,0.0,0.0,0.0,0.0,0.0,0.0,0.0,0.0,0.0,0.0,-1.5424,-1.7126,-1.7898,-1.8676,-1.9507,-2.0352,-2.1176,-2.1976,-2.1965,-2.1986,-2.2056,-2.218,-2.1955,0.0,0.0,0.0,0.0,-1.9098,0.0,0.0,0.0,0.0,0.0,0.0,0.0,0.0,-2.279,-2.2842,-2.3023,-2.3789,0.0,0.0,0.0,0.0,0.0,-2.767,-2.898,-3.0368,-3.1369,-3.1703,-3.2038,-3.3033,0.0,0.0,0.0,0.0,0.0,0.0,-3.5089,0.0,0.0,0.0,0.0,0.0,0.0,0.0,0.0,0.0,0.0,0.0,0.0,0.0,0.0,0.0,0.0,0.0,0.0,0.0,0.0,-5.8964,-5.9081,-5.9215,-5.9272,-5.929,-5.929,-5.929,-5.929,-5.929,-5.929,0.0,0.0,0.0,0.0,-5.929,-5.929,-5.9234,-5.8971,-5.7469,-5.6812,-5.6512,-5.4972,-5.4409,-5.4409,0.0,0.0,0.0,0.0,0.0,0.0,0.0,0.0,0.0,0.0,0.0,0.0,0.0,0.0,0.0,0.0,0.0,0.0,0.0,0.0,0.0,-1.4703,-1.4767,-1.5767,-1.7866,-1.8708,-1.9551,-2.0397,-2.1209,-2.2026,-2.2831,-2.235,-2.2197,-2.2265,-2.2321,-2.2326,-2.215,-2.0773,-2.0157,-2.0,-1.8778,0.0,0.0,0.0,0.0,0.0,0.0,0.0,0.0,-2.279,-2.2816,-2.2859,-2.3109,0.0,0.0,0.0,0.0,0.0,-2.6886,-2.7677,-2.882,-3.0332,-3.1231,-3.2007,-3.2862,-3.3201,0.0,0.0,0.0,0.0,0.0,0.0,0.0,0.0,0.0,0.0,0.0,0.0,0.0,0.0,0.0,0.0,0.0,0.0,0.0,0.0,0.0,0.0,0.0,0.0,0.0,0.0,0.0,-5.9101,-5.9272,-5.929,-5.929,-5.929,-5.929,-5.929,-5.929,-5.929,-5.929,0.0,0.0,-5.929,-5.929,-5.929,-5.8896,-5.8201,-5.7263,-5.6455,-5.5704,-5.4747,-5.4409,-5.4409,0.0,0.0,0.0,0.0,0.0,0.0,0.0,0.0,0.0,0.0,0.0,0.0,0.0,0.0,0.0,0.0,0.0,0.0,0.0,0.0,0.0,-1.4782,-1.4847,-1.5877,-1.8117,-1.8963,-1.981,-2.0659,-2.186,-2.2712,-2.3167,-2.2996,-2.2711,-2.2366,-2.2432,-2.2487,-2.2412,-2.09,-2.0298,-2.0226,0.0,0.0,0.0,0.0,0.0,0.0,0.0,0.0,0.0,0.0,-2.2764,-2.2816,-2.2868,0.0,0.0,0.0,0.0,0.0,-2.6566,-2.7328,-2.8386,-3.003,-3.0779,-3.1428,-3.2711,-3.3445,-3.3862,0.0,0.0,0.0,0.0,0.0,0.0,0.0,0.0,0.0,0.0,0.0,0.0,0.0,0.0,0.0,0.0,0.0,0.0,0.0,0.0,0.0,0.0,0.0,0.0,0.0,0.0,0.0,-5.8652,-5.8652,-5.8877,-5.929,-5.929,-5.929,-5.929,-5.929,-5.929,-5.929,0.0,-5.929,-5.9271,-5.884,-5.8445,-5.7976,-5.6699,-5.5967,-5.5516,-5.4709,-5.4409,-5.4409,0.0,0.0,0.0,0.0,0.0,0.0,0.0,0.0,0.0,0.0,0.0,0.0,0.0,0.0,0.0,0.0,0.0,0.0,0.0,0.0,-1.332,-1.4838,-1.4962,-1.6082,-1.8467,-1.9164,-1.9998,-2.0965,-2.2395,-2.3251,-2.3604,-2.3706,-2.3374,-2.2688,-2.2556,-2.2569,-2.2493,-2.0975,-2.0347,-2.0274,0.0,0.0,0.0,0.0,0.0,0.0,0.0,0.0,0.0,0.0,0.0,0.0,0.0,0.0,0.0,-2.3737,-2.4611,-2.5542,-2.6222,-2.713,-2.8288,-2.9958,-3.0421,-3.0975,-3.2822,-3.3795,-3.4343,0.0,0.0,0.0,0.0,0.0,0.0,0.0,0.0,0.0,0.0,0.0,0.0,0.0,0.0,0.0,0.0,0.0,0.0,0.0,0.0,0.0,0.0,0.0,0.0,0.0,0.0,0.0,-5.7826,-5.7826,-5.8333,-5.929,-5.929,-5.929,-5.929,-5.929,-5.929,-5.929,-5.9102,-5.9027,-5.8952,-5.8164,-5.7713,-5.7394,-5.6117,-5.5498,-5.5254,-5.4634,-5.4409,-5.4409,0.0,0.0,0.0,0.0,0.0,0.0,0.0,0.0,0.0,0.0,0.0,0.0,0.0,0.0,0.0,0.0,0.0,0.0,0.0,0.0,-1.3407,-1.4838,-1.5065,-1.6499,-1.9339,-1.9535,-2.0329,-2.1816,-2.2798,-2.3718,-2.4513,-2.4516,-2.4156,-2.3505,-2.286,-2.2596,-2.2502,-2.1024,-2.0394,-2.0274,-1.8775,0.0,0.0,0.0,0.0,0.0,0.0,0.0,0.0,0.0,0.0,0.0,0.0,0.0,-2.2842,-2.3022,-2.4139,-2.5337,-2.5472,-2.6669,-2.8259,-2.9841,-3.0318,-3.1057,-3.3491,-3.4127,-3.444,-3.5241,0.0,0.0,0.0,0.0,0.0,0.0,0.0,0.0,0.0,0.0,0.0,0.0,0.0,0.0,0.0,0.0,0.0,0.0,0.0,0.0,0.0,0.0,0.0,0.0,0.0,0.0,-5.6981,-5.6981,-5.7751,-5.929,-5.929,-5.929,-5.929,-5.929,-5.929,-5.9253,-5.852,-5.8201,-5.8126,-5.7319,-5.6512,-5.5779,-5.5667,-5.5141,-5.4484,-5.4428,-5.4409,-5.4409,0.0,0.0,0.0,0.0,0.0,0.0,0.0,0.0,0.0,0.0,0.0,0.0,0.0,0.0,0.0,0.0,0.0,0.0,0.0,-1.2773,-1.3482,-1.5016,-1.5188,-1.6431,-1.8891,-1.9415,-2.0461,-2.2094,-2.3448,-2.4028,-2.3918,-2.4501,-2.4132,-2.2963,-2.277,-2.2659,-2.2556,-2.1049,-2.0394,-2.0274,-1.8775,-1.8211,0.0,0.0,0.0,0.0,0.0,0.0,0.0,0.0,-2.0842,-2.098,-2.1806,-2.2073,-2.221,-2.2729,-2.3694,-2.4725,-2.5197,-2.6542,-2.8164,-2.981,-3.1016,-3.2225,-3.3659,-3.488,-3.5912,-3.6699,-3.7862,0.0,0.0,0.0,0.0,0.0,0.0,0.0,0.0,0.0,0.0,0.0,0.0,0.0,0.0,0.0,0.0,0.0,0.0,0.0,0.0,0.0,0.0,0.0,0.0,0.0,0.0,-5.6099,-5.6681,-5.7807,-5.7807,-5.7807,-5.7807,-5.7807,-5.7807,-5.7788,-5.7488,-5.7356,-5.7281,-5.6455,-5.5911,-5.5573,-5.5066,-5.4672,-5.4409,-5.4409,-5.4409,-5.4409,0.0,0.0,0.0,0.0,0.0,0.0,0.0,0.0,0.0,0.0,0.0,0.0,0.0,0.0,0.0,0.0,0.0,0.0,-1.2792,-1.2813,-1.3541,-1.5159,-1.5309,-1.6387,-1.8601,-1.9437,-2.0512,-2.1872,-2.3498,-2.4181,-2.3955,-2.4333,-2.3961,-2.2976,-2.2789,-2.2712,-2.2608,-2.1073,-2.0418,-2.0304,-1.8841,-1.8236,0.0,0.0,0.0,0.0,0.0,0.0,0.0,0.0,-2.005,-2.0188,-2.0963,-2.1426,-2.1769,-2.2288,-2.3284,-2.4331,-2.5083,-2.6468,-2.8117,-2.9748,-3.1606,-3.3243,-3.4055,-3.5633,-3.7131,-3.7918,-3.9067,-4.042,0.0,0.0,0.0,0.0,0.0,0.0,0.0,0.0,0.0,0.0,0.0,0.0,0.0,0.0,0.0,0.0,0.0,0.0,0.0,0.0,0.0,0.0,0.0,0.0,0.0,-5.5235,-5.5516,-5.6099,-5.6099,-5.638,-5.6887,-5.6887,-5.6887,-5.6868,-5.6605,-5.6493,-5.6418,-5.5573,-5.5235,-5.5179,-5.4615,-5.4409,-5.4409,-5.4409,-5.424,-5.4015,0.0,0.0,0.0,0.0,0.0,0.0,0.0,0.0,0.0,0.0,0.0,0.0,0.0,0.0,0.0,0.0,0.0,0.0,-1.2811,-1.2852,-1.362,-1.5226,-1.5371,-1.6452,-1.8723,-1.9655,-2.0458,-2.1221,-2.2835,-2.403,-2.4854,-2.4082,-2.3732,-2.3753,-2.3013,-2.2712,-2.2608,-2.1122,-2.0512,-2.0373,-1.8895,-1.8304,-1.8315,0.0,0.0,0.0,0.0,0.0,0.0,0.0,-1.9275,-1.9413,-2.0153,-2.0928,-2.1591,-2.1683,-2.2816,-2.4278,-2.5083,-2.6468,-2.8087,0.0,0.0,0.0,-3.4818,-3.6363,-3.7863,-3.876,-4.0381,-4.1883,-4.2755,0.0,0.0,0.0,0.0,0.0,0.0,0.0,0.0,0.0,0.0,0.0,0.0,0.0,0.0,0.0,0.0,0.0,0.0,0.0,0.0,0.0,0.0,0.0,0.0,-5.4409,-5.4409,-5.4409,-5.4409,-5.5272,-5.6868,-5.6868,-5.6868,-5.6831,-5.5967,-5.561,-5.5554,-5.4728,-5.4409,-5.4409,-5.4409,-5.4409,-5.4409,-5.439,-5.3883,-5.3188,0.0,0.0,0.0,0.0,0.0,0.0,0.0,0.0,0.0,0.0,0.0,0.0,0.0,0.0,0.0,0.0,0.0,0.0,-1.2869,-1.2977,-1.3729,-1.5304,-1.5436,-1.629,-1.8053,-1.9546,-2.0892,-2.2119,-2.3157,-2.3539,-2.3292,-2.3612,-2.3539,-2.3075,-2.2868,-2.279,-2.2738,-2.1218,-2.0582,-2.0442,-1.8916,-1.8307,-1.8287,0.0,0.0,0.0,0.0,0.0,0.0,0.0,0.0,0.0,-1.9378,-2.0136,-2.0859,-2.146,-2.2383,-2.3528,-2.4861,-2.644,0.0,-2.9702,0.0,0.0,0.0,-3.6717,0.0,0.0,-4.153,-4.2619,0.0,0.0,0.0,0.0,0.0,0.0,0.0,0.0,0.0,0.0,0.0,0.0,0.0,0.0,0.0,0.0,0.0,0.0,0.0,0.0,0.0,0.0,0.0,0.0,0.0,0.0,-5.4409,-5.4409,-5.4409,-5.4653,-5.5141,-5.5141,-5.5141,-5.5122,-5.4878,-5.4766,-5.4747,-5.4503,-5.4409,-5.4409,-5.4409,-5.4409,-5.4334,-5.3752,-5.3395,-5.3095,0.0,0.0,0.0,0.0,0.0,0.0,0.0,0.0,0.0,0.0,-0.8383,0.0,0.0,0.0,0.0,0.0,0.0,0.0,0.0,-1.3066,-1.3785,-1.5369,-1.5499,-1.6407,-1.8314,-1.9384,-2.0673,-2.2176,-2.2942,-2.3106,-2.2703,-2.3177,-2.3196,-2.2842,-2.2842,-2.2868,-2.2815,-2.1272,-2.065,-2.0511,-1.8997,-1.8368,-1.8348,0.0,0.0,0.0,0.0,0.0,0.0,0.0,0.0,0.0,-1.8706,-1.9361,-2.0119,-2.0918,-2.1752,-2.2867,-2.4694,-2.6201,0.0,-2.9632,-3.2194,-3.4746,-3.6447,0.0,0.0,0.0,0.0,0.0,0.0,0.0,0.0,0.0,0.0,0.0,0.0,0.0,0.0,0.0,0.0,0.0,0.0,0.0,0.0,0.0,0.0,0.0,0.0,0.0,0.0,0.0,0.0,0.0,0.0,0.0,0.0,-5.4409,-5.4409,-5.4409,-5.4409,-5.4409,-5.4409,-5.4409,-5.4409,-5.4409,-5.4409,-5.4409,-5.4409,-5.4371,-5.4052,-5.3921,-5.3808,-5.2982,-5.2475,-5.2118,0.0,0.0,0.0,0.0,0.0,0.0,0.0,0.0,0.0,0.0,-0.8844,-0.9372,0.0,0.0,0.0,0.0,0.0,0.0,0.0,0.0,-1.3807,-1.5351,-1.5612,-1.6782,-1.9052,-1.9178,-2.0004,-2.1586,-2.2272,-2.2669,-2.2816,-2.2816,-2.2825,-2.2919,-2.2919,-2.2902,-2.2815,-2.1336,-2.0718,-2.0578,-1.9096,-1.8465,-1.8406,-1.8406,0.0,0.0,0.0,0.0,0.0,0.0,0.0,0.0,-1.8211,-1.8706,-1.9447,-2.0188,-2.1084,-2.2293,-2.4599,0.0,0.0,-2.9527,-3.1861,0.0,-3.8518,0.0,0.0,0.0,0.0,0.0,0.0,0.0,0.0,0.0,0.0,0.0,0.0,0.0,0.0,0.0,0.0,0.0,0.0,0.0,0.0,0.0,0.0,0.0,0.0,0.0,0.0,0.0,0.0,0.0,0.0,0.0,0.0,0.0,-5.4165,-5.4165,-5.4183,-5.4334,-5.4409,-5.4409,-5.4409,-5.4409,-5.4409,-5.4409,-5.4352,-5.4221,-5.3489,-5.3132,-5.2963,-5.2118,-5.133,-5.0673,0.0,0.0,0.0,0.0,0.0,0.0,0.0,0.0,0.0,0.0,0.0,0.0,0.0,0.0,0.0,0.0,0.0,0.0,0.0,0.0,-1.3681,-1.468,-1.595,-1.7158,-1.8297,-1.9026,-1.9831,-2.0772,-2.1527,-2.2245,-2.2893,-2.2893,-2.2902,-2.2995,-2.2995,-2.302,-2.2965,-2.1429,-2.0785,-2.0662,-1.9099,-1.8485,-1.8465,-1.8465,-1.8445,0.0,0.0,0.0,0.0,0.0,0.0,0.0,-1.8211,-1.8706,-1.947,-2.0258,-2.1108,-2.2317,-2.4636,-2.5943,0.0,0.0,-3.2403,-3.5225,-3.7334,0.0,0.0,0.0,0.0,0.0,0.0,0.0,0.0,0.0,0.0,0.0,0.0,0.0,0.0,0.0,0.0,0.0,0.0,0.0,0.0,0.0,0.0,0.0,0.0,0.0,0.0,0.0,0.0,0.0,-5.2437,-5.2437,-5.2437,0.0,-5.2437,-5.2437,-5.2475,-5.3808,-5.4409,-5.4409,-5.4409,-5.4409,-5.4409,-5.4409,-5.4033,-5.3433,-5.3264,-5.2775,-5.2081,-5.1255,-5.0842,-5.0598,0.0,0.0,0.0,0.0,0.0,0.0,0.0,0.0,0.0,0.0,0.0,0.0,0.0,0.0,0.0,0.0,0.0,0.0,0.0,0.0,-1.3852,-1.5061,-1.6265,-1.7305,-1.8176,-1.8637,-1.9274,-2.0065,-2.0848,-2.1805,-2.2944,-2.2944,-2.2977,-2.3045,-2.3045,-2.307,-2.2989,-2.1434,-2.0807,-2.0684,-1.9137,-1.8485,-1.8485,-1.8485,-1.8465,-1.8445,-1.8406,0.0,0.0,0.0,0.0,0.0,0.0,0.0,-1.8988,-1.9772,-2.0622,-2.1697,-2.3684,0.0,0.0,-2.986,0.0,-3.4942,0.0,0.0,0.0,0.0,0.0,0.0,0.0,0.0,0.0,0.0,0.0,0.0,0.0,0.0,0.0,0.0,0.0,0.0,0.0,0.0,0.0,0.0,0.0,0.0,0.0,0.0,0.0,0.0,0.0,0.0,-5.1912,-5.1912,-5.1912,-5.1912,-5.1912,-5.1912,-5.1949,-5.3245,-5.4033,-5.4409,-5.4409,-5.4183,-5.3827,-5.3827,-5.332,-5.2531,-5.2137,-5.1724,-5.1236,-5.041,-5.0128,-5.0072,0.0,0.0,0.0,0.0,0.0,0.0,0.0,0.0,0.0,0.0,0.0,0.0,0.0,0.0,0.0,0.0,0.0,0.0,0.0,0.0,0.0,-1.5718,-1.6409,-1.7225,-1.8277,-1.8298,-1.8725,-1.9598,-2.035,-2.1435,-2.2828,-2.295,-2.3045,-2.3095,-2.3095,-2.3119,-2.3032,-2.1615,-2.093,-2.0684,-1.9278,-1.8628,-1.8485,-1.8485,-1.8485,-1.8485,-1.8426,-1.8406,-1.8406,-1.8348,0.0,0.0,0.0,0.0,-1.8467,-1.9268,-1.9992,-2.0893,-2.2548,0.0,-2.6613,-2.998,-3.2223,0.0,0.0,0.0,0.0,0.0,0.0,0.0,0.0,0.0,0.0,0.0,0.0,0.0,0.0,0.0,0.0,0.0,0.0,0.0,0.0,0.0,0.0,0.0,0.0,0.0,0.0,0.0,0.0,0.0,0.0,-5.1499,-5.1499,-5.1499,-5.1499,-5.1499,-5.1499,-5.1555,-5.1724,-5.2437,-5.3207,-5.3977,-5.3977,-5.3583,-5.2963,-5.2963,-5.2456,-5.163,-5.0954,-5.0616,-5.041,-4.9753,-4.9509,-4.9509,0.0,0.0,0.0,0.0,0.0,0.0,0.0,0.0,0.0,0.0,0.0,0.0,0.0,0.0,0.0,0.0,0.0,0.0,-1.3278,0.0,0.0,-1.5721,-1.6022,-1.6805,-1.8281,-1.8363,-1.8808,-1.9598,-2.0394,-2.1241,-2.2154,-2.2779,-2.3095,-2.3095,-2.3095,-2.3144,-2.314,-2.2283,-2.1507,-2.0823,-1.9903,-1.9122,-1.8485,-1.8485,-1.8485,-1.8485,-1.8485,-1.8485,-1.8465,-1.8406,-1.8385,0.0,0.0,0.0,0.0,-1.9332,-1.9668,-2.0228,0.0,0.0,-2.7713,0.0,-3.1073,-3.3117,0.0,0.0,0.0,0.0,0.0,0.0,0.0,0.0,0.0,0.0,0.0,0.0,0.0,0.0,0.0,0.0,0.0,0.0,0.0,0.0,0.0,0.0,0.0,0.0,0.0,0.0,-4.9828,-4.9828,-4.9828,0.0,-4.9828,-4.9828,-4.9828,-4.9828,-4.9828,-5.0185,-5.0842,-5.0973,-5.1461,-5.2231,-5.2231,-5.2175,-5.2081,-5.2081,-5.1593,-5.0842,-5.0729,-5.026,-4.9659,-4.9546,-4.9509,-4.9509,0.0,0.0,0.0,0.0,0.0,0.0,0.0,0.0,0.0,0.0,0.0,0.0,0.0,0.0,0.0,-1.3154,-1.3226,-1.3295,-1.3346,-1.3479,-1.423,-1.5721,-1.5918,-1.672,-1.827,-1.8365,-1.86,-1.8974,-1.9784,-2.0596,-2.1396,-2.2189,-2.2764,-2.3168,-2.3193,-2.3241,-2.3212,-2.2475,-2.1945,-2.152,-2.0265,-1.9538,-1.9182,-1.8737,-1.8559,-1.8559,-1.8522,-1.8485,-1.8502,-1.8465,-1.8445,-1.8445,-1.8408,0.0,0.0,0.0,-1.9307,-2.0166,-2.2463,-2.4761,-2.6775,0.0,-2.9915,-3.1746,0.0,0.0,0.0,0.0,0.0,0.0,0.0,0.0,0.0,0.0,0.0,0.0,0.0,0.0,0.0,0.0,0.0,0.0,0.0,0.0,0.0,0.0,0.0,0.0,0.0,-4.9377,-4.9509,-4.9509,-4.9509,0.0,-4.9509,-4.9509,-4.9509,-4.9509,-4.9509,-4.9696,-5.0034,-5.0034,-5.071,-5.1912,-5.1912,-5.1649,-5.1236,-5.1236,-5.0748,-5.0034,-5.0034,-4.9809,-4.9509,-4.9509,-4.9509,-4.9509,0.0,0.0,0.0,0.0,0.0,0.0,0.0,0.0,0.0,0.0,0.0,0.0,0.0,0.0,0.0,0.0,-1.326,-1.3346,-1.3412,-1.3528,-1.4264,-1.5777,-1.5955,-1.674,-1.8293,-1.8406,-1.8445,-1.8485,-1.9313,-2.0002,-2.0629,-2.164,-2.2417,-2.2965,-2.32,-2.3313,-2.3277,-2.2734,-2.2402,-2.21,-2.0894,-2.0289,-2.004,-1.9432,-1.92,-1.92,-1.9142,-1.9105,-1.9087,-1.8856,-1.8803,-1.8766,-1.8555,-1.8485,0.0,0.0,0.0,0.0,0.0,0.0,-2.5376,-2.7187,-2.8723,-3.0261,0.0,0.0,0.0,0.0,0.0,0.0,0.0,0.0,0.0,0.0,0.0,0.0,0.0,0.0,0.0,0.0,0.0,0.0,0.0,0.0,0.0,0.0,0.0,0.0,-4.9211,-4.9409,-4.9509,-4.9509,-4.9509,-4.9509,-4.9509,-4.9509,-4.9509,-4.9509,-4.9509,-4.9509,-4.9509,-4.9509,-5.0147,-5.1292,-5.1292,-5.0954,-5.0391,-5.0391,-5.0034,-4.9509,-4.9509,-4.9509,-4.9509,-4.9509,-4.9509,-4.9509,0.0,0.0,0.0,0.0,0.0,0.0,0.0,0.0,0.0,0.0,0.0,0.0,-1.2889,-1.3013,-1.3121,-1.3192,-1.3261,-1.3362,-1.3496,-1.3562,-1.4297,-1.5921,-1.6062,0.0,-1.8351,-1.8465,-1.8485,-1.8485,-1.9318,-1.9726,-1.9797,-2.1444,-2.2216,-2.2287,-2.3,-2.3336,-2.3383,-2.3348,-2.2909,-2.218,-2.2109,-2.1608,-2.0948,-2.0873,-2.0873,-2.0856,-2.0873,-2.0813,-2.0664,-1.9885,-1.9632,-1.9503,-1.8731,-1.8485,-1.8485,0.0,0.0,0.0,0.0,-2.2187,0.0,-2.6375,0.0,0.0,0.0,0.0,0.0,0.0,0.0,0.0,0.0,0.0,0.0,0.0,0.0,0.0,0.0,0.0,0.0,0.0,0.0,0.0,0.0,0.0,0.0,0.0,0.0,0.0,-4.9289,-4.9409,-4.9509,-4.9509,-4.9509,-4.9509,-4.9509,-4.9509,-4.9509,-4.9509,-4.9509,-4.9509,-4.9509,-4.9509,-4.9546,-4.9621,-4.9621,-4.9602,-4.9565,-4.9565,-4.9546,-4.9509,-4.9509,-4.9509,-4.9509,-4.9509,-4.9509,-4.9509,0.0,0.0,0.0,0.0,0.0,0.0,0.0,0.0,0.0,0.0,0.0,0.0,0.0,-1.4233,-1.4594,-1.4673,-1.4785,-1.4858,-1.4913,-1.5019,-1.5555,-1.6666,-1.6776,-1.7301,-1.8368,-1.8483,-1.8522,-1.8559,-1.8843,-1.927,-1.9846,-2.0436,-2.101,-2.1547,-2.2843,-2.3448,-2.3453,-2.3453,-2.3293,0.0,0.0,-2.2103,-2.1779,-2.1256,0.0,0.0,0.0,0.0,0.0,-2.064,-2.053,-2.0386,-1.9591,-1.9326,-1.9237,-1.8723,0.0,0.0,0.0,0.0,0.0,-2.4455,0.0,0.0,0.0,0.0,0.0,0.0,0.0,0.0,0.0,0.0,0.0,0.0,0.0,0.0,0.0,0.0,0.0,0.0,0.0,0.0,0.0,0.0,0.0,0.0,0.0,0.0,-4.927,-4.9409,-4.9509,-4.9509,-4.9509,-4.9509,-4.9509,-4.9509,-4.9509,-4.9509,-4.9509,-4.9509,-4.9509,-4.9509,-4.9509,-4.9509,-4.9509,-4.9509,-4.9509,-4.9509,-4.9509,-4.9509,-4.9509,-4.9509,-4.9509,-4.9509,-4.9509,-4.9509,0.0,0.0,0.0,0.0,0.0,0.0,0.0,0.0,0.0,-1.3148,0.0,0.0,0.0,0.0,-1.5439,-1.5559,-1.5658,-1.5699,-1.5735,-1.5844,-1.6264,-1.7103,-1.7176,-1.76,-1.8426,-1.8465,-1.8522,-1.8596,-1.8598,-1.8903,-1.9497,-1.9801,-2.0212,-2.0787,-2.2125,-2.2856,-2.3124,0.0,0.0,-2.344,0.0,0.0,-2.2678,0.0,0.0,0.0,0.0,0.0,0.0,0.0,-2.1781,-2.1582,-2.0537,-2.0023,0.0,0.0,0.0,0.0,-1.9755,0.0,0.0,0.0,0.0,0.0,0.0,0.0,0.0,0.0,0.0,0.0,0.0,0.0,0.0,0.0,0.0,0.0,0.0,0.0,0.0,0.0,0.0,0.0,0.0,0.0,0.0,0.0,0.0,0.0,-4.8871,-4.9008,-4.9208,-4.949,-4.9509,-4.9509,-4.9509,-4.9509,-4.9509,-4.9509,-4.9509,-4.9509,-4.9509,-4.9509,-4.9509,-4.9509,-4.9509,-4.9509,-4.9509,-4.9509,-4.9509,-4.9509,-4.9509,-4.9509,-4.9509,-4.9509,-4.9509,-4.9509,0.0,0.0,0.0,0.0,0.0,0.0,0.0,0.0,-1.3847,-1.3913,0.0,0.0,0.0,0.0,0.0,-1.5744,-1.5765,-1.5803,-1.5858,-1.5932,-1.6351,-1.7195,-1.723,-1.7636,-1.8467,-1.8485,-1.8522,-1.8616,-1.8601,-1.8641,-1.8733,-1.9572,-1.9966,-2.0002,-2.0733,-2.15,-2.2285,0.0,-2.3476,-2.3494,0.0,-2.3512,-2.3601,0.0,0.0,0.0,-2.5551,-2.5811,0.0,0.0,0.0,0.0,0.0,0.0,0.0,0.0,0.0,0.0,0.0,0.0,0.0,0.0,0.0,0.0,0.0,0.0,0.0,0.0,0.0,0.0,0.0,0.0,0.0,0.0,0.0,0.0,0.0,0.0,0.0,0.0,0.0,0.0,0.0,0.0,0.0,0.0,0.0,-4.7166,-4.8101,-4.8157,-4.8551,-4.9434,-4.9471,-4.9471,-4.9509,-4.949,-4.949,-4.949,-4.949,-4.9509,-4.9509,-4.9509,-4.949,-4.949,-4.949,-4.949,-4.9509,-4.9509,-4.9509,-4.9509,-4.9509,-4.9509,-4.9509,-4.9509,-4.9509,-4.9509,0.0,0.0,0.0,0.0,0.0,0.0,-1.3345,-1.4084,-1.4627,0.0,0.0,0.0,-1.6163,-1.6757,-1.7163,-1.7271,-1.7352,-1.7394,-1.7456,-1.7576,-1.7743,-1.7997,-1.8034,-1.8216,-1.8485,-1.8485,-1.8524,-1.8601,-1.8603,-1.8659,-1.8788,-1.902,-1.9145,-1.9181,-1.9948,-2.043,-2.0715,-2.2054,0.0,0.0,-2.3494,-2.3832,0.0,0.0,0.0,0.0,0.0,-2.5818,-2.5722,0.0,-2.4777,-2.4023,0.0,0.0,0.0,0.0,0.0,0.0,-1.9914,0.0,0.0,0.0,0.0,0.0,0.0,0.0,0.0,0.0,0.0,0.0,0.0,0.0,0.0,0.0,0.0,0.0,0.0,0.0,0.0,0.0,0.0,0.0,0.0,0.0,0.0,0.0,0.0,-4.6341,-4.7293,-4.7331,-4.7706,-4.8532,-4.8551,-4.8852,-4.949,-4.9551,-4.9563,-4.9563,-4.9623,-4.9653,-4.9653,-4.9653,-4.9623,-4.9563,-4.9563,-4.9551,-4.9509,-4.9509,-4.9509,-4.9509,-4.9509,-4.9509,-4.9509,-4.9509,-4.9509,-4.9509,0.0,0.0,0.0,0.0,0.0,-1.4046,-1.4176,-1.4881,-1.556,0.0,0.0,0.0,-1.791,-1.84,-1.8765,-1.8864,-1.8887,-1.8813,-1.8594,-1.8702,-1.861,-1.8307,-1.8348,-1.8426,-1.8485,-1.8485,-1.8544,-1.8585,-1.8585,-1.8659,-1.8788,-1.8788,-1.8788,-1.8806,0.0,0.0,0.0,0.0,0.0,0.0,-2.3731,0.0,0.0,-2.5408,-2.5925,0.0,0.0,0.0,-2.6764,-2.6407,-2.58,0.0,0.0,0.0,0.0,0.0,0.0,0.0,-2.0547,-2.1121,0.0,0.0,0.0,0.0,0.0,-2.4835,0.0,0.0,0.0,0.0,0.0,0.0,0.0,0.0,0.0,0.0,0.0,0.0,0.0,0.0,0.0,0.0,0.0,0.0,0.0,0.0,-4.4617,-4.5152,-4.6392,-4.6805,-4.7218,-4.7687,-4.7706,-4.813,-4.9006,-4.9036,-4.9246,-4.9634,-4.9663,-4.9692,-4.9692,-4.9692,-4.9663,-4.9634,-4.9604,-4.9563,-4.9551,-4.949,-4.9509,-4.9509,-4.9509,-4.9509,-4.9509,-4.9509,-4.9509,-4.9509,0.0,0.0,0.0,-1.3605,-1.4301,-1.4892,-1.5107,-1.5831,-1.6635,0.0,-1.8278,-1.9102,-2.0035,-2.0069,-2.0111,-2.0303,-2.026,-1.9983,-1.9464,-1.948,-1.9204,-1.8464,-1.8508,-1.8531,-1.8485,-1.8485,-1.8544,-1.8603,-1.8585,-1.8659,-1.8788,-1.8788,-1.8788,-1.8788,0.0,0.0,0.0,0.0,0.0,-2.2303,-2.4016,-2.4748,0.0,0.0,-2.7103,0.0,-2.8084,-2.8378,-2.8334,-2.7424,-2.6629,0.0,0.0,0.0,0.0,0.0,-2.1536,0.0,-2.1432,-2.1972,-2.2533,0.0,0.0,0.0,-2.3876,-2.446,0.0,0.0,0.0,0.0,0.0,0.0,0.0,0.0,0.0,0.0,0.0,0.0,0.0,0.0,0.0,0.0,0.0,0.0,0.0,-4.2997,-4.3211,-4.3914,-4.5359,-4.6261,-4.6768,-4.6861,-4.6861,-4.7285,-4.8163,-4.8163,-4.8616,-4.9409,-4.9438,-4.9495,-4.9589,-4.9589,-4.9627,-4.9692,-4.9653,-4.9604,-4.9593,-4.9551,-4.9509,-4.9509,-4.9509,-4.9509,-4.9509,-4.9509,-4.9509,-4.9509,-1.303,0.0,-1.3705,-1.4342,-1.5142,-1.5878,-1.6581,-1.7338,-1.8175,-1.8976,-1.9375,-1.9889,-2.0783,-2.0458,-2.0416,-2.1105,-2.0668,-2.0312,-2.0188,-2.0304,-2.0048,-1.9303,-1.9388,-1.9152,-1.8502,-1.8485,-1.8542,-1.8598,-1.8584,-1.8641,-1.8715,-1.877,-1.8788,-1.8788,-1.8788,0.0,0.0,0.0,0.0,-2.1536,-2.3784,0.0,-2.5693,-2.6639,-2.7799,-2.8959,-2.9119,-2.9565,-2.9851,0.0,-2.7503,-2.6706,0.0,0.0,0.0,0.0,0.0,0.0,0.0,0.0,0.0,0.0,0.0,0.0,-2.3896,-2.4085,0.0,0.0,0.0,0.0,0.0,0.0,0.0,0.0,0.0,0.0,0.0,0.0,0.0,0.0,0.0,0.0,0.0,0.0,-4.1994,-4.2235,-4.2919,-4.3444,-4.3745,-4.4552,-4.5284,-4.5923,-4.6017,-4.644,-4.7334,-4.7447,-4.7578,-4.7775,-4.781,-4.8223,-4.8905,-4.8905,-4.921,-4.9778,-4.9778,-4.9692,-4.9593,-4.9593,-4.9551,-4.9509,-4.9509,-4.9509,-4.9509,-4.9509,-4.9509,-4.9509,-1.333,-1.4063,-1.4717,-1.5176,-1.6225,-1.7164,-1.7648,-1.8379,-1.918,-1.9987,-2.09,-2.1838,-2.2693,-2.2553,-2.2569,-2.2999,-2.2801,-2.2323,-2.16,-2.168,-2.1248,-2.01,-1.9808,-1.9503,-1.9099,-1.8696,-1.8522,-1.8596,-1.8601,-1.8623,-1.8697,-1.8769,-1.8788,-1.8788,-1.8788,0.0,0.0,0.0,-2.1322,-2.1911,-2.4284,0.0,-2.5943,-2.7139,-2.8352,-2.9405,-2.9405,-2.9665,-2.9873,-2.9169,-2.8407,0.0,0.0,-2.6405,-2.6033,0.0,-2.4685,-2.375,0.0,0.0,0.0,-2.3272,0.0,0.0,0.0,-2.4054,-2.4223,0.0,0.0,0.0,0.0,0.0,0.0,0.0,0.0,0.0,0.0,0.0,0.0,0.0,0.0,0.0,0.0,0.0,-3.9871,-4.0741,-4.1961,-4.2656,-4.2656,-4.3444,-4.411,-4.4532,-4.4955,-4.5649,-4.6598,-4.6679,-4.6913,-4.7363,-4.7371,-4.7624,-4.8041,-4.8041,-4.8242,-4.8613,-4.8559,-4.8503,-4.8428,-4.8813,-4.8923,-4.8889,-4.934,-4.9509,-4.9509,-4.9509,-4.9509,-4.9509,-1.3845,-1.4868,-1.579,-1.5991,-1.7194,-1.8215,-1.8467,-1.9186,-2.0069,-2.1059,-2.2504,-2.3799,-2.4814,-2.4873,-2.4999,-2.5333,-2.5219,-2.4637,-2.3426,-2.3362,-2.2658,-2.1109,-2.0595,-2.0223,-1.9907,-1.9134,-1.8751,-1.8808,-1.8672,-1.8641,-1.8697,-1.8752,-1.8788,-1.8788,-1.8788,0.0,0.0,0.0,0.0,-2.2714,0.0,-2.58,-2.5979,-2.7576,-2.8798,-2.9654,-2.9958,-3.0062,-2.9986,-2.989,0.0,-2.8496,-2.7738,-2.7385,0.0,0.0,0.0,0.0,0.0,0.0,0.0,0.0,0.0,-2.3976,0.0,0.0,0.0,-2.419,0.0,0.0,0.0,0.0,0.0,0.0,0.0,0.0,0.0,0.0,0.0,0.0,0.0,0.0,0.0,0.0,-3.7643,-3.9038,-4.0628,-4.1548,-4.1548,-4.2506,-4.3077,-4.3137,-4.3947,-4.478,-4.5609,-4.5805,-4.6228,-4.6923,-4.6923,-4.6999,-4.7169,-4.7169,-4.7245,-4.7397,-4.7337,-4.7284,-4.7267,-4.7844,-4.8039,-4.8093,-4.9096,-4.9509,-4.9509,-4.9509,-4.9509,-4.9509,-1.5431,-1.5631,-1.6007,-1.6731,-1.761,-1.8431,-1.9165,-1.9942,-2.1056,-2.2705,-2.3715,-2.4835,-2.6285,-2.6041,-2.6273,-2.7605,-2.6639,0.0,-2.573,0.0,-2.4242,-2.2728,-2.2695,-2.2066,-2.0701,-1.9924,-1.9556,-1.9594,-1.8917,-1.8604,-1.8604,-1.8733,-1.8788,0.0,-1.8788,0.0,0.0,0.0,-2.1982,0.0,-2.514,-2.58,0.0,-2.7576,-2.9119,-3.0564,-3.2054,-3.2199,-3.1618,0.0,-3.0225,-2.9431,0.0,-2.7954,-2.7375,0.0,0.0,0.0,0.0,0.0,0.0,0.0,-2.4525,0.0,0.0,0.0,-2.419,-2.421,0.0,0.0,0.0,0.0,0.0,0.0,0.0,0.0,0.0,0.0,0.0,0.0,0.0,0.0,0.0,0.0,0.0,-3.7361,-3.892,-3.9858,-3.9858,-4.1323,-4.2175,-4.2253,-4.3158,-4.37,-4.3888,-4.4638,-4.5103,-4.5179,-4.5179,-4.5596,-4.6335,-4.6335,-4.6733,-4.7397,-4.7397,-4.7345,-4.7284,-4.7324,-4.7278,-4.7381,-4.8901,-4.9509,-4.9509,-4.9509,-4.9509,-4.9509,-1.5694,-1.6143,-1.6731,-1.7464,-1.8318,-1.9154,-1.9918,-2.1147,-2.2585,-2.4258,-2.5177,-2.6117,0.0,0.0,0.0,0.0,0.0,-2.7902,0.0,0.0,-2.6051,-2.492,-2.3719,-2.2803,-2.2154,-2.0943,-2.0117,-1.9696,-1.9391,-1.9025,-1.8604,-1.8697,-1.8752,0.0,-1.9288,0.0,-2.0697,0.0,0.0,0.0,0.0,0.0,0.0,-2.7781,-2.9219,-3.0832,-3.2468,-3.2631,-3.1946,0.0,-3.0432,0.0,0.0,0.0,0.0,0.0,0.0,0.0,0.0,0.0,0.0,0.0,0.0,0.0,0.0,0.0,-2.4209,0.0,0.0,0.0,0.0,0.0,0.0,0.0,0.0,0.0,0.0,0.0,0.0,0.0,0.0,0.0,0.0,0.0,0.0,0.0,0.0,-3.8155,-3.8155,-3.9708,-4.066,-4.0758,-4.2052,-4.3026,-4.3653,-4.4018,-4.444,-4.4895,-4.4895,-4.5085,-4.5445,-4.5445,-4.5634,-4.5956,-4.5956,-4.5906,-4.5866,-4.6323,-4.6458,-4.6525,-4.8112,-4.8739,-4.8814,-4.9302,-4.9509,-4.9509,-1.6046,-1.6568,-1.7207,0.0,0.0,0.0,0.0,0.0,0.0,0.0,0.0,0.0,-2.8313,-2.9274,0.0,0.0,-3.0142,-2.9903,0.0,0.0,-2.7625,0.0,0.0,0.0,0.0,-2.2224,-2.1171,-2.0627,-2.0234,-1.9659,-1.8921,-1.9016,-1.9053,-1.9163,0.0,-2.0537,-2.1483,0.0,0.0,-2.5069,-2.5818,-2.6746,-2.7745,-2.8576,-2.9794,-3.1242,-3.2649,-3.2865,-3.2329,-3.1572,-3.0785,0.0,-2.9192,0.0,0.0,0.0,0.0,0.0,-2.7798,0.0,0.0,0.0,0.0,0.0,0.0,0.0,0.0,0.0,0.0,0.0,0.0,0.0,0.0,0.0,0.0,0.0,0.0,0.0,0.0,0.0,0.0,0.0,0.0,0.0,0.0,0.0,-3.5465,0.0,-3.6404,-3.8005,-3.9086,-3.9429,-4.0806,-4.203,-4.3019,-4.3474,-4.3985,-4.4573,-4.4781,-4.4895,-4.4895,-4.4895,-4.4895,-4.4895,-4.4895,-4.487,-4.4878,-4.5417,-4.559,-4.563,-4.6985,-4.765,-4.8007,-4.9096,-4.9509,-4.9509,-1.6956,-1.6981,0.0,0.0,0.0,0.0,0.0,0.0,0.0,0.0,0.0,0.0,0.0,0.0,0.0,0.0,0.0,-3.1714,-3.1679,0.0,-2.8914,0.0,0.0,-2.679,0.0,0.0,-2.3007,-2.2972,-2.1567,-2.0488,-1.977,-1.983,-1.989,-1.9966,-1.9984,-2.084,-2.2303,-2.3124,-2.4355,-2.5836,-2.6639,-2.7906,-2.9405,0.0,-3.1171,-3.2067,-3.2973,0.0,0.0,-3.2433,-3.1618,0.0,0.0,0.0,0.0,0.0,0.0,0.0,0.0,0.0,0.0,-2.762,0.0,0.0,0.0,0.0,-2.4228,0.0,0.0,0.0,0.0,0.0,-2.4534,-2.4582,0.0,0.0,0.0,0.0,0.0,0.0,0.0,0.0,0.0,0.0,0.0,0.0,-3.3719,0.0,-3.4677,-3.6254,-3.76,-3.8505,-3.9415,-4.0329,-4.1275,-4.2886,-4.3701,-4.3758,-4.4535,-4.4895,-4.4895,-4.4895,-4.4895,-4.4895,-4.4895,-4.4895,-4.487,-4.4782,-4.4749,-4.4799,-4.551,-4.6298,-4.7256,-4.8889,-4.9509,-4.9509,0.0,-1.8464,0.0,0.0,0.0,0.0,0.0,-2.483,0.0,0.0,0.0,0.0,0.0,0.0,-3.3054,0.0,0.0,-3.3317,-3.3317,-3.1942,0.0,0.0,0.0,-2.7927,0.0,0.0,-2.4664,-2.3095,-2.2593,-2.1726,-2.0541,-2.0604,-2.0667,-2.0764,0.0,-2.1804,0.0,0.0,0.0,0.0,0.0,-2.8772,-3.0295,0.0,0.0,-3.2103,-3.2991,-3.3352,0.0,-3.2469,-3.1673,-3.0858,-3.0043,-2.9246,-2.8587,-2.8587,-2.8637,0.0,0.0,0.0,-2.8351,-2.7889,0.0,0.0,0.0,0.0,0.0,0.0,0.0,0.0,0.0,0.0,-2.4517,-2.453,-2.4564,-2.4631,0.0,0.0,0.0,0.0,0.0,0.0,0.0,0.0,0.0,-3.0509,-3.2011,-3.3193,0.0,-3.4846,-3.5888,-3.6807,-3.8203,-3.9403,-4.0347,-4.1484,-4.2602,-4.3701,-4.3985,-4.4383,-4.4895,-4.4895,-4.4895,-4.4895,-4.4895,-4.4895,-4.4895,-4.4764,-4.4712,-4.4761,-4.5435,-4.5885,-4.6336,-4.8025,-4.9002,-4.9509,-1.9131,0.0,0.0,0.0,0.0,0.0,0.0,0.0,0.0,0.0,-3.0027,0.0,-3.1546,0.0,-3.4072,0.0,-3.4294,-3.4433,-3.449,-3.3339,0.0,-3.2053,-3.0698,0.0,0.0,0.0,0.0,-2.3927,-2.3664,-2.2757,-2.1295,-2.1361,-2.1444,-2.1505,0.0,-2.2446,-2.2821,0.0,-2.5372,0.0,0.0,-2.9211,0.0,0.0,-3.1462,0.0,0.0,-3.3352,-3.3321,-3.2795,-3.189,-3.0894,-3.0387,-2.9481,-2.8587,-2.8587,-2.8662,-2.8718,-2.8785,-2.8858,0.0,0.0,-2.8007,0.0,-2.6484,0.0,0.0,0.0,0.0,0.0,0.0,0.0,-2.4498,-2.4495,-2.4547,-2.4599,0.0,-2.4695,0.0,0.0,0.0,0.0,0.0,0.0,-2.8932,-2.9213,-3.049,-3.1616,0.0,0.0,-3.4609,-3.5543,-3.7184,-3.8515,-3.9456,-4.0631,-4.1749,-4.2829,-4.3417,-4.3966,-4.4478,-4.4762,-4.4895,-4.4895,-4.4895,-4.4895,-4.4895,-4.477,-4.4719,-4.4723,-4.5143,-4.5482,-4.5904,-4.7575,-4.8739,-4.9509,0.0,0.0,0.0,0.0,-2.2054,0.0,0.0,0.0,-2.7423,0.0,-3.0701,-3.1579,-3.2307,-3.3854,-3.484,-3.4985,-3.5128,0.0,-3.5301,-3.4611,0.0,0.0,-3.2123,-3.1133,-2.9001,0.0,0.0,0.0,0.0,-2.359,-2.2124,-2.2157,-2.2184,0.0,-2.2317,0.0,-2.3583,-2.5158,-2.5854,-2.605,-2.7576,-2.9211,-3.0711,-3.0779,0.0,-3.3292,-3.3382,-3.3393,-3.3393,-3.3393,-3.2361,-3.1039,-3.1003,-2.9916,-2.8641,-2.8605,-2.8662,-2.8718,-2.8785,-2.8858,-2.8929,-2.8975,0.0,0.0,0.0,0.0,-2.5533,0.0,0.0,0.0,0.0,0.0,0.0,-2.4495,-2.4495,-2.4547,-2.4682,0.0,0.0,0.0,0.0,0.0,0.0,-2.666,-2.7467,-2.8219,-2.9119,-2.9983,0.0,0.0,0.0,-3.4694,-3.6319,-3.7646,-3.8622,-4.0252,-4.1124,-4.1219,-4.2829,-4.3625,-4.3739,-4.4497,-4.4857,-4.4895,-4.4895,-4.4895,-4.4895,-4.4821,-4.4745,-4.4685,-4.4632,-4.5077,-4.596,-4.7594,-4.8739,-4.9509,-2.1568,-2.2264,-2.326,0.0,-2.5076,-2.5557,0.0,0.0,0.0,0.0,-3.1914,-3.3119,-3.3846,-3.5382,-3.6389,-3.6539,-3.7141,0.0,0.0,0.0,0.0,-3.4493,-3.3422,-3.2367,-3.1341,-3.0012,0.0,-2.7104,0.0,0.0,-2.3714,-2.3182,0.0,0.0,0.0,0.0,-2.3583,-2.5158,-2.6496,-2.7638,-2.8021,-2.9239,0.0,0.0,-3.1885,-3.3382,-3.3393,-3.3393,-3.3393,-3.3393,-3.2723,-3.1781,-3.1184,-3.0296,-2.9373,-2.8793,-2.8687,-2.8785,-2.8785,-2.89,-2.8994,-2.8994,-2.8828,-2.8539,0.0,0.0,0.0,0.0,0.0,0.0,0.0,0.0,0.0,-2.4498,-2.4497,-2.4547,0.0,0.0,0.0,0.0,0.0,0.0,0.0,0.0,-2.6395,-2.6585,-2.7937,0.0,0.0,0.0,0.0,-3.3785,-3.4881,-3.617,-3.7728,-3.8791,-3.9968,-4.1219,-4.1635,-4.2488,-4.3701,-4.391,-4.4326,-4.4895,-4.4895,-4.4895,-4.4895,-4.4821,-4.4745,-4.4685,-4.4632,-4.5453,-4.6786,-4.7819,-4.8739,-4.9509,-2.2863,0.0,0.0,-2.6019,0.0,0.0,-2.7611,0.0,0.0,-3.1256,-3.2841,0.0,-3.4912,-3.609,-3.7012,-3.7473,-3.7974,0.0,0.0,0.0,0.0,-3.5762,-3.4644,-3.3439,-3.2107,-3.1289,0.0,-2.7659,0.0,0.0,-2.4286,0.0,0.0,0.0,0.0,-2.3448,0.0,-2.5158,-2.6746,-2.8182,-2.8182,0.0,0.0,-3.0779,-3.1856,-3.3352,-3.3411,-3.3393,-3.3393,-3.3393,-3.2868,-3.2053,-3.1238,-3.0441,-2.9626,-2.8848,-2.8687,-2.8761,-2.8785,-2.8881,-2.8952,-2.8994,-2.8994,-2.8865,-2.8429,-2.8044,-2.7699,0.0,0.0,0.0,0.0,0.0,0.0,-2.4555,0.0,0.0,0.0,0.0,0.0,0.0,0.0,0.0,0.0,0.0,0.0,0.0,0.0,0.0,0.0,0.0,0.0,-3.288,-3.4146,-3.5641,-3.7385,-3.826,-3.9342,-4.065,-4.1029,-4.1882,-4.3152,-4.3531,-4.4137,-4.4895,-4.4895,-4.4895,-4.4895,-4.4846,-4.4796,-4.4719,-4.4632,-4.5585,-4.7049,-4.7519,-4.8457,-4.9509,0.0,0.0,0.0,0.0,0.0,0.0,0.0,-3.0533,0.0,-3.216,0.0,-3.4928,-3.569,-3.6552,-3.736,-3.8095,0.0,-3.8516,-3.8523,-3.7998,-3.7284,-3.649,-3.5711,-3.4315,-3.2239,-3.2177,0.0,0.0,0.0,0.0,-2.4444,0.0,0.0,0.0,0.0,0.0,0.0,-2.5354,-2.6835,0.0,-2.8182,-2.9211,-3.0711,-3.0779,-3.1827,-3.3292,-3.3382,-3.3393,-3.3393,-3.3393,-3.294,-3.2198,-3.1274,-3.0514,-2.9771,-2.8884,-2.8662,-2.8718,-2.8761,-2.8834,-2.8929,-2.8952,-2.8994,-2.8994,-2.8994,-2.8466,-2.7974,-2.8037,-2.7398,0.0,0.0,0.0,0.0,0.0,0.0,0.0,0.0,0.0,0.0,0.0,0.0,0.0,0.0,0.0,0.0,0.0,0.0,0.0,0.0,0.0,0.0,0.0,-3.3654,0.0,-3.7364,0.0,-3.9001,-3.9908,-4.0688,-4.1465,-4.228,-4.3152,-4.3966,-4.4743,-4.4857,-4.4895,-4.4895,-4.4895,-4.4846,-4.4789,-4.4659,-4.5585,-4.6993,-4.7012,-4.8063,-4.9509,0.0,0.0,0.0,0.0,0.0,-3.0725,-3.1934,-3.1865,-3.2176,-3.3617,-3.4706,0.0,-3.6502,-3.7787,-3.8715,-3.8996,-3.9685,0.0,0.0,0.0,0.0,-3.7301,-3.598,-3.4777,-3.3817,-3.2587,-3.115,0.0,0.0,0.0,-2.5191,0.0,0.0,0.0,0.0,0.0,-2.5461,-2.6389,0.0,-2.8182,-2.8182,-2.9211,-3.0711,-3.0779,-3.1827,-3.3292,-3.3382,-3.3393,-3.3393,-3.3393,-3.3302,-3.294,-3.1455,-3.0894,-3.0496,-2.9047,-2.8662,-2.8694,-2.8718,-2.881,-2.8887,-2.8929,-2.8952,-2.8994,-2.8994,-2.8906,-2.8796,-2.8796,-2.8198,-2.7656,-2.7527,0.0,0.0,0.0,0.0,0.0,0.0,0.0,0.0,0.0,0.0,0.0,0.0,0.0,0.0,0.0,0.0,0.0,0.0,0.0,0.0,0.0,0.0,0.0,0.0,0.0,0.0,-3.9889,-4.0041,-4.0593,-4.1446,-4.2261,-4.3095,-4.3947,-4.4611,-4.4895,-4.4895,-4.4895,-4.4846,-4.4789,-4.4659,-4.5613,-4.708,-4.7041,-4.8063,-4.9509,0.0,0.0,0.0,0.0,0.0,0.0,0.0,-3.3338,0.0,-3.4564,-3.5501,-3.6531,-3.7725,-3.8516,-3.9206,-3.9628,-4.0133,-4.0283,-4.0052,-3.9409,-3.8745,-3.8094,-3.6973,0.0,-3.4743,-3.3658,-3.2399,-3.1062,0.0,0.0,-2.6578,0.0,0.0,-2.4416,0.0,-2.5237,0.0,0.0,0.0,-2.8235,-2.8655,-2.954,-3.0641,-3.1123,-3.211,-3.3214,-3.3322,-3.3382,-3.3393,-3.3393,-3.3393,-3.3121,-3.151,-3.0985,-3.0677,-2.9083,-2.8612,-2.8662,-2.8694,-2.8743,-2.8815,-2.8863,-2.8929,-2.897,-2.8994,-2.8994,-2.8994,-2.8994,-2.875,-2.8408,-2.8006,-2.7001,0.0,0.0,0.0,0.0,0.0,0.0,0.0,0.0,0.0,0.0,0.0,0.0,0.0,0.0,0.0,0.0,0.0,0.0,0.0,0.0,0.0,0.0,0.0,0.0,0.0,-3.9223,-3.9681,-4.0344,-4.1237,-4.2033,-4.2886,-4.3739,-4.4554,-4.4895,-4.4895,-4.4895,-4.4846,-4.477,-4.4685,-4.5649,-4.708,-4.7022,-4.8063,-4.9509,0.0,-2.9597,0.0,0.0,-3.2122,0.0,0.0,-3.475,-3.5179,-3.5338,-3.6296,-3.7511,-3.8689,-3.9041,-3.9462,-4.002,-4.0238,-4.0337,-4.0436,-3.9864,-3.9233,-3.8584,-3.7887,-3.6766,-3.5232,-3.4518,-3.3471,0.0,0.0,0.0,0.0,0.0,0.0,0.0,0.0,0.0,0.0,0.0,-2.7727,-2.853,-2.9137,-2.994,-3.0832,-3.153,-3.2325,-3.3104,-3.3262,-3.3322,-3.3382,-3.3411,-3.3393,-3.3121,-3.151,-3.0985,-3.0677,-2.9083,-2.8587,-2.8612,-2.8644,-2.8694,-2.8737,-2.8815,-2.8881,-2.8929,-2.897,-2.8994,-2.8994,-2.8994,-2.904,-2.885,-2.812,-2.7461,0.0,0.0,0.0,0.0,0.0,0.0,0.0,0.0,0.0,0.0,0.0,0.0,0.0,0.0,0.0,0.0,0.0,0.0,0.0,0.0,0.0,0.0,-3.5894,0.0,-3.778,0.0,-3.947,-4.0249,-4.0972,-4.1958,-4.2773,-4.3474,-4.4478,-4.4895,-4.4895,-4.4895,-4.487,-4.4815,-4.4952,-4.5873,-4.7156,-4.7239,-4.8254,-4.9551,0.0,0.0,0.0,0.0,0.0,0.0,0.0,-3.586,-3.5958,-3.6104,-3.7468,-3.8506,-3.8757,-3.9497,-4.0003,-4.007,-4.0238,-4.0305,-4.0305,-3.9816,-3.9203,-3.8448,-3.7843,-3.6766,-3.5232,-3.4456,-3.3412,0.0,0.0,0.0,0.0,0.0,0.0,0.0,0.0,0.0,0.0,-2.7745,-2.8566,-2.9298,-2.9369,-3.0279,-3.1581,-3.1744,-3.2294,-3.3011,-3.3232,-3.3292,-3.3322,-3.3382,-3.3393,-3.3121,-3.151,-3.0985,-3.0677,-2.9083,-2.8587,-2.8587,-2.8612,-2.8644,-2.8694,-2.8718,-2.8815,-2.8905,-2.8905,-2.897,-2.8994,-2.8994,-2.9017,-2.8782,-2.8058,-2.7837,-2.7564,0.0,0.0,0.0,0.0,0.0,0.0,0.0,0.0,0.0,0.0,0.0,0.0,0.0,0.0,0.0,0.0,0.0,0.0,0.0,0.0,-3.3329,-3.5894,-3.6779,0.0,-3.8615,-3.9407,-3.9864,-4.0079,-4.1673,-4.245,-4.2621,-4.4213,-4.4895,-4.4895,-4.4895,-4.4895,-4.4946,-4.5691,-4.6509,-4.7351,-4.8032,-4.8871,-4.9663,0.0,0.0,0.0,0.0,0.0,0.0,0.0,-3.6754,-3.7334,-3.7385,-3.8036,-3.8706,-3.926,-3.9716,-3.9986,-4.007,-4.0138,-4.0188,-4.0288,-4.0097,-3.9494,-3.8437,-3.8184,-3.7352,-3.5887,-3.4697,-3.3822,0.0,0.0,0.0,0.0,0.0,0.0,0.0,0.0,-2.783,-2.8365,-2.877,-2.9369,-3.0101,-3.0582,-3.1153,-3.1742,-3.2286,-3.2693,-3.3028,-3.3152,-3.3214,-3.3292,-3.3382,-3.3393,-3.3194,-3.2071,-3.1383,-3.0767,-2.9644,-2.8993,-2.8587,-2.8587,-2.8612,-2.8662,-2.8694,-2.8743,-2.8791,-2.8881,-2.8929,-2.8952,-2.8994,-2.8994,-2.8906,-2.8617,-2.8607,-2.85,0.0,0.0,0.0,0.0,0.0,0.0,0.0,0.0,0.0,0.0,0.0,0.0,0.0,0.0,0.0,0.0,0.0,0.0,-3.1992,0.0,-3.3083,-3.5096,-3.649,-3.7382,-3.7788,-3.9157,-3.9804,-3.9883,-4.1613,-4.2962,-4.3947,-4.4611,-4.4895,-4.4895,-4.4895,-4.4895,-4.499,-4.5786,-4.6592,-4.7397,-4.8136,-4.8956,-4.9692,-3.2351,0.0,-3.3792,0.0,-3.5151,-3.6158,-3.6589,-3.7533,-3.8295,-3.8493,-3.8615,-3.8902,-3.961,-3.9833,-3.9935,-4.007,-4.007,-4.0138,-4.0238,-4.0101,-3.9501,-3.8374,-3.8163,0.0,-3.6335,-3.5059,-3.434,-3.4177,-3.2209,0.0,0.0,0.0,0.0,0.0,-2.8617,-2.9006,-2.958,-2.9686,-3.0143,-3.0903,-3.1474,-3.1831,-3.2099,-3.267,-3.2916,-3.2979,-3.3042,-3.3135,-3.3244,-3.3352,-3.3364,-3.3266,-3.2451,-3.1799,-3.1148,-3.0097,-2.9391,-2.8902,-2.8641,-2.8587,-2.8612,-2.8662,-2.8687,-2.8718,-2.8839,-2.8881,-2.8929,-2.8994,-2.8994,-2.8994,-2.8994,-2.904,-2.9085,0.0,0.0,0.0,0.0,0.0,0.0,0.0,0.0,-2.6303,-2.608,0.0,0.0,0.0,0.0,0.0,0.0,0.0,0.0,0.0,0.0,0.0,0.0,0.0,-3.728,-3.7566,-3.9052,-3.9777,-3.986,-4.1613,-4.3322,-4.4895,-4.4895,-4.4895,-4.4895,-4.4895,-4.4895,-4.499,-4.5811,-4.6618,-4.7432,-4.821,-4.9013,-4.9778,-3.3161,-3.3892,-3.4759,-3.5646,-3.5894,-3.6489,-3.7963,-3.8195,-3.846,-3.9172,-3.9309,-3.9415,-3.9677,-3.9833,-3.9935,-4.007,-4.007,-4.007,-4.007,-3.9559,-3.8908,0.0,0.0,-3.7025,-3.6318,-3.5559,-3.4818,-3.4093,0.0,0.0,-3.0907,0.0,-3.0088,-3.0071,-3.0149,-3.0225,-3.03,-3.0379,-3.0884,-3.1689,-3.1689,-3.217,-3.2898,-3.2916,-3.2916,-3.2916,-3.2979,-3.3042,-3.3117,-3.3262,-3.3352,-3.3266,-3.2451,-3.218,-3.1872,-3.026,-2.9771,-2.9608,-2.883,-2.8587,-2.8587,-2.8587,-2.8662,-2.8718,-2.8785,-2.8858,-2.8929,-2.8994,-2.8994,-2.8994,-2.8994,-2.8994,-2.8994,-2.8994,0.0,0.0,0.0,0.0,0.0,0.0,-2.7987,-2.7692,-2.6953,0.0,0.0,0.0,0.0,0.0,0.0,0.0,0.0,-3.2023,-3.2103,0.0,-3.5859,-3.6686,-3.7539,-3.8418,-3.9279,-3.9746,-3.986,-4.1613,-4.3322,-4.4895,-4.4895,-4.4895,-4.4895,-4.4895,-4.4895,-4.499,-4.5862,-4.6695,-4.7491,-4.8382,-4.9197,-4.9898,-3.3909,-3.4644,-3.5366,-3.5762,-3.6736,-3.7665,-3.8146,-3.8626,-3.9023,-3.9239,-3.9272,-3.9379,-3.9537,-3.9677,-3.9833,0.0,-4.0037,-3.9868,0.0,-3.9172,-3.8526,-3.7359,-3.724,-3.6894,-3.6268,-3.5535,-3.5076,-3.4835,0.0,0.0,0.0,-3.09,-3.058,-3.0106,-3.0184,-3.0494,-3.1002,-3.1146,-3.1702,-3.2446,-3.2509,-3.2684,-3.2916,-3.2916,-3.2916,-3.2916,-3.2997,-3.3042,-3.3117,-3.3262,-3.3352,-3.3357,-3.3103,-3.2632,-3.2089,-3.1582,-3.0659,-2.9735,-2.9481,-2.9029,-2.8587,-2.8587,-2.8612,-2.8662,-2.8712,-2.8834,-2.8929,-2.8994,-2.8994,-2.8994,-2.8994,-2.8994,-2.8994,-2.8994,0.0,0.0,0.0,0.0,0.0,0.0,0.0,-2.7913,0.0,-2.7193,0.0,0.0,0.0,0.0,0.0,0.0,0.0,0.0,-3.2685,0.0,-3.5878,-3.6686,-3.7516,-3.8324,-3.9255,-4.033,-4.1524,-4.2749,-4.3891,-4.4895,-4.4895,-4.4895,-4.4895,-4.4895,-4.4895,-4.499,-4.5862,-4.6676,-4.751,-4.8363,-4.9197,-4.9898,-3.4708,-3.5233,-3.5809,-3.657,-3.7548,-3.8295,-3.8576,-3.899,-3.9272,-3.9272,-3.9272,-3.9226,-3.9013,-3.9189,0.0,-3.9497,-3.9631,0.0,-3.8633,-3.8328,-3.7784,-3.6956,-3.674,-3.6515,-3.6182,0.0,0.0,-3.5197,-3.3835,-3.2751,-3.1969,-3.1757,-3.1405,-3.0966,-3.1014,-3.1293,-3.1749,-3.1912,-3.2278,-3.2823,-3.2852,-3.2916,-3.2916,-3.2916,-3.2916,-3.2916,-3.2948,-3.3011,-3.3073,-3.3183,-3.3292,-3.3382,-3.3393,-3.3067,-3.2596,-3.2288,-3.1473,-3.0568,-2.9952,-2.9427,-2.8993,-2.8677,-2.8587,-2.8612,-2.8712,-2.8815,-2.8929,-2.8994,-2.8994,-2.8994,-2.8994,-2.8994,-2.8994,-2.8994,0.0,-2.9017,0.0,0.0,0.0,0.0,0.0,0.0,0.0,-2.8083,0.0,0.0,0.0,0.0,0.0,0.0,0.0,-3.2021,-3.2906,0.0,-3.6329,-3.6836,-3.7662,-3.8788,-3.9726,-4.089,-4.2295,-4.3232,-4.4113,-4.4895,-4.4895,-4.4895,-4.4895,-4.4895,-4.4895,-4.4952,-4.5501,-4.6222,-4.7036,-4.7889,-4.8723,-4.9481,-3.5397,-3.5627,0.0,0.0,-3.8261,0.0,-3.9172,-3.9272,-3.9255,-3.9206,-3.9206,-3.8924,-3.8212,-3.837,-3.8556,-3.8622,0.0,0.0,0.0,-3.7161,-3.6785,-3.6791,-3.6307,0.0,-3.6165,-3.6276,-3.5939,-3.5197,-3.396,-3.3378,-3.3454,-3.2827,-3.2529,-3.2476,-3.2476,-3.2475,-3.2507,-3.2573,-3.269,-3.2805,-3.2852,-3.2884,-3.2916,-3.2916,-3.2916,-3.2916,-3.2916,-3.2948,-3.3011,-3.3073,-3.3183,-3.3292,-3.3382,-3.3393,-3.3248,-3.2506,-3.2234,-3.1872,-3.0351,-2.9942,-2.9681,-2.8956,-2.8775,-2.8801,-2.8925,-2.8998,-2.907,-2.9159,-2.9122,-2.9067,-2.9067,-2.903,-2.8994,-2.8994,-2.8994,-2.8994,-2.8994,0.0,0.0,0.0,0.0,0.0,0.0,-2.9357,-2.9397,0.0,0.0,0.0,0.0,0.0,-3.1241,-3.2054,-3.2994,-3.463,-3.708,-3.7155,-3.8005,-3.962,-4.0553,-4.1412,-4.2221,-4.3239,-4.4121,-4.4895,-4.4895,-4.4895,-4.4895,-4.4895,-4.4895,-4.4895,-4.4895,-4.5426,-4.6278,-4.7036,-4.787,-4.8704,0.0,0.0,-3.676,-3.7837,-3.8606,-3.9073,-3.9255,-3.9272,-3.9073,-3.8526,-3.846,-3.8179,-3.745,-3.7603,-3.7534,-3.703,-3.7694,-3.7855,-3.7094,-3.6874,-3.6502,-3.5955,-3.599,-3.6019,-3.6036,-3.6216,-3.5939,-3.5197,-3.4938,-3.4588,-3.4147,-3.4067,-3.3738,-3.323,-3.3231,-3.295,-3.2422,-3.2507,-3.259,-3.2639,-3.2773,-3.2852,-3.2916,-3.2916,-3.2916,-3.2916,-3.2916,-3.2948,-3.3011,-3.3073,-3.3183,-3.3292,-3.3382,-3.3393,-3.3357,-3.3176,-3.2687,-3.2125,-3.1727,-3.1166,-3.0659,-3.0477,-3.0423,-3.045,-3.0547,-3.0626,-3.0659,-3.0734,-3.0308,-2.9934,-2.9934,-2.942,-2.8994,-2.8994,-2.8994,-2.8994,-2.8994,0.0,0.0,0.0,-2.9085,-2.9112,-2.9218,-2.9835,-3.0231,0.0,0.0,0.0,0.0,0.0,-3.2594,-3.2913,-3.4416,-3.581,-3.708,-3.7699,-3.8544,-3.962,-4.1117,-4.1939,-4.224,-4.3825,-4.4651,-4.4895,-4.4895,-4.4895,-4.4895,-4.4895,-4.4895,-4.4895,-4.4895,-4.5426,-4.6222,-4.6411,-4.6999,-4.7719,-3.5245,-3.5803,-3.6465,-3.736,-3.7926,-3.8278,-3.8278,-3.8278,-3.8146,-3.7765,-3.7715,-3.7433,-3.6688,-3.6787,-3.6649,-3.5978,-3.6818,-3.706,-3.6299,-3.6248,-3.6062,-3.5639,-3.58,-3.5949,-3.6019,-3.6148,-3.6069,-3.5697,-3.5457,-3.5156,-3.4892,-3.4641,-3.4331,-3.4056,-3.4038,-3.381,-3.3424,-3.316,-3.3088,-3.3069,-3.2882,-3.2805,-3.287,-3.2884,-3.2916,-3.2916,-3.2916,-3.2916,-3.2948,-3.3042,-3.3135,-3.3214,-3.3322,-3.3382,-3.3393,-3.3393,-3.3085,-3.2669,-3.2288,-3.1872,-3.1455,-3.1075,-3.0985,-3.103,-3.1084,-3.1137,-3.1172,-3.1276,-3.0979,-3.0717,-3.0742,-3.0099,-2.9549,-2.9549,-2.9232,-2.8994,-2.8994,-2.8994,0.0,-2.8994,-2.904,-2.9232,-2.965,-3.0161,-3.0635,-3.1069,0.0,0.0,-3.234,-3.3101,-3.345,-3.3209,-3.4862,-3.618,-3.708,-3.8281,-3.9126,-3.962,-4.0904,-4.1745,-4.224,-4.3593,-4.4455,-4.4895,-4.4895,-4.4895,-4.4895,-4.4895,-4.4895,-4.4895,-4.4895,-4.5198,-4.5653,-4.6051,-4.6468,-4.6904,-3.5194,-3.5493,-3.5824,-3.6715,-3.6949,-3.7051,-3.7051,-3.7102,-3.7069,-3.6953,-3.6936,-3.6655,-3.5909,-3.5941,-3.5835,-3.5295,-3.611,-3.6332,-3.5656,-3.5622,-3.5622,-3.5622,-3.5728,-3.5861,-3.5975,-3.6165,-3.6233,-3.6301,-3.5728,-3.5538,-3.5618,-3.5091,-3.4801,-3.4863,-3.4863,-3.4793,-3.4653,-3.4075,-3.3776,-3.3653,-3.3135,-3.2897,-3.2823,-3.2852,-3.2884,-3.2916,-3.2916,-3.2916,-3.2916,-3.2997,-3.3042,-3.3104,-3.3214,-3.3322,-3.3364,-3.3364,-3.3393,-3.3248,-3.256,-3.2379,-3.2216,-3.1528,-3.1347,-3.1392,-3.142,-3.1447,-3.1501,-3.1616,-3.1532,-3.1485,-3.1543,-3.0901,-3.0314,-3.0228,-2.9641,-2.9122,-2.9012,0.0,-2.9049,-2.9159,-2.9177,-2.9517,-3.0396,-3.0651,-3.1071,-3.1821,-3.2688,0.0,0.0,-3.3937,-3.4134,-3.3583,-3.5058,-3.64,-3.7455,-3.8906,-3.9602,-3.962,-4.0422,-4.1287,-4.2221,-4.3089,-4.3995,-4.4895,-4.4895,-4.4895,-4.4895,-4.4895,-4.4895,-4.4895,-4.4895,-4.4895,-4.499,-4.5729,-4.5994,-4.6089,-3.5091,-3.534,-3.5671,-3.6457,-3.6795,-3.6949,-3.6949,-3.7001,-3.6887,-3.6257,-3.6174,-3.5893,-3.5148,-3.5177,-3.5221,-3.5152,-3.5501,-3.5684,-3.5577,-3.5622,-3.5622,-3.5622,-3.5728,-3.5861,-3.5975,-3.6191,-3.6301,-3.6301,-3.618,-3.6212,-3.6353,-3.6232,-3.5971,-3.5556,-3.5556,-3.5227,-3.467,-3.4602,-3.4216,-3.3706,-3.3617,-3.3261,-3.2823,-3.2805,-3.287,-3.2916,-3.2916,-3.2916,-3.2916,-3.2997,-3.3028,-3.3011,-3.3104,-3.3214,-3.334,-3.334,-3.3352,-3.3375,-3.3248,-3.3212,-3.3176,-3.3067,-3.3031,-3.3031,-3.3031,-3.3089,-3.3128,-3.3156,-3.2666,-3.2246,-3.2326,-3.1667,-3.0924,-3.0301,-3.0099,-2.9787,-2.9085,0.0,-2.9255,-2.9934,-3.0008,-3.0362,-3.1219,-3.1992,-3.2508,-3.271,-3.3523,-3.4011,-3.4011,-3.4829,-3.5287,-3.523,-3.6173,-3.7504,-3.9207,-3.947,-3.9602,-3.962,-4.0422,-4.1287,-4.2221,-4.3089,-4.3995,-4.4895,-4.4895,-4.4895,-4.4895,-4.4895,-4.4895,-4.4895,-4.4895,-4.4895,-4.4914,-4.5047,-4.5103,-4.5122,-3.4538,-3.4704,-3.4903,-3.5245,-3.5462,-3.5613,-3.5712,-3.5762,-3.5696,-3.5446,-3.5413,-3.528,-3.4932,-3.4947,-3.4994,-3.5088,-3.5198,-3.5337,-3.5412,-3.5532,-3.5622,-3.5622,-3.5667,-3.58,-3.5975,-3.6148,-3.6276,-3.6301,-3.6301,-3.636,-3.6502,-3.6502,-3.6411,-3.6242,-3.6265,-3.6112,-3.5822,-3.544,-3.49,-3.4216,-3.3847,-3.3264,-3.2641,-3.274,-3.2805,-3.287,-3.2884,-3.2916,-3.2916,-3.2948,-3.2979,-3.3028,-3.3042,-3.3104,-3.3214,-3.3214,-3.3304,-3.3393,-3.3393,-3.3393,-3.3393,-3.3393,-3.3393,-3.3393,-3.3393,-3.3422,-3.3452,-3.3491,-3.3229,-3.3002,-3.3086,-3.2464,-3.1832,-3.1492,-3.1102,0.0,0.0,-3.0283,-3.043,-3.0797,-3.0852,-3.1164,-3.1997,-3.2495,-3.2957,-3.3457,-3.3895,-3.4377,-3.4866,-3.5274,-3.5938,-3.6863,-3.7337,-3.8246,-3.9602,-3.9602,-3.9602,-3.9602,-3.9971,-4.0647,-4.158,-4.241,-4.3334,-4.4289,-4.4706,-4.4895,-4.4895,-4.4895,-4.4895,-4.4895,-4.4895,-4.4895,-4.4895,-4.4895,-4.4895,-4.4895,-3.4101,-3.4201,-3.425,-3.425,-3.4349,-3.4497,-3.4594,-3.4643,-3.4739,-3.4851,-3.4899,-3.4899,-3.4899,-3.4899,-3.4947,-3.5041,-3.5088,-3.5135,-3.5245,-3.5412,-3.5532,-3.5594,-3.5622,-3.5756,-3.5932,-3.6122,-3.6208,-3.6276,-3.6301,-3.6343,-3.6444,-3.6444,-3.6544,-3.6643,-3.6708,-3.6748,-3.6753,-3.6221,-3.551,-3.4598,-3.4128,-3.3354,-3.2507,-3.2674,-3.274,-3.2823,-3.287,-3.2884,-3.2916,-3.2916,-3.2948,-3.2997,-3.2997,-3.3011,-3.3073,-3.3073,-3.3196,-3.3334,-3.3411,-3.3393,-3.3393,-3.3393,-3.3393,-3.3393,-3.3393,-3.3393,-3.3393,-3.3481,-3.3481,-3.3509,-3.3549,-3.3095,-3.2693,-3.2492,0.0,0.0,0.0,-3.1384,-3.1458,-3.1659,-3.1678,-3.199,-3.2816,-3.2941,-3.3257,-3.3961,-3.4259,-3.4717,-3.546,-3.585,-3.6756,-3.8287,-3.8452,-3.8871,-3.9602,-3.9602,-3.9602,-3.9602,-3.9602,-4.0083,-4.099,-4.1844,-4.2748,-4.3715,-4.4554,-4.4895,-4.4895,-4.4895,-4.4895,-4.4895,-4.4895,-4.4895,-4.4895,-4.4895,-4.4895,-4.4895,-3.4101,-3.4101,-3.4101,-3.4101,-3.425,-3.43,-3.4349,-3.4546,-3.4691,-3.4691,-3.4804,-3.4899,-3.4899,-3.4899,-3.4899,-3.4899,-3.5041,-3.5088,-3.5088,-3.5245,-3.5383,-3.5492,-3.5701,-3.5773,-3.5817,-3.6079,-3.6208,-3.6225,-3.6276,-3.6301,-3.6301,-3.6301,-3.6402,-3.6502,-3.6544,-3.6585,-3.6684,-3.6736,-3.5867,-3.4541,-3.4581,-3.3776,-3.2507,-3.2507,-3.2641,-3.2823,-3.2823,-3.2838,-3.2916,-3.2916,-3.2916,-3.2916,-3.2916,-3.2948,-3.3028,-3.3028,-3.3073,-3.3147,-3.3364,-3.3393,-3.3393,-3.3393,-3.3393,-3.3393,-3.3393,-3.3393,-3.3393,-3.3411,-3.3411,-3.3422,-3.3509,-3.3455,-3.3193,-3.252,0.0,0.0,-3.1393,-3.1378,-3.1678,-3.243,-3.2522,-3.2834,-3.3623,-3.375,-3.3865,-3.3998,-3.4814,-3.5373,-3.5479,-3.6909,-3.8215,-3.9261,-3.9376,-3.9489,-3.9602,-3.9602,-3.9602,-3.9602,-3.9602,-4.0058,-4.0941,-4.1801,-4.2705,-4.3667,-4.4511,-4.4895,-4.4895,-4.4895,-4.4895,-4.4895,-4.4895,-4.4895,-4.4895,-4.4895,-4.4895,-4.4895,-3.4,-3.405,-3.4101,-3.4101,-3.4151,-3.4201,-3.43,-3.4399,-3.4497,-3.4546,-3.4691,-3.4804,-3.4804,-3.4851,-3.4899,-3.4899,-3.4947,-3.4994,-3.4994,-3.5088,-3.5291,-3.5492,-3.5594,-3.5711,-3.5817,-3.5905,-3.5993,-3.6079,-3.6191,-3.6251,-3.6251,-3.6259,-3.6343,-3.6402,-3.6444,-3.6544,-3.6585,-3.6684,-3.5859,-3.4504,-3.4559,-3.3721,-3.2457,-3.2473,-3.2541,-3.2608,-3.2657,-3.2755,-3.2838,-3.2838,-3.287,-3.2916,-3.2916,-3.2916,-3.2948,-3.2979,-3.3011,-3.3073,-3.3196,-3.3274,-3.3322,-3.3322,-3.3382,-3.3393,-3.3393,-3.3393,-3.3393,-3.3393,-3.3393,-3.3411,-3.3422,-3.3481,-3.34,-3.312,0.0,-3.3149,-3.2838,-3.2837,-3.2999,-3.3311,-3.3348,-3.3458,-3.377,-3.3815,-3.4107,-3.4694,-3.5106,-3.5795,-3.6867,-3.8015,-3.884,-3.9256,-3.9373,-3.9495,-3.9602,-3.9602,-3.9602,-3.9602,-3.9602,-3.9795,-4.0201,-4.1574,-4.2421,-4.2872,-4.4283,-4.4895,-4.4895,-4.4895,-4.4895,-4.4895,-4.4895,-4.4895,-4.4895,-4.4895,-4.4895,-4.4895,-3.3848,-3.3899,-3.4,-3.405,-3.405,-3.4101,-3.4201,-3.425,-3.4349,-3.4448,-3.4546,-3.4643,-3.4643,-3.4739,-3.4851,-3.4851,-3.4899,-3.4899,-3.4899,-3.5041,-3.5198,-3.5492,-3.5566,-3.5639,-3.5728,-3.5773,-3.5861,-3.5949,-3.6079,-3.6165,-3.6225,-3.6251,-3.6259,-3.6301,-3.6402,-3.6444,-3.6426,-3.6342,-3.5571,-3.4411,-3.4204,-3.3421,-3.2354,-3.2457,-3.2473,-3.2507,-3.2539,-3.2657,-3.2722,-3.2773,-3.2838,-3.2852,-3.2884,-3.2916,-3.2916,-3.2948,-3.2979,-3.2979,-3.3024,-3.3122,-3.3201,-3.3214,-3.3304,-3.3382,-3.3382,-3.3364,-3.3393,-3.3393,-3.3393,-3.3393,-3.3393,-3.3422,-3.3481,-3.3481,-3.3549,-3.3643,-3.3671,-3.3726,-3.378,-3.3807,-3.3807,-3.3807,-3.3807,-3.4027,-3.4458,-3.5119,-3.5725,-3.6693,-3.8146,-3.8776,-3.9129,-3.9183,-3.9328,-3.9469,-3.9571,-3.9596,-3.9602,-3.9602,-3.9602,-3.9752,-4.0083,-4.1531,-4.2335,-4.2748,-4.424,-4.487,-4.4895,-4.4895,-4.4895,-4.4895,-4.4895,-4.4895,-4.4895,-4.4895,-4.4895,-4.4895,-3.3694,-3.3694,-3.3745,-3.3848,-3.3899,-3.3949,-3.4101,-3.4201,-3.43,-3.43,-3.4399,-3.4497,-3.4497,-3.4594,-3.4691,-3.4691,-3.4804,-3.4899,-3.4899,-3.5041,-3.5198,-3.5492,-3.5492,-3.552,-3.5577,-3.5728,-3.5817,-3.5817,-3.5932,-3.6079,-3.6182,-3.6225,-3.6251,-3.6301,-3.6301,-3.6301,-3.6249,-3.5648,-3.4926,-3.4129,-3.3609,-3.2913,-3.2214,-3.2354,-3.2457,-3.2507,-3.2507,-3.2557,-3.2606,-3.274,-3.2823,-3.2805,-3.2884,-3.2916,-3.2916,-3.2916,-3.2916,-3.2916,-3.2916,-3.2948,-3.3011,-3.3086,-3.3214,-3.331,-3.331,-3.3352,-3.3393,-3.3393,-3.3393,-3.3393,-3.3393,-3.3393,-3.3393,-3.3393,-3.3452,-3.352,-3.3605,-3.3661,-3.3726,-3.3807,-3.3807,-3.3807,-3.3807,-3.4541,-3.5018,-3.5119,-3.6731,-3.8118,-3.9064,-3.9101,-3.9129,-3.9183,-3.9328,-3.9444,-3.9495,-3.9571,-3.9602,-3.9602,-3.9602,-4.0009,-4.0835,-4.1701,-4.2624,-4.3567,-4.443,-4.4821,-4.4895,-4.4895,-4.4895,-4.4895,-4.4895,-4.4895,-4.4895,-4.4895,-4.4895,-4.4895,-3.3555,-3.3658,-3.3694,-3.3745,-3.3848,-3.3899,-3.3949,-3.405,-3.4151,-3.4151,-3.43,-3.4349,-3.4349,-3.4497,-3.4546,-3.4546,-3.4594,-3.4643,-3.4739,-3.4899,-3.5041,-3.5198,-3.54,-3.5492,-3.552,-3.5639,-3.5667,-3.5667,-3.58,-3.5861,-3.5905,-3.6036,-3.6122,-3.6251,-3.6251,-3.5958,-3.5508,-3.5341,-3.4535,-3.3401,-3.3251,-3.2805,-3.2214,-3.2249,-3.2336,-3.2422,-3.2422,-3.2473,-3.2523,-3.2574,-3.2623,-3.269,-3.2787,-3.2838,-3.2838,-3.2884,-3.2916,-3.2916,-3.2916,-3.2916,-3.2948,-3.3011,-3.3104,-3.3165,-3.3165,-3.3244,-3.3322,-3.3322,-3.3382,-3.3393,-3.3393,-3.3393,-3.3393,-3.3393,-3.3452,-3.3509,-3.352,-3.3633,-3.3698,-3.3726,-3.378,-3.4027,-3.4596,-3.4844,-3.5495,-3.6681,-3.7864,-3.8662,-3.9017,-3.9073,-3.9101,-3.9129,-3.932,-3.9418,-3.9444,-3.9527,-3.9602,-3.9602,-3.9602,-4.0009,-4.0835,-4.1701,-4.2624,-4.3567,-4.443,-4.4821,-4.4895,-4.4895,-4.4895,-4.4895,-4.4895,-4.4895,-4.4895,-4.4895,-4.4895,-4.4895,-3.3398,-3.3503,-3.3555,-3.3607,-3.371,-3.3797,-3.3899,-3.3949,-3.405,-3.4101,-3.4151,-3.4201,-3.4201,-3.4349,-3.4399,-3.4399,-3.4448,-3.4431,-3.4184,-3.431,-3.4272,-3.4084,-3.4313,-3.4779,-3.5429,-3.552,-3.5549,-3.5549,-3.5684,-3.5773,-3.5817,-3.5888,-3.5993,-3.6105,-3.5839,-3.5486,-3.5105,-3.4542,-3.3805,-3.3017,-3.2743,-3.2418,-3.2091,-3.2179,-3.2267,-3.2319,-3.2388,-3.2422,-3.2473,-3.2507,-3.2557,-3.2606,-3.269,-3.2722,-3.2722,-3.277,-3.282,-3.287,-3.287,-3.2884,-3.2916,-3.2948,-3.3011,-3.3073,-3.3073,-3.3135,-3.3232,-3.3292,-3.3322,-3.3382,-3.3411,-3.3393,-3.3393,-3.3393,-3.3422,-3.3481,-3.3509,-3.3577,-3.3771,-3.4137,-3.4211,-3.4568,-3.544,-3.5807,-3.6541,-3.7904,-3.8575,-3.8921,-3.8997,-3.9045,-3.9101,-3.9101,-3.9229,-3.9346,-3.9391,-3.952,-3.9552,-3.9602,-3.9602,-4.0178,-4.1304,-4.1818,-4.2761,-4.3969,-4.4485,-4.477,-4.4846,-4.4846,-4.4889,-4.4895,-4.4895,-4.4895,-4.4895,-4.4895,-4.487,-4.4846,-3.3309,-3.3309,-3.3346,-3.345,-3.3503,-3.3607,-3.3848,-3.3848,-3.3949,-3.405,-3.4101,-3.4101,-3.4101,-3.4201,-3.43,-3.43,-3.4333,-3.4087,-3.335,-3.3412,-3.3208,-3.2533,-3.2724,-3.3551,-3.5011,-3.5266,-3.5391,-3.5391,-3.5515,-3.5667,-3.5773,-3.5773,-3.581,-3.5856,-3.524,-3.4888,-3.4706,-3.3412,-3.2869,-3.2731,-3.2115,-3.1894,-3.193,-3.2091,-3.2179,-3.2214,-3.2354,-3.2388,-3.2388,-3.2473,-3.2523,-3.2573,-3.2606,-3.2606,-3.2606,-3.2606,-3.269,-3.2773,-3.2773,-3.2838,-3.2884,-3.2884,-3.3019,-3.3069,-3.3015,-3.3042,-3.3135,-3.3262,-3.331,-3.3322,-3.3382,-3.3411,-3.3393,-3.3393,-3.3465,-3.3531,-3.359,-3.3673,-3.404,-3.4906,-3.4997,-3.5373,-3.6321,-3.7129,-3.793,-3.8737,-3.8851,-3.8939,-3.8997,-3.9045,-3.9101,-3.9101,-3.9156,-3.9256,-3.9391,-3.9469,-3.952,-3.9602,-3.9602,-4.044,-4.1991,-4.1991,-4.2945,-4.4605,-4.4605,-4.4685,-4.477,-4.477,-4.4821,-4.487,-4.487,-4.487,-4.487,-4.487,-4.4846,-4.477,-3.3309,-3.3309,-3.3309,-3.3346,-3.345,-3.3503,-3.3607,-3.3658,-3.3797,-3.3949,-3.3949,-3.4,-3.4101,-3.4151,-3.4151,-3.4151,-3.373,-3.3208,-3.2506,-3.2613,-3.2607,-3.25,-3.2545,-3.2784,-3.325,-3.4058,-3.451,-3.4661,-3.5251,-3.5549,-3.5622,-3.5622,-3.5406,-3.4959,-3.4849,-3.4157,-3.3111,-3.2921,-3.2462,-3.1895,-3.1852,-3.1839,-3.1894,-3.1948,-3.202,-3.2108,-3.2214,-3.2249,-3.2267,-3.2388,-3.2422,-3.2439,-3.2507,-3.2523,-3.2523,-3.2573,-3.2606,-3.2639,-3.2639,-3.2722,-3.2805,-3.2805,-3.3351,-3.3702,-3.3059,-3.2979,-3.3011,-3.306,-3.3201,-3.3292,-3.3322,-3.3352,-3.3393,-3.3393,-3.3936,-3.4335,-3.4365,-3.4939,-3.5466,-3.5732,-3.5809,-3.6197,-3.7147,-3.7955,-3.8505,-3.8719,-3.8822,-3.891,-3.8939,-3.9036,-3.9101,-3.9101,-3.9156,-3.9256,-3.9391,-3.9469,-3.952,-3.9602,-3.9602,-4.044,-4.1991,-4.1991,-4.2945,-4.4605,-4.4605,-4.4659,-4.4719,-4.4719,-4.4738,-4.4745,-4.4745,-4.4745,-4.4745,-4.4745,-4.4719,-4.4719,-3.3309,-3.3309,-3.3309,-3.3309,-3.3346,-3.345,-3.3503,-3.3555,-3.3642,-3.3797,-3.3797,-3.3848,-3.4,-3.4,-3.3921,-3.3647,-3.2999,-3.2333,-3.1635,-3.1723,-3.1651,-3.1319,-3.1347,-3.1479,-3.1609,-3.2486,-3.3167,-3.3678,-3.4124,-3.4415,-3.4503,-3.4503,-3.437,-3.405,-3.3794,-3.3257,-3.2531,-3.229,-3.1974,-3.1617,-3.1671,-3.1765,-3.1839,-3.1912,-3.193,-3.202,-3.2108,-3.2179,-3.2214,-3.2267,-3.2354,-3.2406,-3.2457,-3.2439,-3.2439,-3.2507,-3.2523,-3.2539,-3.2539,-3.2623,-3.2722,-3.2773,-3.341,-3.3906,-3.3562,-3.3773,-3.4074,-3.4124,-3.4239,-3.4303,-3.4348,-3.4411,-3.4455,-3.4455,-3.4865,-3.5186,-3.5186,-3.5561,-3.6023,-3.6479,-3.6559,-3.7028,-3.7991,-3.845,-3.8707,-3.8707,-3.8792,-3.8881,-3.891,-3.9007,-3.9073,-3.9101,-3.9129,-3.9202,-3.9301,-3.9399,-3.9495,-3.9546,-3.9577,-4.044,-4.1991,-4.1991,-4.2919,-4.4551,-4.4551,-4.4578,-4.4659,-4.4659,-4.4685,-4.4712,-4.4712,-4.4712,-4.4712,-4.4712,-4.4685,-4.4659,-3.3256,-3.3293,-3.3309,-3.3309,-3.3309,-3.3346,-3.345,-3.345,-3.3503,-3.3658,-3.3658,-3.3694,-3.3848,-3.3735,-3.34,-3.2741,-3.211,-3.1463,-3.0752,-3.0839,-3.0607,-3.0049,-3.0103,-3.0248,-3.0375,-3.0968,-3.1758,-3.269,-3.2954,-3.3125,-3.3287,-3.3287,-3.3229,-3.3144,-3.2635,-3.2377,-3.2224,-3.1696,-3.1483,-3.1542,-3.1579,-3.1671,-3.1783,-3.1839,-3.1858,-3.1912,-3.202,-3.2108,-3.2179,-3.2179,-3.2267,-3.2354,-3.2354,-3.2354,-3.2354,-3.2388,-3.2457,-3.2473,-3.2473,-3.2523,-3.2606,-3.274,-3.3415,-3.4123,-3.4227,-3.4741,-3.5221,-3.5359,-3.5393,-3.5426,-3.5475,-3.554,-3.5588,-3.5588,-3.5796,-3.5969,-3.6001,-3.6127,-3.6485,-3.7235,-3.7385,-3.7734,-3.8585,-3.8707,-3.8707,-3.8707,-3.8762,-3.8822,-3.891,-3.895,-3.9036,-3.9101,-3.9101,-3.9129,-3.921,-3.9301,-3.9399,-3.9495,-3.9571,-4.0365,-4.1811,-4.1935,-4.2844,-4.4308,-4.4458,-4.4524,-4.4578,-4.4578,-4.4605,-4.4659,-4.4659,-4.4659,-4.4659,-4.4659,-4.4632,-4.4578,-3.3096,-3.3203,-3.3309,-3.3309,-3.3309,-3.3309,-3.3293,-3.3361,-3.3361,-3.3503,-3.3555,-3.3607,-3.3694,-3.3217,-3.2319,-3.1037,-3.089,-3.0612,-2.9935,-2.9976,-3.0043,-2.9973,-3.0017,-3.0103,-3.0231,-3.033,-3.0912,-3.1957,-3.2617,-3.3021,-3.3108,-3.3108,-3.2798,-3.2285,-3.2184,-3.1837,-3.1382,-3.1325,-3.1334,-3.1334,-3.1542,-3.1617,-3.1617,-3.1746,-3.1819,-3.1819,-3.1912,-3.202,-3.2108,-3.2108,-3.2108,-3.2144,-3.2232,-3.2232,-3.2267,-3.2354,-3.2406,-3.2422,-3.2422,-3.2473,-3.2523,-3.2541,-3.3704,-3.4854,-3.4959,-3.5081,-3.5221,-3.5221,-3.5307,-3.5393,-3.5393,-3.546,-3.554,-3.5588,-3.6215,-3.6717,-3.6816,-3.7431,-3.7935,-3.8125,-3.8237,-3.8382,-3.8491,-3.864,-3.8707,-3.8707,-3.8762,-3.8822,-3.891,-3.895,-3.9036,-3.9101,-3.9101,-3.9129,-3.921,-3.921,-3.9328,-3.9495,-3.9495,-4.0033,-4.0985,-4.1698,-4.2543,-4.3501,-4.4214,-4.4515,-4.4515,-4.4515,-4.4515,-4.4542,-4.4542,-4.4542,-4.4542,-4.4542,-4.4524,-4.4515,-3.3005,-3.3112,-3.3203,-3.3203,-3.3256,-3.3309,-3.3309,-3.3309,-3.3309,-3.3398,-3.3398,-3.345,-3.3555,-3.2668,-3.1662,-3.067,-3.0252,-2.9929,-2.9624,-2.9653,-2.9726,-2.9814,-2.9814,-2.9902,-3.006,-3.0103,-3.0353,-3.0896,-3.1295,-3.1573,-3.1742,-3.1742,-3.1658,-3.1422,-3.1463,-3.1318,-3.1112,-3.1213,-3.1274,-3.1295,-3.1389,-3.1466,-3.1576,-3.1634,-3.1709,-3.1709,-3.1819,-3.1929,-3.1984,-3.1984,-3.2037,-3.2108,-3.2144,-3.2144,-3.2144,-3.2267,-3.2267,-3.2301,-3.2388,-3.2422,-3.2439,-3.2507,-3.3388,-3.4412,-3.4925,-3.5403,-3.5847,-3.6399,-3.6595,-3.663,-3.663,-3.6682,-3.6752,-3.6768,-3.7176,-3.7512,-3.7546,-3.7923,-3.8207,-3.8307,-3.8354,-3.8433,-3.851,-3.8559,-3.8609,-3.8707,-3.8719,-3.8762,-3.8851,-3.891,-3.8979,-3.9036,-3.9073,-3.9129,-3.9156,-3.9183,-3.9237,-3.9328,-3.9399,-3.9907,-4.0816,-4.1173,-4.1792,-4.2618,-4.3463,-4.3839,-4.3857,-4.4327,-4.4515,-4.4515,-4.4515,-4.4515,-4.4515,-4.4515,-4.4515,-4.4458]}]]